[[{"header":{"parameterUnit":"m.s-1","parameterCategory":1,"la1":30.6,"la2":29.2853,"lo1":-89.7004,"lo2":-87.6739,"dy":0.0162,"dx":0.0183,"nx":112,"ny":82,"refTime":"2023-11-16T06:00:00:Z","depth":0,"parameterNumber":2,"parameterNumberName":"U-component_of_WINDS"},"data":[0.0,0.0,0.0,0.0,0.0,0.0,0.0,0.0,0.0,0.0,0.0,0.0,0.0,0.0,0.0,0.0,0.0,0.0,0.0,0.0,0.0,0.0,0.0,0.0,0.0,0.0,0.0,0.0,0.0,0.0,0.0,0.0,0.0,0.0,0.0,0.0,0.0,0.0,0.0,0.0,0.0,0.0,0.0,0.0,0.0,0.0,0.0,0.0,0.0,0.0,0.0,0.0,0.0,0.0,0.0,0.0,0.0,0.0,0.0,0.0,0.0,0.0,0.0,0.0,0.0,0.0,0.0,0.0,0.0,0.0,0.0,0.0,0.0,0.0,0.0,0.0,0.0,0.0,0.0,0.0,0.0,0.0,0.0,0.0,0.0,0.0,0.0,0.0,0.0,0.0,5.3025,5.3443,5.4421,5.5108,5.5108,5.5108,5.3943,5.1285,0.0,0.0,0.0,0.0,0.0,0.0,0.0,0.0,0.0,0.0,0.0,0.0,0.0,0.0,0.0,0.0,0.0,0.0,0.0,0.0,0.0,0.0,0.0,0.0,0.0,0.0,0.0,0.0,0.0,0.0,0.0,0.0,0.0,0.0,0.0,0.0,0.0,0.0,0.0,0.0,0.0,0.0,0.0,0.0,0.0,0.0,0.0,0.0,0.0,0.0,0.0,0.0,0.0,0.0,0.0,0.0,0.0,0.0,0.0,0.0,0.0,0.0,0.0,0.0,0.0,0.0,0.0,0.0,0.0,0.0,0.0,0.0,0.0,0.0,0.0,0.0,0.0,0.0,0.0,0.0,0.0,0.0,0.0,0.0,0.0,0.0,0.0,0.0,0.0,0.0,0.0,0.0,0.0,0.0,0.0,0.0,0.0,0.0,0.0,0.0,0.0,0.0,0.0,0.0,5.201,5.4369,5.4786,5.4905,5.4905,5.4905,5.3674,5.103,0.0,0.0,0.0,0.0,0.0,0.0,0.0,0.0,0.0,0.0,0.0,0.0,0.0,0.0,0.0,0.0,0.0,0.0,0.0,0.0,0.0,0.0,0.0,0.0,0.0,0.0,0.0,0.0,0.0,0.0,0.0,0.0,0.0,0.0,0.0,0.0,0.0,0.0,0.0,0.0,0.0,0.0,0.0,0.0,0.0,0.0,0.0,0.0,0.0,0.0,0.0,0.0,0.0,0.0,0.0,0.0,0.0,0.0,0.0,0.0,0.0,0.0,0.0,0.0,0.0,0.0,0.0,0.0,0.0,0.0,0.0,0.0,0.0,0.0,0.0,0.0,0.0,0.0,0.0,0.0,0.0,0.0,0.0,0.0,0.0,0.0,0.0,0.0,0.0,0.0,0.0,0.0,0.0,0.0,0.0,0.0,0.0,0.0,0.0,0.0,0.0,0.0,0.0,5.2001,5.3784,5.5364,5.5738,5.5723,5.5543,5.541,5.403,5.122,5.1135,0.0,0.0,0.0,0.0,0.0,0.0,0.0,0.0,0.0,0.0,0.0,0.0,0.0,0.0,0.0,0.0,0.0,0.0,0.0,0.0,0.0,0.0,0.0,0.0,0.0,0.0,0.0,0.0,0.0,0.0,0.0,0.0,0.0,0.0,0.0,0.0,0.0,0.0,0.0,0.0,0.0,0.0,0.0,0.0,0.0,0.0,0.0,0.0,0.0,0.0,0.0,0.0,0.0,0.0,0.0,0.0,0.0,0.0,0.0,0.0,0.0,0.0,0.0,0.0,0.0,0.0,0.0,0.0,0.0,0.0,0.0,0.0,0.0,0.0,0.0,0.0,0.0,0.0,0.0,0.0,0.0,0.0,0.0,0.0,0.0,0.0,0.0,0.0,0.0,0.0,0.0,0.0,0.0,0.0,0.0,0.0,0.0,0.0,0.0,0.0,0.0,0.0,5.4012,5.5837,5.6346,5.6616,5.6631,5.6332,5.5797,5.4399,5.1762,5.1135,0.0,0.0,0.0,0.0,0.0,0.0,0.0,0.0,0.0,0.0,0.0,0.0,0.0,0.0,0.0,0.0,0.0,0.0,0.0,0.0,0.0,0.0,0.0,0.0,0.0,0.0,0.0,0.0,0.0,0.0,0.0,0.0,0.0,0.0,0.0,0.0,0.0,0.0,0.0,0.0,0.0,0.0,0.0,0.0,0.0,0.0,0.0,0.0,0.0,0.0,0.0,0.0,0.0,0.0,0.0,0.0,0.0,0.0,0.0,0.0,0.0,0.0,0.0,0.0,0.0,0.0,0.0,0.0,0.0,0.0,0.0,0.0,0.0,0.0,0.0,0.0,0.0,0.0,0.0,0.0,0.0,0.0,0.0,0.0,0.0,0.0,0.0,0.0,0.0,0.0,0.0,0.0,0.0,0.0,0.0,0.0,0.0,0.0,0.0,0.0,0.0,0.0,5.5329,5.6974,5.7034,5.6855,5.6674,5.6674,5.5545,5.4238,5.2753,5.113,0.0,0.0,0.0,0.0,0.0,0.0,0.0,0.0,0.0,0.0,0.0,0.0,0.0,0.0,0.0,0.0,0.0,0.0,0.0,0.0,0.0,0.0,0.0,0.0,0.0,0.0,0.0,0.0,0.0,0.0,0.0,0.0,0.0,0.0,0.0,0.0,0.0,0.0,0.0,0.0,0.0,0.0,0.0,0.0,0.0,0.0,0.0,0.0,0.0,0.0,0.0,0.0,0.0,0.0,0.0,0.0,0.0,0.0,0.0,0.0,0.0,0.0,0.0,0.0,0.0,0.0,0.0,0.0,0.0,0.0,0.0,0.0,0.0,0.0,0.0,0.0,0.0,0.0,0.0,0.0,0.0,0.0,0.0,0.0,0.0,0.0,0.0,0.0,0.0,0.0,0.0,0.0,0.0,0.0,0.0,0.0,0.0,0.0,0.0,0.0,0.0,0.0,5.5478,5.7244,0.0,5.7898,5.788,5.757,5.6988,5.5619,5.3158,0.0,0.0,0.0,0.0,0.0,0.0,0.0,0.0,0.0,0.0,0.0,0.0,0.0,0.0,0.0,0.0,0.0,0.0,0.0,0.0,0.0,0.0,0.0,0.0,0.0,0.0,0.0,0.0,0.0,0.0,0.0,0.0,0.0,0.0,0.0,0.0,0.0,0.0,0.0,0.0,0.0,0.0,0.0,0.0,0.0,0.0,0.0,0.0,0.0,0.0,0.0,0.0,0.0,0.0,0.0,0.0,0.0,0.0,0.0,0.0,0.0,0.0,0.0,0.0,0.0,0.0,0.0,0.0,0.0,0.0,0.0,0.0,0.0,0.0,0.0,0.0,0.0,0.0,0.0,0.0,0.0,0.0,0.0,0.0,0.0,0.0,0.0,0.0,0.0,0.0,0.0,0.0,0.0,0.0,0.0,0.0,0.0,0.0,0.0,0.0,0.0,0.0,5.3743,5.6107,5.7902,0.0,5.8614,5.8703,5.8363,5.7839,5.6437,5.3883,0.0,0.0,0.0,0.0,0.0,0.0,0.0,0.0,0.0,0.0,0.0,0.0,0.0,0.0,0.0,0.0,0.0,0.0,0.0,0.0,0.0,0.0,0.0,0.0,0.0,0.0,0.0,0.0,0.0,0.0,0.0,0.0,0.0,0.0,0.0,0.0,0.0,0.0,0.0,0.0,0.0,0.0,0.0,0.0,0.0,0.0,0.0,0.0,0.0,0.0,0.0,0.0,0.0,0.0,0.0,0.0,0.0,0.0,0.0,0.0,0.0,0.0,0.0,0.0,0.0,0.0,0.0,0.0,0.0,0.0,0.0,0.0,0.0,0.0,0.0,0.0,0.0,0.0,0.0,0.0,0.0,0.0,0.0,0.0,0.0,0.0,0.0,0.0,0.0,0.0,0.0,0.0,0.0,0.0,0.0,0.0,0.0,0.0,0.0,0.0,0.0,0.0,5.5089,5.7483,5.9099,5.9099,5.9099,5.8991,5.8694,5.7796,5.6452,0.0,0.0,0.0,0.0,0.0,0.0,0.0,0.0,0.0,0.0,0.0,0.0,0.0,0.0,0.0,0.0,0.0,0.0,0.0,0.0,0.0,0.0,0.0,0.0,0.0,0.0,0.0,0.0,0.0,0.0,0.0,0.0,0.0,0.0,0.0,0.0,0.0,0.0,0.0,0.0,0.0,0.0,0.0,0.0,0.0,0.0,0.0,0.0,0.0,0.0,0.0,0.0,0.0,0.0,0.0,0.0,0.0,0.0,0.0,0.0,0.0,0.0,0.0,0.0,0.0,0.0,0.0,0.0,0.0,0.0,0.0,0.0,0.0,0.0,0.0,0.0,0.0,0.0,0.0,0.0,0.0,0.0,0.0,0.0,0.0,0.0,0.0,0.0,0.0,0.0,0.0,0.0,0.0,0.0,0.0,0.0,0.0,0.0,0.0,0.0,0.0,0.0,0.0,5.5149,5.7483,5.9099,5.9099,5.9099,5.9099,5.8991,5.874,5.7543,5.5227,0.0,0.0,0.0,0.0,0.0,0.0,0.0,0.0,0.0,0.0,0.0,0.0,0.0,0.0,0.0,0.0,0.0,0.0,0.0,0.0,0.0,0.0,0.0,0.0,0.0,0.0,0.0,0.0,0.0,0.0,0.0,0.0,0.0,0.0,0.0,0.0,0.0,0.0,0.0,0.0,0.0,0.0,0.0,0.0,0.0,0.0,0.0,0.0,0.0,0.0,0.0,0.0,0.0,0.0,0.0,0.0,0.0,0.0,0.0,0.0,0.0,0.0,0.0,0.0,0.0,0.0,0.0,0.0,0.0,0.0,0.0,0.0,0.0,0.0,0.0,0.0,0.0,0.0,0.0,0.0,0.0,0.0,0.0,0.0,0.0,0.0,0.0,0.0,0.0,0.0,0.0,0.0,0.0,0.0,0.0,0.0,0.0,0.0,0.0,0.0,0.0,0.0,5.5538,5.7872,5.9608,5.9877,5.9907,5.9907,5.9907,5.9907,5.889,5.6526,0.0,0.0,0.0,0.0,0.0,0.0,0.0,0.0,0.0,0.0,0.0,0.0,0.0,0.0,0.0,0.0,0.0,0.0,0.0,0.0,0.0,0.0,0.0,0.0,0.0,0.0,0.0,0.0,0.0,0.0,0.0,0.0,0.0,0.0,0.0,0.0,0.0,0.0,0.0,0.0,0.0,0.0,0.0,0.0,0.0,0.0,0.0,0.0,0.0,0.0,0.0,0.0,0.0,0.0,0.0,0.0,0.0,0.0,0.0,0.0,0.0,0.0,0.0,0.0,0.0,0.0,0.0,0.0,0.0,0.0,0.0,0.0,0.0,0.0,0.0,0.0,0.0,0.0,0.0,0.0,0.0,0.0,0.0,0.0,0.0,0.0,0.0,0.0,0.0,0.0,0.0,0.0,0.0,0.0,0.0,0.0,0.0,0.0,0.0,0.0,0.0,0.0,5.6166,5.856,6.0416,6.1044,6.1104,6.1104,6.1104,6.1104,6.0296,5.8351,0.0,0.0,0.0,0.0,0.0,0.0,0.0,0.0,0.0,0.0,0.0,0.0,0.0,0.0,0.0,0.0,0.0,0.0,0.0,0.0,0.0,0.0,0.0,0.0,0.0,0.0,0.0,0.0,0.0,0.0,0.0,0.0,0.0,0.0,0.0,0.0,0.0,0.0,0.0,0.0,0.0,0.0,0.0,0.0,0.0,0.0,0.0,0.0,0.0,0.0,0.0,0.0,0.0,0.0,0.0,0.0,0.0,0.0,0.0,0.0,4.9673,0.0,0.0,0.0,0.0,0.0,0.0,0.0,0.0,0.0,0.0,0.0,0.0,0.0,0.0,0.0,0.0,0.0,0.0,0.0,0.0,0.0,0.0,0.0,0.0,0.0,0.0,0.0,0.0,0.0,0.0,0.0,0.0,0.0,0.0,0.0,0.0,0.0,0.0,0.0,0.0,0.0,5.6825,5.9249,6.0954,6.1104,6.1104,6.1104,6.1104,6.1104,6.0475,5.8979,5.862,0.0,0.0,0.0,0.0,0.0,0.0,0.0,0.0,0.0,0.0,0.0,0.0,0.0,0.0,0.0,0.0,0.0,0.0,0.0,0.0,0.0,0.0,0.0,0.0,0.0,0.0,0.0,0.0,0.0,0.0,0.0,0.0,0.0,0.0,0.0,0.0,0.0,0.0,0.0,0.0,0.0,0.0,0.0,0.0,0.0,0.0,0.0,0.0,0.0,0.0,0.0,0.0,0.0,0.0,0.0,0.0,0.0,0.0,0.0,0.0,5.069,0.0,0.0,0.0,0.0,0.0,0.0,0.0,0.0,0.0,0.0,0.0,0.0,0.0,0.0,0.0,0.0,0.0,0.0,0.0,0.0,0.0,0.0,0.0,0.0,0.0,0.0,0.0,0.0,0.0,0.0,0.0,0.0,0.0,0.0,0.0,0.0,0.0,0.0,0.0,0.0,5.8381,6.0326,6.1702,6.2032,6.2061,6.2061,6.2061,6.2061,6.1642,6.0595,5.9937,0.0,0.0,0.0,0.0,0.0,0.0,0.0,0.0,0.0,0.0,0.0,0.0,0.0,0.0,0.0,0.0,0.0,0.0,0.0,0.0,0.0,0.0,0.0,0.0,0.0,0.0,0.0,0.0,0.0,0.0,0.0,0.0,0.0,0.0,0.0,0.0,0.0,0.0,0.0,0.0,0.0,0.0,0.0,0.0,0.0,0.0,0.0,0.0,0.0,0.0,0.0,0.0,0.0,5.4042,5.4102,5.4221,5.4221,5.4221,5.4192,5.3952,5.4371,5.5029,5.2815,0.0,0.0,0.0,0.0,0.0,0.0,0.0,0.0,0.0,0.0,0.0,0.0,0.0,0.0,0.0,0.0,0.0,0.0,0.0,0.0,0.0,0.0,0.0,0.0,5.6944,5.7214,0.0,0.0,0.0,0.0,0.0,0.0,0.0,0.0,0.0,0.0,0.0,0.0,6.0176,6.1613,6.269,6.3348,6.3408,6.3408,6.3408,6.3408,6.3199,6.263,6.1553,6.0655,0.0,0.0,0.0,0.0,0.0,0.0,0.0,0.0,0.0,0.0,0.0,0.0,0.0,0.0,0.0,0.0,0.0,0.0,0.0,0.0,0.0,0.0,0.0,0.0,0.0,0.0,0.0,0.0,0.0,0.0,0.0,0.0,4.7908,4.9883,0.0,0.0,0.0,0.0,0.0,0.0,0.0,0.0,0.0,0.0,0.0,0.0,0.0,5.3473,5.491,5.494,5.5777,5.7483,5.7483,5.7782,5.8321,5.8321,5.8321,5.8261,5.7094,0.0,5.5149,5.482,0.0,0.0,0.0,0.0,0.0,0.0,0.0,0.0,0.0,0.0,0.0,0.0,0.0,0.0,0.0,0.0,0.0,0.0,0.0,0.0,0.0,0.0,5.9338,5.9428,6.0027,6.0475,0.0,5.7812,5.5748,5.5658,5.6077,0.0,0.0,0.0,0.0,0.0,0.0,0.0,6.1642,6.2959,6.4006,6.4695,6.4784,6.4784,6.4784,6.4784,6.4725,6.4635,6.4485,6.4066,6.3378,6.1732,0.0,0.0,0.0,0.0,0.0,0.0,0.0,0.0,0.0,0.0,0.0,0.0,0.0,0.0,0.0,0.0,0.0,0.0,0.0,0.0,0.0,0.0,0.0,0.0,0.0,0.0,0.0,0.0,0.0,4.8357,4.9938,5.1708,5.1229,5.081,0.0,0.0,0.0,0.0,0.0,0.0,0.0,0.0,0.0,5.482,5.488,5.5688,5.7363,5.7393,5.8022,5.9219,5.9219,5.9578,6.0236,6.0236,6.0236,6.0206,5.9608,5.9039,5.8411,5.6885,5.6256,5.6137,0.0,0.0,0.0,0.0,5.3443,5.3593,5.4521,5.5718,0.0,5.6585,0.0,0.0,0.0,0.0,0.0,0.0,0.0,0.0,0.0,0.0,5.9727,6.0475,6.0894,6.1104,6.1104,6.0266,5.9159,0.0,5.8022,5.7932,5.7004,0.0,0.0,0.0,0.0,6.1553,6.254,6.3139,6.3588,6.3887,6.3917,6.3917,6.3917,6.3917,6.3917,6.3917,6.4246,6.4306,6.4006,6.3558,6.266,0.0,0.0,0.0,0.0,0.0,0.0,0.0,0.0,0.0,0.0,0.0,0.0,0.0,0.0,0.0,0.0,0.0,0.0,0.0,0.0,0.0,0.0,0.0,0.0,0.0,0.0,0.0,0.0,5.0057,5.1786,5.3294,5.3025,5.2785,0.0,0.0,0.0,0.0,0.0,0.0,5.4162,5.4341,5.5299,5.7124,5.7334,5.8141,5.9608,5.9608,5.9877,6.0356,6.0356,6.0625,6.1104,6.1104,6.1104,6.1104,6.1104,6.1104,6.0954,5.8949,5.8112,5.8082,5.7752,5.7034,5.6196,5.6196,5.6196,5.6316,5.7154,5.8082,5.8979,5.9458,0.0,5.9548,5.9219,0.0,0.0,0.0,0.0,5.7842,5.883,5.9488,6.0116,6.1134,6.1493,6.1613,6.1613,6.2002,6.1852,0.0,5.9997,5.9847,5.9039,0.0,0.0,0.0,0.0,6.257,6.3228,6.3318,6.3378,6.3558,6.3588,6.3588,6.3588,6.3588,6.3588,6.3588,6.4006,6.4186,6.4006,6.4665,6.4246,6.263,0.0,0.0,0.0,0.0,0.0,0.0,0.0,0.0,0.0,0.0,0.0,0.0,0.0,0.0,0.0,0.0,0.0,0.0,0.0,0.0,0.0,0.0,0.0,0.0,0.0,0.0,0.0,0.0,0.0,5.4012,5.5718,0.0,0.0,0.0,0.0,5.4102,5.4132,5.497,5.6795,5.7513,5.8501,5.9847,6.0535,6.0924,6.1014,6.1014,6.1044,6.1074,6.1074,6.1074,6.1104,6.1104,6.1104,6.1104,6.1104,6.1104,6.1104,6.0954,6.0924,6.0775,5.9518,5.8949,5.889,5.889,5.889,5.9099,6.0416,6.0924,6.0954,6.1014,6.1014,6.0775,5.9488,5.9069,0.0,0.0,5.8022,5.9009,5.9099,6.0505,6.1972,6.2032,6.254,6.2989,6.2989,6.3019,6.281,0.0,6.245,6.248,6.1194,0.0,6.248,6.1283,6.2211,6.3258,6.3887,6.3947,6.4216,6.4874,6.4934,6.4934,6.4934,6.4934,6.4934,6.4934,6.4964,6.4695,6.4036,6.4665,6.4665,6.3917,6.3288,0.0,0.0,0.0,0.0,0.0,0.0,0.0,0.0,0.0,0.0,0.0,0.0,0.0,0.0,0.0,0.0,0.0,0.0,0.0,0.0,0.0,0.0,0.0,0.0,0.0,0.0,0.0,0.0,5.467,5.5448,0.0,5.5837,5.5807,5.6077,5.6675,5.7513,5.8471,5.9608,5.9907,6.0266,6.0745,6.0984,6.1104,6.1104,6.1523,6.1972,6.2391,6.2391,6.26,6.2959,6.257,6.2391,6.2391,6.2391,6.2391,6.2391,6.2391,6.1882,6.1074,6.0595,6.0386,6.0386,6.0386,6.0386,6.0535,6.1433,6.1732,6.1822,6.2241,6.2391,6.2301,6.1822,6.1642,6.1553,6.1074,6.1283,6.1642,6.1642,6.2181,6.272,6.272,6.2899,6.3079,6.3079,6.3079,6.3019,6.278,6.2929,6.2929,6.245,6.3109,6.3378,6.251,6.3109,6.3617,6.3438,6.3408,6.3498,6.3737,6.3767,6.3767,6.3767,6.3767,6.3767,6.3767,6.4156,6.4246,6.4006,6.4665,6.4904,6.4665,6.4006,6.272,0.0,0.0,0.0,0.0,0.0,0.0,0.0,0.0,0.0,0.0,0.0,0.0,0.0,0.0,0.0,0.0,0.0,0.0,0.0,0.0,0.0,0.0,0.0,0.0,0.0,0.0,5.4521,5.5418,5.6107,5.6765,5.7423,5.7483,5.7962,5.9039,5.9937,6.0745,6.1403,6.1642,6.1762,6.1762,6.1972,6.1972,6.1792,6.2211,6.266,6.3079,6.3079,6.3288,6.3677,6.3258,6.3079,6.3079,6.3079,6.3079,6.3079,6.3079,6.257,6.1762,6.1762,6.1762,6.1762,6.1762,6.1762,6.1852,6.2271,6.2421,6.251,6.2929,6.3079,6.3079,6.3079,6.3079,6.3079,6.3079,6.3079,6.3079,6.3079,6.3079,6.3079,6.3079,6.3079,6.3079,6.3079,6.3079,6.3079,6.3079,6.3079,6.2929,6.248,6.275,6.272,6.1882,6.2091,6.2211,6.1792,6.2121,6.2421,6.2421,6.281,6.3079,6.3079,6.266,6.26,6.3049,6.3049,6.3228,6.3677,6.3917,6.4036,6.4036,6.3378,6.2271,6.0745,0.0,0.0,0.0,0.0,0.0,0.0,0.0,0.0,0.0,0.0,0.0,0.0,0.0,0.0,0.0,0.0,0.0,0.0,0.0,0.0,0.0,0.0,0.0,5.3204,5.497,5.6226,5.6286,5.7962,5.9398,6.0057,6.0146,6.0446,6.1134,6.1164,6.1463,6.2121,6.275,6.3079,6.3079,6.3647,6.3677,6.3079,6.3109,6.3109,6.3109,6.3109,6.3109,6.3109,6.3079,6.3079,6.3079,6.3079,6.3079,6.3079,6.3079,6.3079,6.3079,6.3079,6.3079,6.3079,6.3079,6.3079,6.3079,6.3079,6.3079,6.3079,6.3079,6.3079,6.3079,6.3079,6.3079,6.3079,6.3079,6.3079,6.3079,6.3079,6.3079,6.3079,6.3079,6.3079,6.3079,6.3079,6.3079,6.3079,6.3079,6.3079,6.266,6.1403,6.1164,6.0745,5.9428,5.9219,0.0,5.9219,6.0356,6.1164,6.1104,6.2301,6.3049,6.3019,6.1882,6.1732,6.2989,6.1882,6.1762,6.3019,6.248,6.2121,6.2121,6.1463,6.1433,6.2061,0.0,0.0,0.0,0.0,0.0,0.0,0.0,0.0,0.0,0.0,0.0,0.0,0.0,0.0,0.0,0.0,0.0,0.0,0.0,0.0,0.0,0.0,5.6226,5.5448,5.6196,5.7363,5.883,5.9488,6.0086,6.0775,6.1253,6.1822,6.248,6.254,6.281,6.3438,6.3228,6.3079,6.3079,6.3228,6.3258,6.3079,6.3528,6.3737,6.3737,6.3737,6.3737,6.3737,6.3288,6.3079,6.3079,6.3079,6.3079,6.3079,6.3079,6.3079,6.3079,6.3079,6.3079,6.3079,6.3079,6.3079,6.3079,6.3079,6.3079,6.3079,6.3079,6.3079,6.3079,6.3079,6.3079,6.3079,6.3079,6.3079,6.3079,6.3079,6.3079,6.3079,6.3079,6.3079,6.3079,6.3079,6.3079,6.3079,6.3079,6.3079,6.2959,6.26,6.254,6.2421,6.2032,6.1972,0.0,6.1972,6.2301,6.2181,6.1224,6.2301,6.269,6.1732,6.2181,6.269,6.3049,6.272,6.269,6.3049,6.2899,6.281,6.281,6.1702,6.1194,0.0,0.0,0.0,0.0,0.0,0.0,0.0,0.0,0.0,0.0,0.0,0.0,0.0,0.0,0.0,0.0,0.0,0.0,0.0,0.0,0.0,0.0,5.7004,5.856,5.865,5.871,5.9308,6.0745,6.0924,6.1283,6.2241,6.2421,6.278,6.3408,6.3228,6.3348,6.3977,6.3647,6.3468,6.3468,6.3468,6.3348,6.3079,6.3438,6.3617,6.3617,6.3617,6.3617,6.3588,6.3228,6.3079,0.0,6.3079,6.3079,6.3079,6.3079,6.3079,0.0,0.0,0.0,0.0,0.0,6.3079,6.3079,6.3079,6.3079,6.3079,6.3079,6.3079,6.3079,6.3079,6.3079,6.3079,6.3079,6.3079,6.3079,6.3079,6.3079,6.3079,6.3079,6.3079,6.3079,6.3079,6.3079,6.3079,6.3079,6.3079,0.0,6.3079,6.263,6.2061,6.1493,6.1403,6.1403,6.1403,6.1912,6.1972,6.1194,6.2301,6.278,6.2002,6.2121,0.0,0.0,0.0,6.2241,6.2241,6.2241,0.0,0.0,0.0,6.0535,6.1104,6.0595,0.0,0.0,6.0715,6.0146,0.0,0.0,0.0,0.0,0.0,0.0,0.0,0.0,0.0,0.0,0.0,0.0,0.0,0.0,0.0,0.0,5.8261,6.0176,6.1942,6.1702,6.1553,6.2121,6.2211,6.266,6.3797,6.3468,6.3408,6.3947,6.3498,6.3438,6.3977,0.0,0.0,0.0,0.0,6.3617,6.3079,6.3079,6.3079,6.3079,6.3079,6.3079,6.3079,6.3079,6.3079,6.3079,6.3139,6.3169,6.3199,6.3258,6.3288,6.3288,6.3139,6.3079,6.3079,6.3079,6.3079,6.3079,6.3079,0.0,0.0,6.3079,6.3079,6.3079,6.3079,6.3079,6.3079,6.3079,6.3079,6.3079,6.3079,6.3079,6.3079,6.3079,6.3079,6.3079,6.3079,6.3079,6.3079,6.3079,6.3079,6.3109,6.3169,6.2151,6.0924,5.9727,5.9548,5.9578,5.9638,6.0715,6.1403,6.1343,0.0,0.0,6.3079,6.2151,6.2061,6.3228,6.2211,6.1523,6.1433,6.1433,6.0835,5.9578,5.9548,6.0146,6.1343,6.1912,6.278,6.3827,6.1074,6.0416,0.0,0.0,0.0,0.0,0.0,0.0,0.0,0.0,0.0,0.0,0.0,0.0,0.0,0.0,0.0,5.9279,6.1014,6.245,6.2839,6.278,6.275,6.2869,6.2899,6.2989,6.3228,6.3588,6.3857,6.3977,6.3887,6.3887,6.3977,6.3528,6.3258,6.3258,6.3258,6.3199,6.3079,6.3079,6.3079,6.3079,0.0,0.0,6.3079,6.3079,6.3079,6.3109,6.3588,6.3827,6.3857,6.4425,6.4635,6.4545,6.3498,6.3079,6.3079,6.3079,6.3079,6.3079,6.3079,6.3079,6.3079,6.3079,6.3079,6.3079,6.3079,6.3079,0.0,6.3079,6.3079,6.3079,6.3079,6.3079,6.3079,6.3079,6.3079,6.3079,6.3079,6.3079,6.3079,6.3079,6.3079,6.3228,6.3737,6.3199,6.26,6.2361,6.2301,6.248,6.2989,6.3288,6.3258,6.275,6.3857,6.4216,6.3169,6.3797,6.4395,6.4635,6.4425,6.4006,6.3468,6.3438,6.3079,6.2331,6.2301,6.2421,6.269,6.281,6.3019,6.3258,6.3677,6.4036,0.0,0.0,0.0,0.0,0.0,0.0,0.0,0.0,0.0,0.0,0.0,5.7334,0.0,0.0,6.0595,6.0595,6.2002,6.3199,6.3498,6.3528,6.3528,6.3528,6.3528,6.3677,6.4006,6.4006,6.4006,6.4006,6.3707,6.3528,6.3528,6.3258,6.3079,6.3079,6.3079,6.3079,6.3079,6.3378,6.3528,6.3528,6.3887,6.4066,6.4066,6.4066,6.4066,6.4066,6.4366,6.4515,6.4545,6.4874,6.5024,6.4964,6.4306,6.4066,6.4066,6.4066,6.4066,6.4006,6.3647,6.3528,6.3498,6.3169,6.3079,6.3079,6.3079,6.3079,6.3079,6.3079,6.3079,6.3139,6.3468,6.3528,6.3617,6.3977,6.4066,6.4066,6.4066,6.4066,6.4066,6.4066,6.4066,6.4156,6.4455,6.4246,6.4066,6.4066,6.4066,6.4156,6.4485,6.4515,6.4395,6.4096,6.4635,6.4755,6.4096,6.4635,6.5024,6.5024,6.5024,6.4874,6.4515,6.4515,6.4366,6.4066,6.4066,6.3887,6.3528,6.3528,6.3378,6.3079,6.3737,6.4066,0.0,0.0,0.0,0.0,0.0,0.0,0.0,0.0,5.7962,5.889,5.8979,5.9099,5.9757,6.0864,6.1672,6.1672,6.257,6.3438,6.3917,6.3887,6.3827,6.3827,6.3917,6.4186,6.4605,6.4156,6.3827,6.3827,6.3348,6.3079,6.3079,6.3079,6.3139,6.3258,6.3258,6.3318,6.3468,6.3947,6.4186,6.4216,6.4755,6.5024,6.5024,6.5024,6.5024,6.5054,6.5173,6.5293,6.5413,6.5413,6.5413,6.5413,6.5413,6.5413,6.5383,6.5114,6.5024,6.4934,6.4395,6.4186,6.4126,6.3617,6.3468,6.3468,6.3468,6.3468,6.3468,6.3468,6.3468,6.3558,6.4066,6.4186,6.4336,6.4904,6.5024,6.5024,6.5024,6.5024,6.5024,6.5024,6.5024,6.5054,6.5203,6.5233,6.5173,6.5054,6.5024,6.5084,6.5203,6.5233,6.5263,6.5383,6.5413,6.5413,6.5413,6.5413,6.5413,6.5413,6.5413,6.5353,6.5233,6.5233,6.5173,6.5024,6.5024,6.4755,6.4186,6.4186,6.3947,6.3468,6.3468,6.3318,5.5179,5.5089,5.5209,5.5269,5.6496,5.8052,0.0,0.0,6.0266,6.2151,6.2061,6.1852,6.251,6.3199,6.3677,6.3677,6.3797,6.3917,6.3977,6.3528,6.3169,6.3169,6.3647,6.3827,6.3348,6.3228,6.3169,6.3169,6.3109,6.3079,6.3079,6.3079,6.3318,6.3887,6.3887,6.4186,6.4814,6.4874,6.4904,6.4904,6.4994,6.5024,6.5024,6.5024,6.5024,6.5054,6.5652,6.6221,6.6759,6.6759,6.6759,6.6759,6.6759,6.6759,6.664,6.5473,6.5024,6.5024,6.4934,6.4904,6.4904,6.4844,6.4814,6.4814,6.4814,6.4814,6.4814,6.4814,6.4814,6.4814,6.4904,6.4904,6.4934,6.4994,6.5024,6.5024,6.5024,6.5024,6.5024,6.5024,6.5024,6.5203,6.5802,6.5892,6.5712,6.5114,6.5024,6.5233,6.5832,6.5892,6.6131,6.67,6.6759,6.6759,6.6759,6.6759,6.6759,6.6759,6.6759,6.652,6.5922,6.5892,6.5622,6.5054,6.5024,6.4994,6.4904,6.4904,6.4874,6.4814,6.4814,6.4186,5.7782,5.7483,0.0,0.0,5.9817,6.0206,6.1523,6.1822,6.2151,6.3378,6.3408,6.3408,6.4096,6.4096,6.4006,0.0,6.3707,6.3468,6.3468,6.3228,6.3079,6.3079,6.3318,6.3378,6.3109,6.3079,6.3079,6.3079,6.3079,6.3228,6.3588,6.3617,6.3917,6.4575,6.4605,6.4725,6.5024,6.5413,6.5802,6.6161,6.655,6.6939,6.7328,6.7328,6.7328,6.7358,6.7627,6.7897,6.8166,6.8166,6.8166,6.8166,6.8166,6.8166,6.7986,6.667,6.6161,6.6131,6.5742,6.5592,6.5533,6.5144,6.5024,6.5024,6.5024,6.5024,6.5024,6.5024,6.5024,6.5114,6.5503,6.5592,6.5682,6.6071,6.6161,6.6161,6.6161,6.6161,6.6161,6.6161,6.649,6.6819,6.7119,6.7478,6.7657,6.7388,6.667,6.6281,6.655,6.6909,6.7418,6.8076,6.8166,6.8166,6.8166,6.8166,6.8166,6.8166,6.8166,6.7867,6.7178,6.7148,6.7185,6.7177,6.6493,6.6312,6.6569,6.5921,6.5413,6.5024,6.5024,6.4725,5.9308,0.0,0.0,6.1852,6.2211,6.2151,6.3109,6.3318,6.3468,6.3917,6.3857,6.3887,6.4395,6.4066,6.3737,6.3737,6.3378,6.3079,6.3079,6.3079,6.3079,6.3079,6.3079,6.3139,6.3318,6.3169,6.3139,6.3318,6.3318,6.3617,6.4246,6.4276,6.4605,6.5263,6.5473,6.5652,6.5832,6.649,6.7059,6.7537,6.8016,6.8525,6.9004,6.9004,6.9004,6.9004,6.9004,6.9004,6.9004,6.9004,6.9004,6.9004,6.9004,6.9004,6.8884,6.7897,6.7537,6.7478,6.6999,6.6849,6.6759,6.6281,6.6131,6.6131,6.6131,6.6131,6.6131,6.6131,6.6131,6.6342,6.7155,6.7063,6.7061,6.7879,6.7784,6.7661,6.7999,6.8121,6.8121,6.8121,6.8514,6.8723,6.838,6.8675,6.9004,6.9004,6.8166,6.7537,6.7537,6.7956,6.8435,6.8944,6.9004,6.9004,6.9004,6.9004,6.9004,6.9004,6.9004,6.8764,6.8286,6.8256,6.8482,6.8786,6.8334,6.8092,6.8172,6.7607,6.6914,6.6131,6.6131,6.6131,5.877,0.0,5.9428,6.0835,6.257,6.3917,6.3947,6.3977,6.3977,6.4006,6.3528,6.3109,6.3139,6.3109,6.3109,6.3109,6.3079,6.3079,6.3079,6.3079,6.3079,6.3079,6.3079,6.3318,0.0,6.3438,6.3318,6.3917,6.3977,6.4276,6.4964,6.4994,6.5293,6.5951,6.661,6.7238,6.7867,6.8555,6.8914,6.8944,6.8944,6.8974,6.9004,6.9004,6.9004,6.9004,6.9004,6.9004,6.9004,6.9004,6.9004,6.9004,6.9004,6.9004,6.9004,6.8944,6.8944,6.8944,6.8914,6.8914,6.8914,6.8884,6.8884,6.8884,6.8884,6.8884,6.8884,6.8884,6.8884,6.9106,7.0404,6.9822,6.9261,7.0434,6.9882,6.9291,7.0556,7.0798,7.0798,7.0798,7.0798,7.0373,6.9196,6.9004,6.9004,6.9004,6.8974,6.8944,6.8944,6.8944,6.8974,6.9004,6.9004,6.9004,6.9004,6.9004,6.9004,6.9004,6.9004,6.9004,6.8974,6.8974,6.8974,6.8944,7.0221,7.0221,6.904,7.019,7.0068,6.8884,6.8884,6.8884,6.0595,0.0,6.1403,6.269,6.3528,6.409,6.441,6.3894,6.3579,6.4319,6.3049,6.1762,6.1762,6.1044,6.0745,6.1642,6.1762,6.2091,6.2959,6.3079,6.3228,6.3647,6.3677,0.0,0.0,0.0,0.0,6.4635,6.4695,6.4964,6.5652,6.6101,6.664,6.7298,6.7986,6.8435,6.8645,6.8884,6.9213,6.9662,7.0081,7.026,7.026,7.026,7.026,7.026,7.026,7.026,7.026,7.026,7.026,7.026,7.026,7.026,7.026,7.026,7.026,7.0141,6.9303,6.9004,6.9004,6.9004,6.9571,7.0036,6.9226,6.9571,7.0282,7.0282,6.9695,6.9446,7.1634,7.0617,6.9351,7.0617,6.9943,6.913,6.9571,6.9571,6.9571,6.9571,7.0058,7.0456,7.0768,7.1258,7.1563,7.1563,7.0145,6.9153,6.9602,6.9662,6.9812,7.0231,7.026,7.026,7.026,7.026,7.0615,7.1438,7.1563,7.1721,7.208,7.208,7.2339,7.2717,7.2338,7.2338,7.2685,7.1547,7.0617,7.0282,6.9351,6.9004,6.1246,6.204,6.2565,6.3464,6.3677,6.3875,6.4493,6.4209,6.3863,6.4414,6.3023,6.1588,6.0995,5.9885,5.9638,6.1194,6.1463,6.2002,6.3558,6.3767,6.3917,6.4306,6.4366,6.4635,0.0,0.0,0.0,6.5353,6.5383,6.5772,6.667,6.7119,6.7657,6.8315,6.9004,6.9363,6.9363,6.9572,6.9901,7.032,7.0709,7.1038,7.1248,7.1248,7.1398,7.1607,7.1607,7.1607,7.1607,7.1607,7.1607,7.1607,7.1607,7.1607,7.1607,7.2098,7.2327,7.2017,7.0239,6.9692,6.9692,6.9692,7.0265,7.0735,6.9916,7.0265,7.086,7.086,7.0265,7.0139,7.2231,7.1323,7.0139,7.178,7.1323,7.0611,7.1567,7.1658,7.1658,7.1658,7.2028,7.2428,7.2763,7.3226,7.3599,7.3848,7.246,7.1161,7.0419,7.0675,7.0923,7.0859,7.0889,7.0889,7.0889,7.0889,7.1277,7.2109,7.258,7.2953,7.3365,7.3333,7.3737,7.459,7.3874,7.3644,7.3989,7.2826,7.178,7.086,7.0043,6.9692,6.0916,6.2129,6.3025,6.3177,6.3279,6.3592,6.4623,6.4782,6.4568,6.4389,6.3423,6.2148,0.0,0.0,5.9668,6.1702,6.2175,6.2894,6.4755,6.5024,6.5024,0.0,0.0,0.0,0.0,0.0,0.0,6.6222,0.0,6.667,6.7956,6.8046,6.8375,6.9034,6.9692,7.0021,7.0021,7.0649,7.0979,7.1009,7.1009,7.1338,7.1936,7.2068,7.2427,7.3027,7.3027,7.316,7.316,7.316,7.316,7.316,7.316,7.316,7.3293,7.4476,7.4957,7.4676,7.2047,7.1238,7.1178,7.1148,7.1148,7.1148,7.1148,7.1148,7.1148,7.1148,7.1148,7.1375,7.2674,7.2109,7.1728,7.4231,7.3901,7.3568,7.6085,7.6573,7.6605,7.6605,7.6718,7.6378,7.5188,7.4921,7.5174,7.5839,7.5934,7.4867,7.1556,7.2326,7.2547,7.1367,7.1238,7.1238,7.1238,7.1238,7.1238,7.1238,7.2452,7.3139,7.3139,7.3139,7.3752,7.4921,7.507,7.4445,7.3139,7.4357,7.363,7.1238,7.1238,7.1238,6.4714,6.529,6.5458,6.5513,6.5607,6.5897,6.695,6.571,6.4547,6.5311,6.2399,5.9747,0.0,0.0,0.0,6.0954,6.2486,0.0,6.4843,6.5789,0.0,6.5802,0.0,6.6011,6.667,6.8091,0.0,0.0,6.8031,6.7837,6.8704,6.9213,6.9542,6.9722,7.035,7.0679,7.0679,7.1308,7.1906,7.2415,7.2415,7.2505,7.2654,7.3746,7.4195,7.4476,7.5463,7.5839,7.5839,7.5839,7.5839,7.5839,7.5839,7.5839,7.5963,7.6211,7.6458,7.6272,7.5557,7.4965,7.4435,7.3936,7.4351,7.4944,7.3991,7.4351,7.5178,7.5178,7.447,7.4231,7.6508,7.5443,7.4111,7.5791,7.5592,7.5257,7.5855,7.6387,7.6768,7.6768,7.7596,7.8175,7.7829,7.7712,7.7777,7.7938,7.8087,7.7435,7.5587,7.5678,7.5678,7.5432,7.5309,7.5309,7.5309,7.5309,7.5801,7.6737,7.7093,7.7712,7.8665,7.8665,7.8811,7.9149,7.9149,7.9037,7.8665,7.806,7.7446,7.6737,7.577,7.5309,6.6153,6.6742,6.7054,6.6533,6.6428,6.6583,6.6996,6.6024,6.4895,6.4756,6.2109,5.9892,6.0198,5.9389,0.0,0.0,0.0,0.0,6.7266,6.7542,6.7781,0.0,6.7539,0.0,6.896,7.0038,7.0738,0.0,6.9854,6.9516,7.0183,7.0133,7.0111,7.038,7.1009,7.1487,7.1787,7.2146,7.2535,7.2924,7.3526,7.391,7.4314,7.5675,7.6306,7.6744,0.0,7.7741,7.7741,7.7741,7.7741,7.7741,7.7741,7.7741,7.7864,7.8474,7.8595,7.8683,7.8957,7.8836,7.8151,7.6236,7.6132,7.6603,7.5863,7.6101,7.672,7.672,7.6251,7.5982,7.7446,7.672,7.5982,7.7299,7.7358,7.7297,7.7796,7.8235,7.8642,7.8642,7.9104,7.9593,7.9593,7.9593,7.9691,8.0018,8.0084,7.9953,7.9548,7.8528,7.7549,7.6946,7.6946,7.6946,7.6946,7.6946,7.7189,7.7906,7.8494,7.9104,7.9819,7.9819,8.0076,8.0697,8.0188,7.9819,7.9819,7.9104,7.8494,7.7906,7.7189,7.6946,6.6838,6.7567,6.8104,6.7054,6.6846,6.6671,6.6193,6.5934,6.5375,6.376,6.221,6.128,6.1563,6.1346,6.2229,6.562,0.0,6.852,7.0315,6.9808,6.9579,7.0487,6.9756,6.9837,7.1497,7.2059,7.2286,7.2297,7.1956,7.1715,7.1906,7.1161,7.0863,7.1238,7.1899,7.2619,7.34,7.3666,7.3696,7.3786,7.5004,7.5892,7.6356,7.7746,7.8558,7.916,7.9376,7.9376,7.9376,7.9376,7.9376,7.9376,7.9376,7.9376,7.9531,8.0777,8.1166,8.1186,8.1784,8.1956,8.1421,7.8399,7.7429,7.7429,7.7429,7.7429,7.7429,7.7429,7.7429,7.7429,7.7429,7.7429,7.7668,7.8726,7.9169,7.9496,8.0575,8.0896,8.0995,8.0995,8.0995,8.0995,8.0995,8.0995,8.1194,8.1856,8.1956,8.2188,8.2817,8.0787,7.8901,7.7804,7.7716,7.7716,7.7716,7.7716,7.7716,7.7716,7.8784,7.9365,7.9365,7.9365,7.9855,8.0995,7.9888,7.9365,7.9365,7.9365,7.8784,7.7716,7.7716,7.7716,6.9187,6.9349,6.9478,6.9252,6.9156,6.8891,6.7631,6.6377,0.0,0.0,6.2362,6.1483,6.3804,6.3064,6.3381,6.7445,0.0,0.0,0.0,0.0,7.1484,0.0,0.0,0.0,0.0,0.0,0.0,0.0,0.0,7.4775,7.2737,7.3472,7.3661,7.3252,7.3956,7.5034,7.6261,7.7427,7.8218,7.8782,7.9005,7.8912,7.8471,7.9739,8.0408,8.0657,8.1752,0.0,8.228,8.228,8.228,8.228,8.228,8.228,8.228,8.251,8.2543,8.251,8.2638,8.2718,8.2373,8.0649,8.0076,8.0076,8.0076,8.0076,8.0076,8.0076,8.0076,8.0076,8.0076,8.0076,8.0076,8.0332,8.0794,8.1368,8.1591,8.2088,8.2519,8.2519,8.2519,8.2519,8.2519,8.2519,8.2552,8.2684,8.2718,8.2751,8.2883,8.2425,8.2147,8.1886,8.1886,8.1886,8.1886,8.1886,8.1886,8.1886,8.2033,8.2147,8.2147,8.2147,8.226,8.2519,8.226,8.2147,8.2147,8.2147,8.2033,8.1886,8.1886,8.1886,6.8871,6.9202,6.9798,6.9798,6.9798,6.9202,6.6982,0.0,0.0,6.3603,6.2507,6.2437,6.4414,6.4513,0.0,6.7836,0.0,0.0,0.0,0.0,0.0,0.0,0.0,0.0,0.0,0.0,0.0,0.0,0.0,7.7317,7.5514,7.5592,7.6045,7.6495,7.6495,7.7151,7.8526,7.8817,7.9069,7.9385,8.0165,8.0219,8.0021,8.1284,8.1901,8.2017,8.2656,0.0,8.2883,8.2883,8.2883,8.2883,8.2883,8.2883,8.2883,8.2883,8.2883,8.2883,8.2883,8.2883,8.2784,8.2055,8.1823,8.1823,8.1823,8.1823,8.1823,8.1823,8.1823,8.1823,8.1823,8.1823,8.1823,8.1823,8.2121,8.2353,8.2353,8.2651,8.2883,8.2883,8.2883,8.2883,8.2883,8.2883,8.2883,8.2883,8.2883,8.2883,8.2883,8.2883,8.2883,8.2883,8.2883,8.2883,8.2883,8.2883,8.2883,8.2883,8.2883,8.2883,8.2883,8.2883,8.2883,8.2883,8.2883,8.2883,8.2883,8.2883,8.2883,8.2883,8.2883,8.2883,6.8307,6.8937,6.9798,6.9798,6.9798,6.9069,6.6287,6.6088,0.0,6.3173,6.2891,6.3589,6.5023,0.0,6.6387,0.0,6.9878,7.1289,0.0,0.0,0.0,0.0,0.0,0.0,0.0,0.0,0.0,0.0,0.0,0.0,7.8633,7.812,7.8263,7.9376,7.8994,7.9312,8.0426,8.0133,8.0001,8.0001,8.1003,8.1446,8.1401,8.2395,8.2883,8.2883,8.2883,0.0,0.0,8.2883,8.2883,8.2883,8.2883,8.2883,8.2883,8.2883,8.2883,8.2883,8.2883,8.2883,8.2883,8.2883,8.2883,8.2883,8.2883,8.2883,8.2883,8.2883,8.2883,8.2883,8.2883,8.2883,8.2883,8.2883,8.2883,8.2883,8.2883,8.2883,8.2883,8.2883,8.2883,8.2883,8.2883,8.2883,8.2883,8.2883,8.2883,8.2883,8.2883,8.2883,8.2883,8.2883,8.2883,8.2883,8.2883,8.2883,8.2883,8.2883,8.2883,8.2883,8.2883,8.2883,8.2883,8.2883,8.2883,8.2883,8.2883,8.2883,8.2883,8.2883,8.2883,8.2883,6.9268,6.9699,6.9798,6.9798,6.9798,6.9202,6.6949,0.0,6.6055,6.4432,6.4145,6.4906,6.6931,6.6271,6.6337,0.0,0.0,6.897,0.0,0.0,0.0,0.0,0.0,0.0,0.0,0.0,0.0,0.0,0.0,0.0,8.148,8.0815,8.0647,8.0657,8.1326,8.1682,8.1811,8.2917,8.3532,8.3532,8.3648,8.3317,8.277,8.2883,8.2883,8.2883,8.2883,8.2883,0.0,8.2883,8.2883,8.2883,8.2883,8.2883,8.2883,8.2883,8.2883,8.2883,8.2883,8.2883,8.2883,8.2883,8.2883,8.2883,8.2883,8.2883,8.2883,8.2883,8.2883,8.2883,8.2883,8.2883,8.2883,8.2883,8.2883,8.2883,8.2883,8.2883,8.2883,8.2883,8.2883,8.2883,8.2883,8.2883,8.2883,8.2883,8.2883,8.2883,8.2883,8.2883,8.2883,8.2883,8.2883,8.2883,8.2883,8.2883,8.2883,8.2883,8.2883,8.2883,8.2883,8.2883,8.2883,8.2883,8.2883,8.2883,8.2883,8.2883,8.2883,8.2883,8.2883,8.2883,6.7247,6.844,6.9798,6.9798,6.9798,6.9202,6.7016,0.0,6.6651,6.473,6.4697,6.526,6.6121,6.5823,6.579,6.6982,6.7777,6.897,7.1057,0.0,0.0,0.0,0.0,0.0,0.0,0.0,0.0,0.0,0.0,0.0,8.3745,8.3153,8.2822,8.2822,8.2658,8.279,8.3217,8.3317,8.3347,8.3347,8.3347,8.3181,8.2883,8.2883,8.2883,8.2883,8.2883,8.2883,0.0,8.2883,8.2883,8.2883,8.2883,8.2883,8.2883,8.2883,8.2883,8.2883,8.2883,8.2883,8.2883,8.2883,8.2883,8.2883,8.2883,8.2883,8.2883,8.2883,8.2883,8.2883,8.2883,8.2883,8.2883,8.2883,8.2883,8.2883,8.2883,8.2883,8.2883,8.2883,8.2883,8.2883,8.2883,8.2883,8.2883,8.2883,8.2883,8.2883,8.2883,8.2883,8.2883,8.2883,8.2883,8.2883,8.2883,8.2883,8.2883,8.2883,8.2883,8.2883,8.2883,8.2883,8.2883,8.2883,8.2883,8.2883,8.2883,8.2883,8.2883,8.2883,8.2883,8.2883,6.6121,6.7579,6.9268,6.9699,6.9467,6.8738,6.7214,0.0,6.6519,6.4995,6.5061,6.5425,6.5425,6.5425,6.5425,6.5425,6.6883,6.8572,7.003,7.2316,0.0,0.0,0.0,0.0,0.0,0.0,0.0,0.0,0.0,0.0,8.4738,8.4275,8.401,8.401,8.3513,8.338,8.3678,8.3148,8.2883,8.2883,8.2883,8.2883,8.2883,8.2883,8.2883,8.2883,8.2883,8.2883,0.0,8.2883,8.2883,8.2883,8.2883,8.2883,8.2883,8.2883,8.2883,8.2883,8.2883,8.2883,8.2883,8.2883,8.2883,8.2883,8.2883,8.2883,8.2883,8.2883,8.2883,8.2883,8.2883,8.2883,8.2883,8.2883,8.2883,8.2883,8.2883,8.2883,8.2883,8.2883,8.2883,8.2883,8.2883,8.2883,8.2883,8.2883,8.2883,8.2883,8.2883,8.2883,8.2883,8.2883,8.2883,8.2883,8.2883,8.2883,8.2883,8.2883,8.2883,8.2883,8.2883,8.2883,8.2883,8.2883,8.2883,8.2883,8.2883,8.2883,8.2883,8.2883,8.2883,8.2883,6.6817,6.7612,6.7976,6.9434,6.8705,6.7645,0.0,0.0,6.5425,6.5392,6.5425,6.5425,6.5425,6.5425,6.5425,6.5425,6.6055,6.7049,6.8506,7.1256,0.0,0.0,0.0,0.0,0.0,0.0,0.0,0.0,0.0,0.0,8.401,8.401,8.401,8.401,8.401,8.3645,8.2916,8.2883,8.2883,8.2883,8.2883,8.2883,8.2883,8.2883,8.2883,8.2883,8.2883,8.2883,0.0,8.2883,8.2883,8.2883,8.2883,8.2883,8.2883,8.2883,8.2883,8.2883,8.2883,8.2883,8.2883,8.2883,8.2883,8.2883,8.2883,8.2883,8.2883,8.2883,8.2883,8.2883,8.2883,8.2883,8.2883,8.2883,8.2883,8.2883,8.2883,8.2883,8.2883,8.2883,8.2883,8.2883,8.2883,8.2883,8.2883,8.2883,8.2883,8.2883,8.2883,8.2883,8.2883,8.2883,8.2883,8.2883,8.2883,8.2883,8.2883,8.2883,8.2883,8.2883,8.2883,8.2883,8.2883,8.2883,8.2883,8.2883,8.2883,8.2883,8.2883,8.2883,8.2883,8.2883,6.4399,6.5359,6.622,6.6684,6.685,6.6751,6.622,0.0,6.6022,6.5525,6.5425,6.5425,6.5425,6.5425,6.5425,6.5425,6.6452,6.7777,6.9235,0.0,0.0,0.0,0.0,0.0,0.0,0.0,0.0,0.0,0.0,0.0,8.4043,8.3513,8.3248,8.3248,8.3248,8.3148,8.2883,8.2883,8.2883,8.2883,8.2883,8.2883,8.2883,8.2883,8.2883,8.2883,8.2883,8.3181,8.3645,8.3645,8.3943,8.4407,8.4407,8.4407,8.4407,8.4407,8.4407,8.4407,8.4407,8.4076,8.3645,8.3645,8.3314,8.2883,8.2883,8.2883,8.2883,8.2883,8.2883,8.2883,8.2883,8.2883,8.2883,8.2883,8.2883,8.2883,8.2883,8.2883,8.2883,8.2883,8.2883,8.2883,8.2883,8.2883,8.2883,8.2883,8.2883,8.2883,8.2883,8.2883,8.2883,8.2883,8.2883,8.2883,8.2883,8.2883,8.2883,8.2883,8.2883,8.2883,8.2883,8.2883,8.2883,8.2883,8.2883,8.2883,8.2883,8.2883,8.2883,8.2883,8.2883,8.2883,6.314,6.3935,6.473,6.5293,6.5558,0.0,0.0,0.0,0.0,6.5459,6.5425,6.5425,6.5425,6.5425,6.5425,6.5425,6.6651,6.7943,6.8837,0.0,0.0,0.0,0.0,0.0,0.0,0.0,0.0,0.0,0.0,0.0,8.3612,8.3148,8.2883,8.2883,8.2883,8.2883,8.2883,8.2883,8.2883,8.2883,8.2883,8.3049,8.3314,8.3314,8.348,8.3745,8.3745,8.401,0.0,8.4407,8.4705,8.5103,8.5103,8.5103,8.5103,8.5103,8.5103,8.5103,8.5103,8.4805,8.4407,8.4407,8.4109,8.3745,8.3745,8.3347,8.2883,8.2883,8.2883,8.2883,8.2883,8.2883,8.2883,8.2883,8.2883,8.2883,8.2883,8.2883,8.2983,8.3248,8.3314,8.3413,8.3678,8.3745,8.3745,8.3745,8.3745,8.3645,8.3347,8.3314,8.3215,8.2916,8.2883,8.2883,8.2883,8.2883,8.2883,8.2883,8.2883,8.2883,8.2883,8.2883,8.2883,8.2883,8.2883,8.2883,8.2883,8.2883,8.2883,8.2883,8.2883,8.2883,0.0,6.3107,6.3438,6.4829,6.473,6.4498,6.5194,0.0,0.0,0.0,6.5425,6.5425,6.5425,6.5425,6.5425,6.5492,6.6684,6.7645,6.7678,0.0,0.0,0.0,0.0,0.0,0.0,0.0,0.0,0.0,0.0,0.0,8.295,8.2883,8.2883,8.2883,8.295,8.295,8.2883,8.295,8.2983,8.2983,8.3016,8.3413,8.4076,8.4076,8.4473,0.0,8.5103,0.0,0.0,8.5202,8.5202,8.5268,8.5268,8.5268,8.5268,8.5268,8.5268,8.5268,8.5268,8.5235,8.5169,8.5136,8.5103,8.5103,8.5103,8.4142,8.3049,8.3049,8.3049,8.3049,8.3049,8.3049,8.3049,8.3049,8.3049,8.3049,8.3049,8.3049,8.3248,8.3943,8.4076,8.4308,8.5003,8.5103,8.5103,8.5103,8.5103,8.4871,8.4175,8.4076,8.3811,8.3148,8.3049,8.3049,8.2983,8.2916,8.2883,8.2883,8.2883,8.2883,8.2883,8.2883,8.2883,8.2883,8.2883,8.2883,8.2883,8.2883,8.2883,8.2883,8.2883,8.2883,6.1516,0.0,6.1815,6.2709,6.3239,6.3736,0.0,0.0,0.0,0.0,0.0,6.5425,6.5425,6.5425,6.5591,6.6154,6.7016,6.7811,6.8374,0.0,0.0,0.0,0.0,0.0,0.0,0.0,0.0,0.0,0.0,8.3678,8.295,8.2883,8.2883,8.2883,8.3446,8.348,8.2916,8.348,8.3745,8.3745,8.4308,8.4672,8.4838,8.4838,8.4937,0.0,0.0,0.0,8.5931,8.5931,8.6262,8.6759,8.6759,8.6759,8.6759,8.6759,8.6759,8.6759,8.6759,8.6395,8.5832,8.5268,8.5103,8.5103,8.5103,8.4871,8.4573,8.4573,8.4573,8.4573,8.4573,8.4573,8.4573,8.4573,8.4573,8.4573,8.4573,8.4573,8.4639,8.4805,8.4838,8.4904,8.507,8.5103,8.5103,8.5103,8.5103,8.5037,8.4871,8.4838,8.4771,8.4606,8.4573,8.4374,8.3811,8.3215,8.2883,8.2883,8.2883,8.2883,8.2883,8.2883,8.2883,8.2883,8.2883,8.2883,8.2883,8.2883,8.2883,8.2883,8.2883,8.2883,6.1119,6.1351,6.1682,6.208,6.2974,6.3902,6.4299,0.0,0.0,0.0,0.0,0.0,6.5425,0.0,0.0,6.6386,6.7711,6.9235,0.0,0.0,0.0,0.0,0.0,0.0,0.0,0.0,0.0,0.0,0.0,8.3314,8.2916,8.3215,8.3413,8.3413,8.4142,8.4142,8.3413,8.4142,8.4506,8.4506,8.4904,8.5268,8.56,8.56,8.5798,0.0,0.0,0.0,8.666,8.666,8.6925,8.7289,8.7289,8.7289,8.7289,8.7289,8.7289,8.7289,8.7289,8.7024,8.6627,8.6229,8.6097,8.6097,8.6097,8.6097,8.5964,8.5302,8.5103,8.5103,8.5103,8.5103,8.5103,8.5103,8.5103,8.5103,8.5103,8.5103,8.5202,8.5533,8.56,8.5699,8.603,8.6097,8.6097,8.6097,8.6097,8.5997,8.5633,8.56,8.5467,8.5136,8.5103,8.4937,8.454,8.4142,8.3612,8.295,8.2883,8.2883,8.2883,8.2883,8.2883,8.2883,8.2883,8.2883,8.2883,8.2883,8.2883,8.2883,8.2883,8.2883,6.1119,6.1715,6.2345,6.2345,6.3372,6.4399,6.4531,0.0,0.0,0.0,0.0,0.0,0.0,0.0,0.0,0.0,0.0,0.0,0.0,0.0,0.0,0.0,0.0,0.0,0.0,0.0,0.0,0.0,0.0,8.2883,8.2883,8.3612,8.401,8.401,8.4838,8.497,8.4341,8.497,8.5268,8.5268,8.5368,8.5765,8.6328,8.6328,8.6693,8.7289,0.0,0.0,8.7289,8.7289,8.7289,8.7289,8.7289,8.7289,8.7289,8.7289,8.7289,8.7289,8.7289,8.7289,8.7289,8.7289,8.7289,8.7289,8.7289,8.7289,8.7024,8.5798,8.5434,8.5434,8.5434,8.5434,8.5434,8.5434,8.5434,8.5434,8.5434,8.5434,8.5633,8.6229,8.6328,8.6527,8.7157,8.7289,8.7289,8.7289,8.7289,8.7057,8.6428,8.6328,8.6097,8.55,8.5434,8.5401,8.5268,8.5268,8.4705,8.3314,8.3148,8.3016,8.2883,8.2883,8.2883,8.2883,8.2883,8.2883,8.2883,8.2883,8.2883,8.2883,8.2883,8.2883,6.1119,6.208,6.3107,6.3107,6.3736,6.4531,6.5127,0.0,0.0,0.0,0.0,0.0,0.0,0.0,0.0,0.0,0.0,0.0,0.0,0.0,0.0,0.0,0.0,0.0,0.0,0.0,0.0,0.0,0.0,8.2883,8.2883,8.3612,8.401,8.401,8.5302,8.5964,8.5832,8.5931,8.5997,8.603,8.6627,8.6991,8.709,8.709,8.7157,8.7289,0.0,8.7289,8.7289,8.7289,8.7289,8.7289,8.7289,8.7289,8.7289,8.7289,8.7289,8.7289,8.7289,8.7289,8.7289,8.7289,8.7289,8.7289,8.7289,8.7289,8.7223,8.7024,8.6958,8.6958,8.6958,8.6958,8.6958,8.6958,8.6958,8.6958,8.6958,8.6958,8.6991,8.709,8.709,8.7157,8.7256,8.7289,8.7289,8.7289,8.7289,8.7223,8.7123,8.709,8.7057,8.6958,8.6958,8.6693,8.6063,8.5997,8.5666,8.4838,8.4175,8.3546,8.2916,8.2883,8.2883,8.2883,8.2883,8.2883,8.2883,8.2883,8.2883,8.2883,8.2883,8.2883,6.1583,6.2477,6.357,6.473,6.4995,6.5028,6.5326,0.0,0.0,0.0,0.0,0.0,0.0,0.0,0.0,0.0,0.0,0.0,0.0,0.0,0.0,0.0,0.0,0.0,0.0,0.0,0.0,0.0,0.0,0.0,8.348,8.4208,8.4771,8.5169,8.6196,8.6759,8.6759,8.6759,8.6759,8.6759,8.7123,8.7289,8.7289,8.7289,8.7289,8.7289,0.0,8.7289,8.7289,8.7289,8.7289,8.7289,8.7289,8.7289,8.7289,8.7289,8.7289,8.7289,8.7289,8.7289,8.7289,8.7289,8.7289,8.7289,8.7289,8.7289,8.7289,8.7289,8.7289,8.7289,8.7289,8.7289,8.7289,8.7289,8.7289,8.7289,8.7289,8.7289,8.7289,8.7289,8.7289,8.7289,8.7289,8.7289,8.7289,8.7289,8.7289,8.7289,8.7289,8.7289,8.7289,8.7289,8.7289,8.7123,8.6792,8.6759,8.613,8.4606,8.4208,8.3678,8.2916,8.2883,8.2883,8.2883,8.2883,8.2883,8.2883,8.2883,8.2883,8.2883,8.2883,8.2883,6.198,6.2709,6.3736,6.5558,0.0,6.6022,0.0,0.0,0.0,0.0,0.0,0.0,0.0,0.0,0.0,0.0,0.0,0.0,0.0,0.0,0.0,0.0,0.0,0.0,0.0,0.0,0.0,0.0,0.0,0.0,8.3976,8.4705,8.5434,8.6163,8.6892,8.7289,8.7289,8.7289,8.7289,8.7289,8.7289,8.7289,8.7289,8.7289,8.7289,8.7289,8.7289,8.7289,8.7289,8.7289,8.7289,8.7289,8.7289,8.7289,8.7289,8.7289,8.7289,8.7289,8.7289,8.7289,8.7289,8.7289,8.7289,8.7289,8.7289,8.7289,8.7289,8.7289,8.7289,8.7289,8.7289,8.7289,8.7289,8.7289,8.7289,8.7289,8.7289,8.7289,8.7289,8.7289,8.7289,8.7289,8.7289,8.7289,8.7289,8.7289,8.7289,8.7289,8.7289,8.7289,8.7289,8.7289,8.7289,8.7289,8.7289,8.7289,8.6494,8.4639,8.4175,8.3745,8.3181,8.2983,8.2883,8.2883,8.2883,8.2883,8.2883,8.2883,8.2883,8.2883,8.2883,8.2983,6.198,6.2709,6.3471,6.4332,0.0,0.0,6.9169,0.0,0.0,0.0,0.0,0.0,0.0,0.0,0.0,0.0,0.0,0.0,0.0,0.0,0.0,0.0,0.0,0.0,0.0,0.0,0.0,0.0,0.0,0.0,8.3976,8.4705,8.5434,8.6163,8.6892,8.7289,8.7289,8.7289,8.7289,8.7289,8.7289,8.7289,8.7289,8.7289,8.7289,8.7289,8.7289,8.7289,8.7289,8.7289,8.7289,8.7289,8.7289,8.7289,8.7289,8.7289,8.7289,8.7289,8.7289,8.7289,8.7289,8.7289,8.7289,8.7289,8.7289,8.7289,8.7289,8.7289,8.7289,8.7289,8.7289,8.7289,8.7289,8.7289,8.7289,8.7289,8.7289,8.7289,8.7289,8.7289,8.7289,8.7289,8.7289,8.7289,8.7289,8.7289,8.7289,8.7289,8.7289,8.7289,8.7289,8.7289,8.7289,8.7289,8.7289,8.7289,8.6925,8.6063,8.4738,8.3976,8.391,8.3248,8.2883,8.2883,8.2883,8.2883,8.2883,8.2883,8.2883,8.2883,8.2883,8.3281,6.2643,6.4034,6.569,6.7347,0.0,0.0,0.0,0.0,0.0,0.0,0.0,0.0,0.0,0.0,0.0,0.0,0.0,0.0,0.0,0.0,0.0,0.0,0.0,0.0,0.0,0.0,0.0,0.0,0.0,0.0,8.4639,8.497,8.5666,8.6825,8.7123,8.7289,8.7289,8.7289,8.7289,8.7289,8.7289,8.7289,8.7289,8.7289,8.7289,8.7289,8.7289,8.7289,8.7289,8.7289,8.7289,8.7289,8.7289,8.7289,8.7289,8.7289,8.7289,8.7289,8.7289,8.7289,8.7289,8.7289,8.7289,8.7289,8.7289,8.7289,8.7289,8.7289,8.7289,8.7289,8.7289,8.7289,8.7289,8.7289,8.7289,8.7289,8.7289,8.7289,8.7289,8.7289,8.7289,8.7289,8.7289,8.7289,8.7289,8.7289,8.7289,8.7289,8.7289,8.7289,8.7289,8.7289,8.7289,8.7289,8.7289,8.7289,8.7157,8.6892,8.5898,8.4937,8.4043,8.3745,8.338,8.2916,8.3347,8.3579,8.3579,8.4043,8.4275,8.4275,8.4275,8.444,6.3073,6.4862,6.6949,0.0,0.0,0.0,0.0,0.0,0.0,0.0,0.0,0.0,0.0,0.0,0.0,0.0,0.0,0.0,0.0,0.0,0.0,0.0,0.0,0.0,0.0,0.0,0.0,0.0,0.0,0.0,0.0,8.5103,8.5765,8.7223,8.7289,8.7289,8.7289,8.7289,8.7289,8.7289,8.7289,8.7289,8.7289,8.7289,8.7289,8.7289,8.7289,8.7289,8.7289,8.7289,8.7289,8.7289,8.7289,8.7289,8.7289,8.7289,8.7289,8.7289,8.7289,8.7289,8.7289,8.7289,8.7289,8.7289,8.7289,8.7289,8.7289,8.7289,8.7289,8.7289,8.7289,8.7289,8.7289,8.7289,8.7289,8.7289,8.7289,8.7289,8.7289,8.7289,8.7289,8.7289,8.7289,8.7289,8.7289,8.7289,8.7289,8.7289,8.7289,8.7289,8.7289,8.7289,8.7289,8.7289,8.7289,8.7289,8.7289,8.7289,8.6792,8.5964,8.4738,8.4473,8.4109,8.3612,8.4109,8.4341,8.4341,8.4871,8.5103,8.5103,8.5103,8.5235,6.3107,6.4895,0.0,0.0,0.0,0.0,0.0,0.0,0.0,0.0,0.0,0.0,0.0,0.0,0.0,0.0,0.0,0.0,0.0,0.0,0.0,0.0,0.0,0.0,0.0,0.0,0.0,0.0,0.0,0.0,0.0,8.5103,8.5765,8.7223,8.7289,8.7289,8.7289,8.7289,8.7289,8.7289,8.7289,8.7289,8.7289,8.7289,8.7289,8.7289,8.7289,8.7289,8.7289,8.7289,8.7289,8.7289,8.7289,8.7289,8.7289,8.7289,8.7289,8.7289,8.7289,8.7289,8.7289,8.7289,8.7289,8.7289,8.7289,8.7289,8.7289,8.7289,8.7289,8.7289,8.7289,8.7289,8.7289,8.7289,8.7289,8.7289,8.7289,8.7289,8.7289,8.7289,8.7289,8.7289,8.7289,8.7289,8.7289,8.7289,8.7289,8.7289,8.7289,8.7289,8.7289,8.7289,8.7289,8.7289,8.7289,8.7289,8.7289,8.7289,8.7289,8.6958,8.6196,8.55,8.5103,8.5103,8.5103,8.5136,8.5136,8.5136,8.5136,8.5136,8.5136,8.55,6.5359,0.0,0.0,0.0,0.0,0.0,0.0,0.0,0.0,0.0,0.0,0.0,0.0,0.0,0.0,0.0,0.0,0.0,0.0,0.0,0.0,0.0,0.0,0.0,0.0,0.0,0.0,0.0,0.0,0.0,0.0,8.5103,8.5765,8.7223,8.7289,8.7289,8.7289,8.7289,8.7289,8.7289,8.7289,8.7289,8.7289,8.7289,8.7289,8.7289,8.7289,8.7289,8.7289,8.7289,8.7289,8.7289,8.7289,8.7289,8.7289,8.7289,8.7289,8.7289,8.7289,8.7289,8.7289,8.7289,8.7289,8.7289,8.7289,8.7289,8.7289,8.7289,8.7289,8.7289,8.7289,8.7289,8.7289,8.7289,8.7289,8.7289,8.7289,8.7289,8.7289,8.7289,8.7289,8.7289,8.7289,8.7289,8.7289,8.7289,8.7289,8.7289,8.7289,8.7289,8.7289,8.7289,8.7289,8.7289,8.7289,8.7289,8.7289,8.7289,8.7289,8.6958,8.6196,8.5964,8.5633,8.5136,8.56,8.5865,8.5865,8.6362,8.6627,8.6627,8.6627,8.6759,6.6386,0.0,0.0,0.0,0.0,0.0,0.0,0.0,0.0,0.0,0.0,0.0,0.0,0.0,0.0,0.0,0.0,0.0,0.0,0.0,0.0,0.0,0.0,0.0,0.0,0.0,0.0,0.0,0.0,0.0,0.0,8.5103,8.5765,8.7223,8.7289,8.7289,8.7289,8.7289,8.7289,8.7289,8.7289,8.7289,8.7289,8.7289,8.7289,8.7289,8.7289,8.7289,8.7289,8.7289,8.7289,8.7289,8.7289,8.7289,8.7289,8.7289,8.7289,8.7289,8.7289,8.7289,8.7289,8.7289,8.7289,8.7289,8.7289,8.7289,8.7289,8.7289,8.7289,8.7289,8.7289,8.7289,8.7289,8.7289,8.7289,8.7289,8.7289,8.7289,8.7289,8.7289,8.7289,8.7289,8.7289,8.7289,8.7289,8.7289,8.7289,8.7289,8.7289,8.7289,8.7289,8.7289,8.7289,8.7289,8.7289,8.7289,8.7289,8.7289,8.7289,8.709,8.6627,8.6627,8.6395,8.5964,8.6395,8.6627,8.6627,8.7057,8.7289,8.7289,8.7289,8.7289,0.0,0.0,0.0,0.0,0.0,0.0,0.0,0.0,0.0,0.0,0.0,0.0,0.0,0.0,0.0,0.0,0.0,0.0,0.0,0.0,0.0,0.0,0.0,0.0,0.0,0.0,0.0,0.0,0.0,0.0,0.0,8.507,8.5732,8.7123,8.7223,8.7289,8.7289,8.7289,8.7289,8.7289,8.7289,8.7289,8.7289,8.7289,8.7289,8.7289,8.7289,8.7289,8.7289,8.7289,8.7289,8.7289,8.7289,8.7289,8.7289,8.7289,8.7289,8.7289,8.7289,8.7289,8.7289,8.7289,8.7289,8.7289,8.7289,8.7289,8.7289,8.7289,8.7289,8.7289,8.7289,8.7289,8.7289,8.7289,8.7289,8.7289,8.7289,8.7289,8.7289,8.7289,8.7289,8.7289,8.7289,8.7289,8.7289,8.7289,8.7289,8.7289,8.7289,8.7289,8.7289,8.7289,8.7289,8.7289,8.7289,8.7289,8.7289,8.7289,8.7289,8.7289,8.7289,8.7289,8.7289,8.7289,8.7289,8.7289,8.7289,8.7289,8.7289,8.7289,8.7289,8.7289,0.0,0.0,0.0,0.0,0.0,0.0,0.0,0.0,0.0,0.0,0.0,0.0,0.0,0.0,0.0,0.0,0.0,0.0,0.0,0.0,0.0,0.0,0.0,0.0,0.0,0.0,0.0,0.0,0.0,0.0,8.4208,8.4805,8.55,8.6395,8.6991,8.7289,8.7289,8.7289,8.7289,0.0,8.7289,8.7289,8.7289,8.7289,8.7289,8.7289,8.7289,8.7289,8.7289,8.7289,8.7289,8.7289,8.7289,8.7289,8.7289,8.7289,8.7289,8.7289,8.7289,8.7289,8.7289,8.7289,8.7289,8.7289,8.7289,8.7289,8.7289,8.7289,8.7289,8.7289,8.7289,8.7289,8.7289,8.7289,8.7289,8.7289,8.7289,8.7289,8.7289,8.7289,8.7289,8.7289,8.7289,8.7289,8.7289,8.7289,8.7289,8.7289,8.7289,8.7289,8.7289,8.7289,8.7289,8.7289,8.7289,8.7289,8.7289,8.7289,8.7289,8.7289,8.7289,8.7289,8.7289,8.7289,8.7289,8.7289,8.7289,8.7289,8.7289,8.7289,8.7289,8.7289,0.0,0.0,0.0,0.0,0.0,0.0,0.0,0.0,0.0,0.0,0.0,0.0,0.0,0.0,0.0,0.0,0.0,0.0,0.0,0.0,0.0,0.0,0.0,0.0,0.0,0.0,0.0,0.0,0.0,8.3215,8.3976,8.4705,8.5434,8.6163,8.6892,8.7289,8.7289,8.7289,8.7289,8.7289,8.7289,8.7289,8.7289,8.7289,8.7289,8.7289,8.7289,8.7289,8.7289,8.7289,8.7289,8.7289,8.7289,8.7289,8.7289,8.7289,8.7289,8.7289,8.7289,8.7289,8.7289,8.7289,8.7289,8.7289,8.7289,8.7289,8.7289,8.7289,8.7289,8.7289,8.7289,8.7289,8.7289,8.7289,8.7289,8.7289,8.7289,8.7289,8.7289,8.7289,8.7289,8.7289,8.7289,8.7289,8.7289,8.7289,8.7289,8.7289,8.7289,8.7289,8.7289,8.7289,8.7289,8.7289,8.7289,8.7289,8.7289,8.7289,8.7289,8.7289,8.7289,8.7289,8.7289,8.7289,8.7289,8.7289,8.7289,8.7289,8.7289,8.7289,8.7289,8.7289,0.0,0.0,0.0,0.0,0.0,0.0,0.0,0.0,0.0,0.0,0.0,0.0,0.0,0.0,0.0,0.0,0.0,0.0,0.0,0.0,0.0,0.0,0.0,0.0,0.0,0.0,0.0,0.0,0.0,8.3181,8.3778,8.4639,8.5368,8.5964,8.6825,8.7289,8.7289,8.7289,8.7289,8.7289,8.7289,8.7289,8.7289,8.7289,8.7289,8.7289,8.7289,8.7289,8.7289,8.7289,8.7289,8.7289,8.7289,8.7289,8.7289,8.7289,8.7289,8.7289,8.7289,8.7289,8.7289,8.7289,8.7289,8.7289,8.7289,8.7289,8.7289,8.7289,8.7289,8.7289,8.7289,8.7289,8.7289,8.7289,8.7289,8.7289,8.7289,8.7289,8.7289,8.7289,8.7289,8.7289,8.7289,8.7289,8.7289,8.7289,8.7289,8.7289,8.7289,8.7289,8.7289,8.7289,8.7289,8.7289,8.7289,8.7289,8.7289,8.7289,8.7289,8.7289,8.7289,8.7289,8.7289,8.7289,8.7289,8.7289,8.7289,8.7289,8.7289,8.7289,8.7289,8.7289,0.0,0.0,0.0,0.0,0.0,0.0,0.0,0.0,0.0,0.0,0.0,0.0,0.0,0.0,0.0,0.0,0.0,0.0,0.0,0.0,0.0,0.0,0.0,0.0,0.0,0.0,0.0,0.0,8.2883,8.295,8.3049,8.4341,8.5169,8.5235,8.656,8.7289,8.7289,8.7289,8.7289,8.7289,8.7289,8.7289,8.7289,8.7289,8.7289,8.7289,8.7289,8.7289,8.7289,8.7289,8.7289,8.7289,8.7289,8.7289,8.7289,8.7289,8.7289,8.7289,8.7289,8.7289,8.7289,8.7289,8.7289,8.7289,8.7289,8.7289,8.7289,8.7289,8.7289,8.7289,8.7289,8.7289,8.7289,8.7289,8.7289,8.7289,8.7289,8.7289,8.7289,8.7289,8.7289,8.7289,8.7289,8.7289,8.7289,8.7289,8.7289,8.7289,8.7289,8.7289,8.7289,8.7289,8.7289,8.7289,8.7289,8.7289,8.7289,8.7289,8.7289,8.7289,8.7289,8.7289,8.7289,8.7289,8.7289,8.7289,8.7289,8.7289,8.7289,8.7289,8.7289,8.7289,0.0,0.0,0.0,0.0,0.0,0.0,0.0,0.0,0.0,0.0,0.0,0.0,0.0,0.0,0.0,0.0,0.0,0.0,0.0,0.0,0.0,0.0,0.0,0.0,0.0,0.0,0.0,0.0,8.2883,8.2883,8.2883,8.391,8.4672,8.5103,8.613,8.6858,8.7289,8.7289,8.7289,8.7289,8.7289,8.7289,8.7289,8.7289,8.7289,8.7289,8.7289,8.7289,8.7289,8.7289,8.7289,8.7289,8.7289,8.7289,8.7289,8.7289,8.7289,8.7289,8.7289,8.7289,8.7289,8.7289,8.7289,8.7289,8.7289,8.7289,8.7289,8.7289,8.7289,8.7289,8.7289,8.7289,8.7289,8.7289,8.7289,8.7289,8.7289,8.7289,8.7289,8.7289,8.7289,8.7289,8.7289,8.7289,8.7289,8.7289,8.7289,8.7289,8.7289,8.7289,8.7289,8.7289,8.7289,8.7289,8.7289,8.7289,8.7289,8.7289,8.7289,8.7289,8.7289,8.7289,8.7289,8.7289,8.7289,8.7289,8.7289,8.7289,8.7289,8.7289,8.7289,8.7289,0.0,0.0,0.0,0.0,0.0,0.0,0.0,0.0,0.0,0.0,0.0,0.0,0.0,0.0,0.0,0.0,0.0,0.0,0.0,0.0,0.0,0.0,0.0,0.0,0.0,0.0,0.0,0.0,8.2883,8.2883,8.2883,8.3612,8.4241,8.4805,8.5699,8.6428,8.6991,8.719,8.7289,8.7289,8.7289,8.7289,8.7289,8.7289,8.7289,8.7289,8.7289,8.7289,8.7289,8.7289,8.7289,8.7289,8.7289,8.7289,8.7289,8.7289,8.7289,8.7289,8.7289,8.7289,8.7289,8.7289,8.7289,8.7289,8.7289,8.7289,8.7289,8.7289,8.7289,8.7289,8.7289,8.7289,8.7289,8.7289,8.7289,8.7289,8.7289,8.7289,8.7289,8.7289,8.7289,8.7289,8.7289,8.7289,8.7289,8.7289,8.7289,8.7289,8.7289,8.7289,8.7289,8.7289,8.7289,8.7289,8.7289,8.7289,8.7289,8.7289,8.7289,8.7289,8.7289,8.7289,8.7289,8.7289,8.7289,8.7289,8.7289,8.7289,8.7289,8.7289,8.7289,8.7137,0.0,0.0,0.0,0.0,0.0,0.0,0.0,0.0,0.0,0.0,0.0,0.0,0.0,0.0,0.0,0.0,0.0,0.0,0.0,0.0,0.0,0.0,0.0,0.0,0.0,0.0,0.0,0.0,8.2883,8.2883,8.2883,8.3612,8.401,8.4076,8.5434,8.6196,8.6229,8.6925,8.7289,8.7289,8.7289,8.7289,8.7289,8.7289,8.7289,8.7289,8.7289,8.7289,8.7289,8.7289,8.7289,8.7289,8.7289,8.7289,8.7289,8.7289,8.7289,8.7289,8.7289,8.7289,8.7289,8.7289,8.7289,8.7289,8.7289,8.7289,8.7289,8.7289,8.7289,8.7289,8.7289,8.7289,8.7289,8.7289,8.7289,8.7289,8.7289,8.7289,8.7289,8.7289,8.7289,8.7289,8.7289,8.7289,8.7289,8.7289,8.7289,8.7289,8.7289,8.7289,8.7289,8.7289,8.7289,8.7289,8.7289,8.7289,8.7289,8.7289,8.7289,8.7289,8.7289,8.7289,8.7289,8.7289,8.7289,8.7289,8.7289,8.7289,8.7289,8.7289,8.7289,8.659,6.6055,0.0,0.0,0.0,0.0,0.0,0.0,0.0,0.0,0.0,0.0,0.0,0.0,0.0,0.0,0.0,0.0,0.0,0.0,0.0,0.0,0.0,0.0,0.0,0.0,0.0,0.0,0.0,0.0,8.2883,8.2883,8.3148,8.3513,8.401,8.4506,8.5235,8.6163,8.6892,8.7289,8.7289,8.7289,8.7289,8.7289,8.7289,8.7289,8.7289,8.7289,8.7289,8.7289,8.7289,8.7289,8.7289,8.7289,8.7289,8.7289,8.7289,8.7289,8.7289,8.7289,8.7289,8.7289,8.7289,8.7289,8.7289,8.7289,8.7289,8.7289,8.7289,8.7289,8.7289,8.7289,8.7289,8.7289,8.7289,8.7289,8.7289,8.7289,8.7289,8.7289,8.7289,8.7289,8.7289,8.7289,8.7289,8.7289,8.7289,8.7289,8.7289,8.7289,8.7289,8.7289,8.7289,8.7289,8.7289,8.7289,8.7289,8.7289,8.7289,8.7289,8.7289,8.7289,8.7289,8.7289,8.7289,8.7289,8.7289,8.7289,8.7289,8.7289,8.7289,8.6315,8.5636,6.5425,0.0,0.0,0.0,0.0,0.0,0.0,0.0,0.0,0.0,0.0,0.0,0.0,0.0,0.0,0.0,0.0,0.0,0.0,0.0,0.0,0.0,0.0,0.0,0.0,0.0,0.0,0.0,0.0,0.0,8.2883,8.2883,8.3248,8.3976,8.4241,8.497,8.6163,8.6892,8.7289,8.7289,8.7289,8.7289,8.7289,8.7289,8.7289,8.7289,8.7289,8.7289,8.7289,8.7289,8.7289,8.7289,8.7289,8.7289,8.7289,8.7289,8.7289,8.7289,8.7289,8.7289,8.7289,8.7289,8.7289,8.7289,8.7289,8.7289,8.7289,8.7289,8.7289,8.7289,8.7289,8.7289,8.7289,8.7289,8.7289,8.7289,8.7289,8.7289,8.7289,8.7289,8.7289,8.7289,8.7289,8.7289,8.7289,8.7289,8.7289,8.7289,8.7289,8.7289,8.7289,8.7289,8.7289,8.7289,8.7289,8.7289,8.7289,8.7289,8.7289,8.7289,8.7289,8.7289,8.7289,8.7289,8.7289,8.7289,8.7289,8.7289,8.7289,8.7256,8.5792,8.4569,0.0,0.0,0.0,0.0,0.0,0.0,0.0,0.0,0.0,0.0,0.0,0.0,0.0,0.0,0.0,0.0,0.0,0.0,0.0,0.0,0.0,0.0,0.0,0.0,0.0,0.0,0.0,0.0,8.2883,8.2883,8.2883,8.2883,8.3215,8.3943,8.4672,8.5401,8.613,8.6892,8.7256,8.7289,8.7289,8.7289,8.7289,8.7289,8.7289,8.7289,8.7289,8.7289,8.7289,8.7289,8.7289,8.7289,8.7289,8.7289,8.7289,8.7289,8.7289,8.7289,8.7289,8.7289,8.7289,8.7289,8.7289,8.7289,8.7289,8.7289,8.7289,8.7289,8.7289,8.7289,8.7289,8.7289,8.7289,8.7289,8.7289,8.7289,8.7289,8.7289,8.7289,8.7289,8.7289,8.7289,8.7289,8.7289,8.7289,8.7289,8.7289,8.7289,8.7289,8.7289,8.7289,8.7289,8.7289,8.7289,8.7289,8.7289,8.7289,8.7289,8.7289,8.7289,8.7289,8.7289,8.7289,8.7289,8.7289,8.7289,8.7289,8.7289,8.7289,8.7256,8.5759,8.351,6.5425,0.0,0.0,0.0,0.0,0.0,7.2084,7.2912,0.0,0.0,0.0,0.0,0.0,0.0,0.0,0.0,0.0,0.0,0.0,0.0,0.0,0.0,0.0,0.0,0.0,0.0,0.0,0.0,8.2883,8.2883,8.2883,8.2883,8.2983,8.3215,8.391,8.4672,8.5401,8.613,8.6759,8.7289,8.7289,8.7289,8.7289,8.7289,8.7289,8.7289,8.7289,8.7289,8.7289,8.7289,8.7289,8.7289,8.7289,8.7289,8.7289,8.7289,8.7289,8.7289,8.7289,8.7289,8.7289,8.7289,8.7289,8.7289,8.7289,8.7289,8.7289,8.7289,8.7289,8.7289,8.7289,8.7289,8.7289,8.7289,8.7289,8.7289,8.7289,8.7289,8.7289,8.7289,8.7289,8.7289,8.7289,8.7289,8.7289,8.7289,8.7289,8.7289,8.7289,8.7289,8.7289,8.7289,8.7289,8.7289,8.7289,8.7289,8.7289,8.7289,8.7289,8.7289,8.7289,8.7289,8.7289,8.7289,8.7289,8.7289,8.7289,8.7289,8.7289,8.7256,8.4728,8.2088,6.6353,6.6883,6.7512,6.7943,0.0,0.0,7.0792,7.1554,7.2647,0.0,0.0,0.0,0.0,0.0,0.0,0.0,0.0,0.0,0.0,0.0,0.0,0.0,0.0,0.0,0.0,8.2883,8.2883,8.2883,8.2883,8.2883,8.2883,8.2883,8.2883,8.2883,8.3612,8.4208,8.4639,8.5666,8.6395,8.6825,8.7123,8.7289,8.7289,8.7289,8.7289,8.7289,8.7289,8.7289,8.7289,8.7289,8.7289,8.7289,8.7289,8.7289,8.7289,8.7289,8.7289,8.7289,8.7289,8.7289,8.7289,8.7289,8.7289,8.7289,8.7289,8.7289,8.7289,8.7289,8.7289,8.7289,8.7289,8.7289,8.7289,8.7289,8.7289,8.7289,8.7289,8.7289,8.7289,8.7289,8.7289,8.7289,8.7289,8.7289,8.7289,8.7289,8.7289,8.7289,8.7289,8.7289,8.7289,8.7289,8.7289,8.7289,8.7289,8.7289,8.7289,8.7289,8.7289,8.7289,8.7289,8.7289,8.7289,8.7289,8.7289,8.7289,8.7289,8.7289,8.6744,8.5545,8.3801,8.1548,6.7612,6.8142,6.8672,6.8672,6.9235,0.0,6.9997,7.0924,7.2216,7.384,0.0,0.0,0.0,0.0,0.0,0.0,0.0,0.0,0.0,0.0,0.0,0.0,0.0,0.0,8.2883,8.2883,8.2883,8.2883,8.2883,8.2883,8.2883,8.2883,8.2883,8.2883,8.3546,8.391,8.401,8.5302,8.5997,8.6196,8.6825,8.719,8.7289,8.7289,8.7289,8.7289,8.7289,8.7289,8.7289,8.7289,8.7289,8.7289,8.7289,8.7289,8.7289,8.7289,8.7289,8.7289,8.7289,8.7289,8.7289,8.7289,8.7289,8.7289,8.7289,8.7289,8.7289,8.7289,8.7289,8.7289,8.7289,8.7289,8.7289,8.7289,8.7289,8.7289,8.7289,8.7289,8.7289,8.7289,8.7289,8.7289,8.7289,8.7289,8.7289,8.7289,8.7289,8.7289,8.7289,8.7289,8.7289,8.7289,8.7289,8.7289,8.7289,8.7289,8.7289,8.7289,8.7289,8.7289,8.7289,8.7289,8.7289,8.7289,8.7289,8.7289,8.7289,8.7289,8.5792,8.2987,8.2987,8.1548,0.0,0.0,0.0,0.0,0.0,0.0,7.1289,7.0858,7.0958,0.0,0.0,0.0,0.0,0.0,0.0,0.0,0.0,0.0,0.0,0.0,0.0,0.0,0.0,0.0,8.2883,8.2883,8.2883,8.2883,8.2883,8.2883,8.2883,8.2883,8.2883,8.2883,8.3049,8.3413,8.401,8.4275,8.5003,8.6163,8.6328,8.6693,8.7289,8.7289,8.7289,8.7289,8.7289,8.7289,8.7289,8.7289,8.7289,8.7289,8.7289,8.7289,8.7289,8.7289,8.7289,8.7289,8.7289,8.7289,8.7289,8.7289,8.7289,8.7289,8.7289,8.7289,8.7289,8.7289,8.7289,8.7289,8.7289,8.7289,8.7289,8.7289,8.7289,8.7289,8.7289,8.7289,8.7289,8.7289,8.7289,8.7289,8.7289,8.7289,8.7289,8.7289,8.7289,8.7289,8.7289,8.7289,8.7289,8.7289,8.7289,8.7289,8.7289,8.7289,8.7289,8.7289,8.7289,8.7289,8.7289,8.7289,8.7289,8.7289,8.7289,8.7289,8.7289,8.7289,8.5792,8.2987,8.2987,8.1548,0.0,0.0,0.0,6.9235,0.0,0.0,0.0,7.0328,7.0428,7.2647,0.0,0.0,7.2813,0.0,0.0,0.0,0.0,7.48,7.6655,7.8776,8.0432,8.1161,8.1889,8.2486,8.285,8.2883,8.2883,8.2883,8.2883,8.2883,8.2883,8.2883,8.2883,8.2883,8.2883,8.3082,8.3446,8.3811,8.4374,8.5103,8.5832,8.6362,8.6726,8.709,8.7289,8.7289,8.7289,8.7289,8.7289,8.7289,8.7289,8.7289,8.7289,8.7289,8.7289,8.7289,8.7289,8.7289,8.7289,8.7289,8.7289,8.7289,8.7289,8.7289,8.7289,8.7289,8.7289,8.7289,8.7289,8.7289,8.7289,8.7289,8.7289,8.7289,8.7289,8.7289,8.7289,8.7289,8.7289,8.7289,8.7289,8.7289,8.7289,8.7289,8.7289,8.7289,8.7289,8.7289,8.7289,8.7289,8.7289,8.7289,8.7289,8.7289,8.7289,8.7289,8.7289,8.7289,8.7289,8.7289,8.7289,8.7289,8.7289,8.7289,8.7289,8.7289,8.7289,8.659,8.5138,8.2987,8.2356,8.0756,0.0,0.0,0.0,0.0,0.0,6.9798,0.0,0.0,0.0,0.0,0.0,0.0,0.0,0.0,0.0,0.0,0.0,0.0,0.0,7.6457,0.0,7.9571,8.0432,8.1293,8.2188,8.2651,8.2883,8.2883,8.2883,8.2883,8.2883,8.2883,8.2883,8.2883,8.2883,8.2883,8.2883,8.348,8.3877,8.401,8.5202,8.5898,8.6196,8.6792,8.7157,8.7289,8.7289,8.7289,8.7289,8.7289,8.7289,8.7289,8.7289,8.7289,8.7289,8.7289,8.7289,8.7289,8.7289,8.7289,8.7289,8.7289,8.7289,8.7289,8.7289,8.7289,8.7289,8.7289,8.7289,8.7289,8.7289,8.7289,8.7289,8.7289,8.7289,8.7289,8.7289,8.7289,8.7289,8.7289,8.7289,8.7289,8.7289,8.7289,8.7289,8.7289,8.7289,8.7289,8.7289,8.7289,8.7289,8.7289,8.7289,8.7289,8.7289,8.7289,8.7289,8.7289,8.7289,8.7289,8.7289,8.7289,8.7289,8.7289,8.7289,8.7289,8.7289,8.5512,8.4059,8.2987,8.1548,8.0121,0.0,0.0,0.0,0.0,6.9798,0.0,0.0,0.0,0.0,7.003,0.0,0.0,0.0,0.0,0.0,0.0,0.0,0.0,7.1322,7.331,7.5065,7.5794,7.7086,7.8477,7.9869,8.1757,8.2883,8.2883,8.2883,8.2883,8.2883,8.2883,8.2883,8.2883,8.2883,8.2883,8.2883,8.2983,8.3347,8.401,8.4175,8.4937,8.6163,8.6262,8.666,8.7289,8.7289,8.7289,8.7289,8.7289,8.7289,8.7289,8.7289,8.7289,8.7289,8.7289,8.7289,8.7289,8.7289,8.7289,8.7289,8.7289,8.7289,8.7289,8.7289,8.7289,8.7289,8.7289,8.7289,8.7289,8.7289,8.7289,8.7289,8.7289,8.7289,8.7289,8.7289,8.7289,8.7289,8.7289,8.7289,8.7289,8.7289,8.7289,8.7289,8.7289,8.7289,8.7289,8.7289,8.7289,8.7289,8.7289,8.7289,8.7289,8.7289,8.7289,8.7289,8.7289,8.7289,8.7289,8.7289,8.7289,8.7289,8.7289,8.7289,8.7289,8.7289,8.4602,8.3119,8.2987,8.1548,8.0121,0.0,0.0,0.0,0.0,0.0,0.0,6.9997,0.0,6.9798,0.0,0.0,0.0,0.0,0.0,0.0,0.0,7.0096,7.0626,0.0,0.0,7.2548,0.0,0.0,0.0,7.9405,8.0067,8.0697,8.1558,8.1624,8.1624,8.1624,8.2419,8.2883,8.2883,8.2883,8.2883,8.2883,8.2883,8.3049,8.338,8.3811,8.4308,8.4937,8.5798,8.6328,8.666,8.709,8.7289,8.7289,8.7289,8.7289,8.7289,8.7289,8.7289,8.7289,8.7289,8.7289,8.7289,8.7289,8.7289,8.7289,8.7289,8.7289,8.7289,8.7289,8.7289,8.7289,8.7289,8.7289,8.7289,8.7289,8.7289,8.7289,8.7289,8.7289,8.7289,8.7289,8.7289,8.7289,8.7289,8.7289,8.7289,8.7289,8.7289,8.7289,8.7289,8.7289,8.7289,8.7289,8.7289,8.7289,8.7289,8.7289,8.7289,8.7289,8.7289,8.7289,8.7289,8.7289,8.7289,8.7289,8.7289,8.7289,8.7289,8.7289,8.6864,8.6038,8.393,8.2591,8.1683,8.037,7.9302,7.2316,0.0,0.0,0.0,0.0,0.0,0.0,0.0,0.0,0.0,0.0,0.0,0.0,0.0,6.9732,6.9533,0.0,6.9732,0.0,6.9666,0.0,0.0,0.0,0.0,0.0,7.8312,7.8742,8.0001,8.0101,8.0266,8.0664,8.1724,8.2486,8.2883,8.2883,8.2883,8.2883,8.2883,8.2883,8.2916,8.3446,8.3811,8.4043,8.5103,8.5798,8.6196,8.6759,8.709,8.7289,8.7289,8.7289,8.7289,8.7289,8.7289,8.7289,8.7289,8.7289,8.7289,8.7289,8.7289,8.7289,8.7289,8.7289,8.7289,8.7289,8.7289,8.7289,8.7289,8.7289,8.7289,8.7289,8.7289,8.7289,8.7289,8.7289,8.7289,8.7289,8.7289,8.7289,8.7289,8.7289,8.7289,8.7289,8.7289,8.7289,8.7289,8.7289,8.7289,8.7289,8.7289,8.7289,8.7289,8.7289,8.7289,8.7289,8.7289,8.7289,8.7289,8.7289,8.7289,8.7289,8.7289,8.7289,8.7289,8.7289,8.659,8.5106,8.3672,8.2356,8.0894,7.9445,7.8789,0.0,0.0,0.0,7.374,0.0,0.0,0.0,0.0,6.9798,0.0,0.0,0.0,0.0,6.9798,6.9566,6.8837,6.9334,0.0,0.0,6.9334,6.9831,6.9964,0.0,0.0,0.0,7.6655,7.7782,7.8544,7.8577,7.9206,8.0598,8.073,8.1426,8.285,8.2883,8.2883,8.2883,8.2883,8.2883,8.2883,8.2916,8.3314,8.401,8.4043,8.4838,8.6163,8.6196,8.6627,8.7289,8.7289,8.7289,8.7289,8.7289,8.7289,8.7289,8.7289,8.7289,8.7289,8.7289,8.7289,8.7289,8.7289,8.7289,8.7289,8.7289,8.7289,8.7289,8.7289,8.7289,8.7289,8.7289,8.7289,8.7289,8.7289,8.7289,8.7289,8.7289,8.7289,8.7289,8.7289,8.7289,8.7289,8.7289,8.7289,8.7289,8.7289,8.7289,8.7289,8.7289,8.7289,8.7289,8.7289,8.7289,8.7289,8.7289,8.7289,8.7289,8.7289,8.7289,8.7289,8.7289,8.7289,8.7289,8.7289,8.7289,8.659,8.5106,8.3672,8.2356,8.0894,7.9445,7.8789,0.0,0.0,7.4966,7.5463,0.0,0.0,0.0,0.0,0.0,0.0,0.0,0.0,0.0,6.9798,6.9699,6.9467,6.9633,6.9699,0.0,6.9633,6.9798,6.9798,7.0891,0.0,0.0,0.0,7.5065,7.6291,7.6788,7.7715,7.9173,8.0167,8.1359,8.285,8.2883,8.2883,8.2883,8.2883,8.2883,8.2883,8.2883,8.3016,8.3281,8.3778,8.4275,8.4805,8.5765,8.6328,8.6593,8.709,8.7289,8.7289,8.7289,8.7289,8.7289,8.7289,8.7289,8.7289,8.7289,8.7289,8.7289,8.7289,8.7289,8.7289,8.7289,8.7289,8.7289,8.7289,8.7289,8.7289,8.7289,8.7289,8.7289,8.7289,8.7289,8.7289,8.7289,8.7289,8.7289,8.7289,8.7289,8.7289,8.7289,8.7289,8.7289,8.7289,8.7289,8.7289,8.7289,8.7289,8.7289,8.7289,8.7289,8.7289,8.7289,8.7289,8.7289,8.7289,8.7289,8.7289,8.7289,8.7289,8.7289,8.7289,8.7289,8.6071,8.364,8.325,8.1819,7.9445,7.9046,7.8789,7.6854,7.6722,0.0,7.6954,7.5698,0.0,7.404,0.0,0.0,0.0,0.0,0.0,0.0,0.0,6.9798,6.9798,6.9798,6.9798,0.0,6.9798,6.9798,6.9798,7.0229,7.0991,0.0,7.2316,7.2945,7.4403,7.4933,7.6159,7.8411,7.9405,8.0829,8.285,8.2883,8.2883,8.2883,8.2883,8.2883,8.2883,8.2883,8.2883,8.2916,8.338,8.3745,8.4076,8.5268,8.5931,8.6229,8.6991,8.7289,8.7289,8.7289,8.7289,8.7289,8.7289,8.7289,8.7289,8.7289,8.7289,8.7289,8.7289,8.7289,8.7289,8.7289,8.7289,8.7422,8.8217,8.7885,8.7455,8.8217,8.7852,8.7289,8.7289,8.7289,8.7289,8.7289,8.7289,8.7289,8.7289,8.7289,8.7289,8.7289,8.7289,8.7289,8.7289,8.7289,8.7289,8.7289,8.7289,8.7289,8.7289,8.7289,8.7289,8.7289,8.7289,8.7289,8.7289,8.7289,8.7289,8.7289,8.7289,8.7521,8.8018,8.7554,8.6176,8.3746,8.324,8.1548,7.8789,7.8789,7.8789]},{"header":{"parameterUnit":"m.s-1","parameterCategory":1,"la1":30.6,"la2":29.2853,"lo1":-89.7004,"lo2":-87.6739,"dy":0.0162,"dx":0.0183,"nx":112,"ny":82,"refTime":"2023-11-16T06:00:00:Z","depth":0,"parameterNumber":3,"parameterNumberName":"V-component_of_WINDS"},"data":[0.0,0.0,0.0,0.0,0.0,0.0,0.0,0.0,0.0,0.0,0.0,0.0,0.0,0.0,0.0,0.0,0.0,0.0,0.0,0.0,0.0,0.0,0.0,0.0,0.0,0.0,0.0,0.0,0.0,0.0,0.0,0.0,0.0,0.0,0.0,0.0,0.0,0.0,0.0,0.0,0.0,0.0,0.0,0.0,0.0,0.0,0.0,0.0,0.0,0.0,0.0,0.0,0.0,0.0,0.0,0.0,0.0,0.0,0.0,0.0,0.0,0.0,0.0,0.0,0.0,0.0,0.0,0.0,0.0,0.0,0.0,0.0,0.0,0.0,0.0,0.0,0.0,0.0,0.0,0.0,0.0,0.0,0.0,0.0,0.0,0.0,0.0,0.0,0.0,0.0,-4.4493,-4.4844,-4.5867,-4.6446,-4.6446,-4.6446,-4.5464,-4.3224,0.0,0.0,0.0,0.0,0.0,0.0,0.0,0.0,0.0,0.0,0.0,0.0,0.0,0.0,0.0,0.0,0.0,0.0,0.0,0.0,0.0,0.0,0.0,0.0,0.0,0.0,0.0,0.0,0.0,0.0,0.0,0.0,0.0,0.0,0.0,0.0,0.0,0.0,0.0,0.0,0.0,0.0,0.0,0.0,0.0,0.0,0.0,0.0,0.0,0.0,0.0,0.0,0.0,0.0,0.0,0.0,0.0,0.0,0.0,0.0,0.0,0.0,0.0,0.0,0.0,0.0,0.0,0.0,0.0,0.0,0.0,0.0,0.0,0.0,0.0,0.0,0.0,0.0,0.0,0.0,0.0,0.0,0.0,0.0,0.0,0.0,0.0,0.0,0.0,0.0,0.0,0.0,0.0,0.0,0.0,0.0,0.0,0.0,0.0,0.0,0.0,0.0,0.0,0.0,-4.4421,-4.6231,-4.6585,-4.6686,-4.6686,-4.6686,-4.5842,-4.3584,0.0,0.0,0.0,0.0,0.0,0.0,0.0,0.0,0.0,0.0,0.0,0.0,0.0,0.0,0.0,0.0,0.0,0.0,0.0,0.0,0.0,0.0,0.0,0.0,0.0,0.0,0.0,0.0,0.0,0.0,0.0,0.0,0.0,0.0,0.0,0.0,0.0,0.0,0.0,0.0,0.0,0.0,0.0,0.0,0.0,0.0,0.0,0.0,0.0,0.0,0.0,0.0,0.0,0.0,0.0,0.0,0.0,0.0,0.0,0.0,0.0,0.0,0.0,0.0,0.0,0.0,0.0,0.0,0.0,0.0,0.0,0.0,0.0,0.0,0.0,0.0,0.0,0.0,0.0,0.0,0.0,0.0,0.0,0.0,0.0,0.0,0.0,0.0,0.0,0.0,0.0,0.0,0.0,0.0,0.0,0.0,0.0,0.0,0.0,0.0,0.0,0.0,0.0,-4.3828,-4.5531,-4.6869,-4.7395,-4.7592,-4.7021,-4.7116,-4.6146,-4.3361,-4.3098,0.0,0.0,0.0,0.0,0.0,0.0,0.0,0.0,0.0,0.0,0.0,0.0,0.0,0.0,0.0,0.0,0.0,0.0,0.0,0.0,0.0,0.0,0.0,0.0,0.0,0.0,0.0,0.0,0.0,0.0,0.0,0.0,0.0,0.0,0.0,0.0,0.0,0.0,0.0,0.0,0.0,0.0,0.0,0.0,0.0,0.0,0.0,0.0,0.0,0.0,0.0,0.0,0.0,0.0,0.0,0.0,0.0,0.0,0.0,0.0,0.0,0.0,0.0,0.0,0.0,0.0,0.0,0.0,0.0,0.0,0.0,0.0,0.0,0.0,0.0,0.0,0.0,0.0,0.0,0.0,0.0,0.0,0.0,0.0,0.0,0.0,0.0,0.0,0.0,0.0,0.0,0.0,0.0,0.0,0.0,0.0,0.0,0.0,0.0,0.0,0.0,0.0,-4.5321,-4.6853,-4.728,-4.7929,-4.8154,-4.7478,-4.7445,-4.6256,-4.3627,-4.3098,0.0,0.0,0.0,0.0,0.0,0.0,0.0,0.0,0.0,0.0,0.0,0.0,0.0,0.0,0.0,0.0,0.0,0.0,0.0,0.0,0.0,0.0,0.0,0.0,0.0,0.0,0.0,0.0,0.0,0.0,0.0,0.0,0.0,0.0,0.0,0.0,0.0,0.0,0.0,0.0,0.0,0.0,0.0,0.0,0.0,0.0,0.0,0.0,0.0,0.0,0.0,0.0,0.0,0.0,0.0,0.0,0.0,0.0,0.0,0.0,0.0,0.0,0.0,0.0,0.0,0.0,0.0,0.0,0.0,0.0,0.0,0.0,0.0,0.0,0.0,0.0,0.0,0.0,0.0,0.0,0.0,0.0,0.0,0.0,0.0,0.0,0.0,0.0,0.0,0.0,0.0,0.0,0.0,0.0,0.0,0.0,0.0,0.0,0.0,0.0,0.0,0.0,-4.6426,-4.7807,-4.7857,-4.8131,-4.8404,-4.8404,-4.744,-4.6324,-4.5055,-4.3285,0.0,0.0,0.0,0.0,0.0,0.0,0.0,0.0,0.0,0.0,0.0,0.0,0.0,0.0,0.0,0.0,0.0,0.0,0.0,0.0,0.0,0.0,0.0,0.0,0.0,0.0,0.0,0.0,0.0,0.0,0.0,0.0,0.0,0.0,0.0,0.0,0.0,0.0,0.0,0.0,0.0,0.0,0.0,0.0,0.0,0.0,0.0,0.0,0.0,0.0,0.0,0.0,0.0,0.0,0.0,0.0,0.0,0.0,0.0,0.0,0.0,0.0,0.0,0.0,0.0,0.0,0.0,0.0,0.0,0.0,0.0,0.0,0.0,0.0,0.0,0.0,0.0,0.0,0.0,0.0,0.0,0.0,0.0,0.0,0.0,0.0,0.0,0.0,0.0,0.0,0.0,0.0,0.0,0.0,0.0,0.0,0.0,0.0,0.0,0.0,0.0,0.0,-4.6552,-4.8033,0.0,-4.9014,-4.9217,-4.8737,-4.8457,-4.7293,-4.5001,0.0,0.0,0.0,0.0,0.0,0.0,0.0,0.0,0.0,0.0,0.0,0.0,0.0,0.0,0.0,0.0,0.0,0.0,0.0,0.0,0.0,0.0,0.0,0.0,0.0,0.0,0.0,0.0,0.0,0.0,0.0,0.0,0.0,0.0,0.0,0.0,0.0,0.0,0.0,0.0,0.0,0.0,0.0,0.0,0.0,0.0,0.0,0.0,0.0,0.0,0.0,0.0,0.0,0.0,0.0,0.0,0.0,0.0,0.0,0.0,0.0,0.0,0.0,0.0,0.0,0.0,0.0,0.0,0.0,0.0,0.0,0.0,0.0,0.0,0.0,0.0,0.0,0.0,0.0,0.0,0.0,0.0,0.0,0.0,0.0,0.0,0.0,0.0,0.0,0.0,0.0,0.0,0.0,0.0,0.0,0.0,0.0,0.0,0.0,0.0,0.0,0.0,-4.5095,-4.7079,-4.8586,0.0,-4.962,-4.9696,-4.919,-4.8964,-4.7778,-4.5414,0.0,0.0,0.0,0.0,0.0,0.0,0.0,0.0,0.0,0.0,0.0,0.0,0.0,0.0,0.0,0.0,0.0,0.0,0.0,0.0,0.0,0.0,0.0,0.0,0.0,0.0,0.0,0.0,0.0,0.0,0.0,0.0,0.0,0.0,0.0,0.0,0.0,0.0,0.0,0.0,0.0,0.0,0.0,0.0,0.0,0.0,0.0,0.0,0.0,0.0,0.0,0.0,0.0,0.0,0.0,0.0,0.0,0.0,0.0,0.0,0.0,0.0,0.0,0.0,0.0,0.0,0.0,0.0,0.0,0.0,0.0,0.0,0.0,0.0,0.0,0.0,0.0,0.0,0.0,0.0,0.0,0.0,0.0,0.0,0.0,0.0,0.0,0.0,0.0,0.0,0.0,0.0,0.0,0.0,0.0,0.0,0.0,0.0,0.0,0.0,0.0,0.0,-4.6225,-4.8234,-4.959,-4.959,-4.959,-4.9719,-5.0129,-4.8712,-4.7579,0.0,0.0,0.0,0.0,0.0,0.0,0.0,0.0,0.0,0.0,0.0,0.0,0.0,0.0,0.0,0.0,0.0,0.0,0.0,0.0,0.0,0.0,0.0,0.0,0.0,0.0,0.0,0.0,0.0,0.0,0.0,0.0,0.0,0.0,0.0,0.0,0.0,0.0,0.0,0.0,0.0,0.0,0.0,0.0,0.0,0.0,0.0,0.0,0.0,0.0,0.0,0.0,0.0,0.0,0.0,0.0,0.0,0.0,0.0,0.0,0.0,0.0,0.0,0.0,0.0,0.0,0.0,0.0,0.0,0.0,0.0,0.0,0.0,0.0,0.0,0.0,0.0,0.0,0.0,0.0,0.0,0.0,0.0,0.0,0.0,0.0,0.0,0.0,0.0,0.0,0.0,0.0,0.0,0.0,0.0,0.0,0.0,0.0,0.0,0.0,0.0,0.0,0.0,-4.6276,-4.8234,-4.959,-4.959,-4.959,-4.959,-4.9719,-4.9289,-4.8284,-4.6547,0.0,0.0,0.0,0.0,0.0,0.0,0.0,0.0,0.0,0.0,0.0,0.0,0.0,0.0,0.0,0.0,0.0,0.0,0.0,0.0,0.0,0.0,0.0,0.0,0.0,0.0,0.0,0.0,0.0,0.0,0.0,0.0,0.0,0.0,0.0,0.0,0.0,0.0,0.0,0.0,0.0,0.0,0.0,0.0,0.0,0.0,0.0,0.0,0.0,0.0,0.0,0.0,0.0,0.0,0.0,0.0,0.0,0.0,0.0,0.0,0.0,0.0,0.0,0.0,0.0,0.0,0.0,0.0,0.0,0.0,0.0,0.0,0.0,0.0,0.0,0.0,0.0,0.0,0.0,0.0,0.0,0.0,0.0,0.0,0.0,0.0,0.0,0.0,0.0,0.0,0.0,0.0,0.0,0.0,0.0,0.0,0.0,0.0,0.0,0.0,0.0,0.0,-4.6602,-4.856,-5.0017,-5.0243,-5.0268,-5.0268,-5.0268,-5.0268,-4.9414,-4.7431,0.0,0.0,0.0,0.0,0.0,0.0,0.0,0.0,0.0,0.0,0.0,0.0,0.0,0.0,0.0,0.0,0.0,0.0,0.0,0.0,0.0,0.0,0.0,0.0,0.0,0.0,0.0,0.0,0.0,0.0,0.0,0.0,0.0,0.0,0.0,0.0,0.0,0.0,0.0,0.0,0.0,0.0,0.0,0.0,0.0,0.0,0.0,0.0,0.0,0.0,0.0,0.0,0.0,0.0,0.0,0.0,0.0,0.0,0.0,0.0,0.0,0.0,0.0,0.0,0.0,0.0,0.0,0.0,0.0,0.0,0.0,0.0,0.0,0.0,0.0,0.0,0.0,0.0,0.0,0.0,0.0,0.0,0.0,0.0,0.0,0.0,0.0,0.0,0.0,0.0,0.0,0.0,0.0,0.0,0.0,0.0,0.0,0.0,0.0,0.0,0.0,0.0,-4.7129,-4.9138,-5.0695,-5.1222,-5.1272,-5.1272,-5.1272,-5.1272,-5.0594,-4.8962,0.0,0.0,0.0,0.0,0.0,0.0,0.0,0.0,0.0,0.0,0.0,0.0,0.0,0.0,0.0,0.0,0.0,0.0,0.0,0.0,0.0,0.0,0.0,0.0,0.0,0.0,0.0,0.0,0.0,0.0,0.0,0.0,0.0,0.0,0.0,0.0,0.0,0.0,0.0,0.0,0.0,0.0,0.0,0.0,0.0,0.0,0.0,0.0,0.0,0.0,0.0,0.0,0.0,0.0,0.0,0.0,0.0,0.0,0.0,0.0,-4.1681,0.0,0.0,0.0,0.0,0.0,0.0,0.0,0.0,0.0,0.0,0.0,0.0,0.0,0.0,0.0,0.0,0.0,0.0,0.0,0.0,0.0,0.0,0.0,0.0,0.0,0.0,0.0,0.0,0.0,0.0,0.0,0.0,0.0,0.0,0.0,0.0,0.0,0.0,0.0,0.0,0.0,-4.7682,-4.9715,-5.1147,-5.1272,-5.1272,-5.1272,-5.1272,-5.1272,-5.0745,-4.949,-4.9188,0.0,0.0,0.0,0.0,0.0,0.0,0.0,0.0,0.0,0.0,0.0,0.0,0.0,0.0,0.0,0.0,0.0,0.0,0.0,0.0,0.0,0.0,0.0,0.0,0.0,0.0,0.0,0.0,0.0,0.0,0.0,0.0,0.0,0.0,0.0,0.0,0.0,0.0,0.0,0.0,0.0,0.0,0.0,0.0,0.0,0.0,0.0,0.0,0.0,0.0,0.0,0.0,0.0,0.0,0.0,0.0,0.0,0.0,0.0,0.0,-4.2534,0.0,0.0,0.0,0.0,0.0,0.0,0.0,0.0,0.0,0.0,0.0,0.0,0.0,0.0,0.0,0.0,0.0,0.0,0.0,0.0,0.0,0.0,0.0,0.0,0.0,0.0,0.0,0.0,0.0,0.0,0.0,0.0,0.0,0.0,0.0,0.0,0.0,0.0,0.0,0.0,-4.8987,-5.0619,-5.1774,-5.2051,-5.2076,-5.2076,-5.2076,-5.2076,-5.1724,-5.0845,-5.0293,0.0,0.0,0.0,0.0,0.0,0.0,0.0,0.0,0.0,0.0,0.0,0.0,0.0,0.0,0.0,0.0,0.0,0.0,0.0,0.0,0.0,0.0,0.0,0.0,0.0,0.0,0.0,0.0,0.0,0.0,0.0,0.0,0.0,0.0,0.0,0.0,0.0,0.0,0.0,0.0,0.0,0.0,0.0,0.0,0.0,0.0,0.0,0.0,0.0,0.0,0.0,0.0,0.0,-4.5347,-4.5397,-4.5497,-4.5497,-4.5497,-4.5472,-4.5271,-4.5623,-4.6175,-4.4317,0.0,0.0,0.0,0.0,0.0,0.0,0.0,0.0,0.0,0.0,0.0,0.0,0.0,0.0,0.0,0.0,0.0,0.0,0.0,0.0,0.0,0.0,0.0,0.0,-4.7782,-4.8008,0.0,0.0,0.0,0.0,0.0,0.0,0.0,0.0,0.0,0.0,0.0,0.0,-5.0494,-5.1699,-5.2603,-5.3155,-5.3206,-5.3206,-5.3206,-5.3206,-5.303,-5.2553,-5.1649,-5.0896,0.0,0.0,0.0,0.0,0.0,0.0,0.0,0.0,0.0,0.0,0.0,0.0,0.0,0.0,0.0,0.0,0.0,0.0,0.0,0.0,0.0,0.0,0.0,0.0,0.0,0.0,0.0,0.0,0.0,0.0,0.0,0.0,-4.0199,-4.1856,0.0,0.0,0.0,0.0,0.0,0.0,0.0,0.0,0.0,0.0,0.0,0.0,0.0,-4.4869,-4.6075,-4.61,-4.6803,-4.8234,-4.8234,-4.8485,-4.8937,-4.8937,-4.8937,-4.8887,-4.7908,0.0,-4.6276,-4.5999,0.0,0.0,0.0,0.0,0.0,0.0,0.0,0.0,0.0,0.0,0.0,0.0,0.0,0.0,0.0,0.0,0.0,0.0,0.0,0.0,0.0,0.0,-4.9791,-4.9866,-5.0368,-5.0745,0.0,-4.851,-4.6778,-4.6702,-4.7054,0.0,0.0,0.0,0.0,0.0,0.0,0.0,-5.1724,-5.2829,-5.3708,-5.4285,-5.4361,-5.4361,-5.4361,-5.4361,-5.431,-5.4235,-5.411,-5.3758,-5.3181,-5.18,0.0,0.0,0.0,0.0,0.0,0.0,0.0,0.0,0.0,0.0,0.0,0.0,0.0,0.0,0.0,0.0,0.0,0.0,0.0,0.0,0.0,0.0,0.0,0.0,0.0,0.0,0.0,0.0,0.0,-4.0757,-4.2276,-4.3388,-4.2986,-4.2635,0.0,0.0,0.0,0.0,0.0,0.0,0.0,0.0,0.0,-4.5999,-4.605,-4.6728,-4.8134,-4.8159,-4.8686,-4.969,-4.969,-4.9992,-5.0544,-5.0544,-5.0544,-5.0519,-5.0017,-4.954,-4.9012,-4.7732,-4.7205,-4.7104,0.0,0.0,0.0,0.0,-4.4844,-4.497,-4.5748,-4.6753,0.0,-4.7481,0.0,0.0,0.0,0.0,0.0,0.0,0.0,0.0,0.0,0.0,-5.0117,-5.0745,-5.1096,-5.1272,-5.1272,-5.0569,-4.964,0.0,-4.8686,-4.8611,-4.7832,0.0,0.0,0.0,0.0,-5.1649,-5.2477,-5.298,-5.3356,-5.3607,-5.3632,-5.3632,-5.3632,-5.3632,-5.3632,-5.3632,-5.3909,-5.3959,-5.3708,-5.3331,-5.2578,0.0,0.0,0.0,0.0,0.0,0.0,0.0,0.0,0.0,0.0,0.0,0.0,0.0,0.0,0.0,0.0,0.0,0.0,0.0,0.0,0.0,0.0,0.0,0.0,0.0,0.0,0.0,0.0,-4.2377,-4.384,-4.4719,-4.4493,-4.4292,0.0,0.0,0.0,0.0,0.0,0.0,-4.5447,-4.5598,-4.6401,-4.7933,-4.8109,-4.8786,-5.0017,-5.0017,-5.0243,-5.0645,-5.0645,-5.087,-5.1272,-5.1272,-5.1272,-5.1272,-5.1272,-5.1272,-5.1147,-4.9464,-4.8761,-4.8736,-4.846,-4.7857,-4.7154,-4.7154,-4.7154,-4.7255,-4.7958,-4.8736,-4.949,-4.9891,0.0,-4.9967,-4.969,0.0,0.0,0.0,0.0,-4.8535,-4.9364,-4.9916,-5.0444,-5.1297,-5.1599,-5.1699,-5.1699,-5.2026,-5.19,0.0,-5.0343,-5.0218,-4.954,0.0,0.0,0.0,0.0,-5.2503,-5.3055,-5.313,-5.3181,-5.3331,-5.3356,-5.3356,-5.3356,-5.3356,-5.3356,-5.3356,-5.3708,-5.3858,-5.3708,-5.426,-5.3909,-5.2553,0.0,0.0,0.0,0.0,0.0,0.0,0.0,0.0,0.0,0.0,0.0,0.0,0.0,0.0,0.0,0.0,0.0,0.0,0.0,0.0,0.0,0.0,0.0,0.0,0.0,0.0,0.0,0.0,0.0,-4.5321,-4.6753,0.0,0.0,0.0,0.0,-4.5397,-4.5422,-4.6125,-4.7657,-4.8259,-4.9088,-5.0218,-5.0795,-5.1122,-5.1197,-5.1197,-5.1222,-5.1247,-5.1247,-5.1247,-5.1272,-5.1272,-5.1272,-5.1272,-5.1272,-5.1272,-5.1272,-5.1147,-5.1122,-5.0996,-4.9941,-4.9464,-4.9414,-4.9414,-4.9414,-4.959,-5.0695,-5.1122,-5.1147,-5.1197,-5.1197,-5.0996,-4.9916,-4.9565,0.0,0.0,-4.8686,-4.9515,-4.959,-5.077,-5.2,-5.2051,-5.2477,-5.2854,-5.2854,-5.2879,-5.2703,0.0,-5.2402,-5.2427,-5.1348,0.0,-5.2427,-5.1423,-5.2201,-5.308,-5.3607,-5.3658,-5.3884,-5.4436,-5.4486,-5.4486,-5.4486,-5.4486,-5.4486,-5.4486,-5.4511,-5.4285,-5.3733,-5.426,-5.426,-5.3632,-5.3105,0.0,0.0,0.0,0.0,0.0,0.0,0.0,0.0,0.0,0.0,0.0,0.0,0.0,0.0,0.0,0.0,0.0,0.0,0.0,0.0,0.0,0.0,0.0,0.0,0.0,0.0,0.0,0.0,-4.5874,-4.6527,0.0,-4.6853,-4.6828,-4.7054,-4.7556,-4.8259,-4.9063,-5.0017,-5.0268,-5.0569,-5.0971,-5.1172,-5.1272,-5.1272,-5.1624,-5.2,-5.2352,-5.2352,-5.2528,-5.2829,-5.2503,-5.2352,-5.2352,-5.2352,-5.2352,-5.2352,-5.2352,-5.1925,-5.1247,-5.0845,-5.067,-5.067,-5.067,-5.067,-5.0795,-5.1548,-5.18,-5.1875,-5.2226,-5.2352,-5.2277,-5.1875,-5.1724,-5.1649,-5.1247,-5.1423,-5.1724,-5.1724,-5.2176,-5.2628,-5.2628,-5.2779,-5.2929,-5.2929,-5.2929,-5.2879,-5.2678,-5.2804,-5.2804,-5.2402,-5.2955,-5.3181,-5.2452,-5.2955,-5.3381,-5.3231,-5.3206,-5.3281,-5.3482,-5.3507,-5.3507,-5.3507,-5.3507,-5.3507,-5.3507,-5.3833,-5.3909,-5.3708,-5.426,-5.4461,-5.426,-5.3708,-5.2628,0.0,0.0,0.0,0.0,0.0,0.0,0.0,0.0,0.0,0.0,0.0,0.0,0.0,0.0,0.0,0.0,0.0,0.0,0.0,0.0,0.0,0.0,0.0,0.0,0.0,0.0,-4.5748,-4.6502,-4.7079,-4.7631,-4.8184,-4.8234,-4.8636,-4.954,-5.0293,-5.0971,-5.1523,-5.1724,-5.1825,-5.1825,-5.2,-5.2,-5.185,-5.2201,-5.2578,-5.2929,-5.2929,-5.3105,-5.3432,-5.308,-5.2929,-5.2929,-5.2929,-5.2929,-5.2929,-5.2929,-5.2503,-5.1825,-5.1825,-5.1825,-5.1825,-5.1825,-5.1825,-5.19,-5.2251,-5.2377,-5.2452,-5.2804,-5.2929,-5.2929,-5.2929,-5.2929,-5.2929,-5.2929,-5.2929,-5.2929,-5.2929,-5.2929,-5.2929,-5.2929,-5.2929,-5.2929,-5.2929,-5.2929,-5.2929,-5.2929,-5.2929,-5.2804,-5.2427,-5.2653,-5.2628,-5.1925,-5.2101,-5.2201,-5.185,-5.2126,-5.2377,-5.2377,-5.2703,-5.2929,-5.2929,-5.2578,-5.2528,-5.2904,-5.2904,-5.3055,-5.3432,-5.3632,-5.3733,-5.3733,-5.3181,-5.2251,-5.0971,0.0,0.0,0.0,0.0,0.0,0.0,0.0,0.0,0.0,0.0,0.0,0.0,0.0,0.0,0.0,0.0,0.0,0.0,0.0,0.0,0.0,0.0,0.0,-4.4644,-4.6125,-4.7179,-4.723,-4.8636,-4.9841,-5.0393,-5.0469,-5.072,-5.1297,-5.1322,-5.1574,-5.2126,-5.2653,-5.2929,-5.2929,-5.3406,-5.3432,-5.2929,-5.2955,-5.2955,-5.2955,-5.2955,-5.2955,-5.2955,-5.2929,-5.2929,-5.2929,-5.2929,-5.2929,-5.2929,-5.2929,-5.2929,-5.2929,-5.2929,-5.2929,-5.2929,-5.2929,-5.2929,-5.2929,-5.2929,-5.2929,-5.2929,-5.2929,-5.2929,-5.2929,-5.2929,-5.2929,-5.2929,-5.2929,-5.2929,-5.2929,-5.2929,-5.2929,-5.2929,-5.2929,-5.2929,-5.2929,-5.2929,-5.2929,-5.2929,-5.2929,-5.2929,-5.2578,-5.1523,-5.1322,-5.0971,-4.9866,-4.969,0.0,-4.969,-5.0645,-5.1322,-5.1272,-5.2277,-5.2904,-5.2879,-5.1925,-5.18,-5.2854,-5.1925,-5.1825,-5.2879,-5.2427,-5.2126,-5.2126,-5.1574,-5.1548,-5.2076,0.0,0.0,0.0,0.0,0.0,0.0,0.0,0.0,0.0,0.0,0.0,0.0,0.0,0.0,0.0,0.0,0.0,0.0,0.0,0.0,0.0,0.0,-4.7179,-4.6527,-4.7154,-4.8134,-4.9364,-4.9916,-5.0419,-5.0996,-5.1398,-5.1875,-5.2427,-5.2477,-5.2703,-5.3231,-5.3055,-5.2929,-5.2929,-5.3055,-5.308,-5.2929,-5.3306,-5.3482,-5.3482,-5.3482,-5.3482,-5.3482,-5.3105,-5.2929,-5.2929,-5.2929,-5.2929,-5.2929,-5.2929,-5.2929,-5.2929,-5.2929,-5.2929,-5.2929,-5.2929,-5.2929,-5.2929,-5.2929,-5.2929,-5.2929,-5.2929,-5.2929,-5.2929,-5.2929,-5.2929,-5.2929,-5.2929,-5.2929,-5.2929,-5.2929,-5.2929,-5.2929,-5.2929,-5.2929,-5.2929,-5.2929,-5.2929,-5.2929,-5.2929,-5.2929,-5.2829,-5.2528,-5.2477,-5.2377,-5.2051,-5.2,0.0,-5.2,-5.2277,-5.2176,-5.1373,-5.2277,-5.2603,-5.18,-5.2176,-5.2603,-5.2904,-5.2628,-5.2603,-5.2904,-5.2779,-5.2703,-5.2703,-5.1774,-5.1348,0.0,0.0,0.0,0.0,0.0,0.0,0.0,0.0,0.0,0.0,0.0,0.0,0.0,0.0,0.0,0.0,0.0,0.0,0.0,0.0,0.0,0.0,-4.7832,-4.9138,-4.9213,-4.9264,-4.9766,-5.0971,-5.1122,-5.1423,-5.2226,-5.2377,-5.2678,-5.3206,-5.3055,-5.3155,-5.3683,-5.3406,-5.3256,-5.3256,-5.3256,-5.3155,-5.2929,-5.3231,-5.3381,-5.3381,-5.3381,-5.3381,-5.3356,-5.3055,-5.2929,0.0,-5.2929,-5.2929,-5.2929,-5.2929,-5.2929,0.0,0.0,0.0,0.0,0.0,-5.2929,-5.2929,-5.2929,-5.2929,-5.2929,-5.2929,-5.2929,-5.2929,-5.2929,-5.2929,-5.2929,-5.2929,-5.2929,-5.2929,-5.2929,-5.2929,-5.2929,-5.2929,-5.2929,-5.2929,-5.2929,-5.2929,-5.2929,-5.2929,-5.2929,0.0,-5.2929,-5.2553,-5.2076,-5.1599,-5.1523,-5.1523,-5.1523,-5.195,-5.2,-5.1348,-5.2277,-5.2678,-5.2026,-5.2126,0.0,0.0,0.0,-5.2226,-5.2226,-5.2226,0.0,0.0,0.0,-5.0795,-5.1272,-5.0845,0.0,0.0,-5.0946,-5.0469,0.0,0.0,0.0,0.0,0.0,0.0,0.0,0.0,0.0,0.0,0.0,0.0,0.0,0.0,0.0,0.0,-4.8887,-5.0494,-5.1975,-5.1774,-5.1649,-5.2126,-5.2201,-5.2578,-5.3532,-5.3256,-5.3206,-5.3658,-5.3281,-5.3231,-5.3683,0.0,0.0,0.0,0.0,-5.3381,-5.2929,-5.2929,-5.2929,-5.2929,-5.2929,-5.2929,-5.2929,-5.2929,-5.2929,-5.2929,-5.298,-5.3005,-5.303,-5.308,-5.3105,-5.3105,-5.298,-5.2929,-5.2929,-5.2929,-5.2929,-5.2929,-5.2929,0.0,0.0,-5.2929,-5.2929,-5.2929,-5.2929,-5.2929,-5.2929,-5.2929,-5.2929,-5.2929,-5.2929,-5.2929,-5.2929,-5.2929,-5.2929,-5.2929,-5.2929,-5.2929,-5.2929,-5.2929,-5.2929,-5.2955,-5.3005,-5.2151,-5.1122,-5.0117,-4.9967,-4.9992,-5.0042,-5.0946,-5.1523,-5.1473,0.0,0.0,-5.2929,-5.2151,-5.2076,-5.3055,-5.2201,-5.1624,-5.1548,-5.1548,-5.1046,-4.9992,-4.9967,-5.0469,-5.1473,-5.195,-5.2678,-5.3557,-5.1247,-5.0695,0.0,0.0,0.0,0.0,0.0,0.0,0.0,0.0,0.0,0.0,0.0,0.0,0.0,0.0,0.0,-4.9741,-5.1197,-5.2402,-5.2729,-5.2678,-5.2653,-5.2754,-5.2779,-5.2854,-5.3055,-5.3356,-5.3582,-5.3683,-5.3607,-5.3607,-5.3683,-5.3306,-5.308,-5.308,-5.308,-5.303,-5.2929,-5.2929,-5.2929,-5.2929,0.0,0.0,-5.2929,-5.2929,-5.2929,-5.2955,-5.3356,-5.3557,-5.3582,-5.4059,-5.4235,-5.416,-5.3281,-5.2929,-5.2929,-5.2929,-5.2929,-5.2929,-5.2929,-5.2929,-5.2929,-5.2929,-5.2929,-5.2929,-5.2929,-5.2929,0.0,-5.2929,-5.2929,-5.2929,-5.2929,-5.2929,-5.2929,-5.2929,-5.2929,-5.2929,-5.2929,-5.2929,-5.2929,-5.2929,-5.2929,-5.3055,-5.3482,-5.303,-5.2528,-5.2327,-5.2277,-5.2427,-5.2854,-5.3105,-5.308,-5.2653,-5.3582,-5.3884,-5.3005,-5.3532,-5.4034,-5.4235,-5.4059,-5.3708,-5.3256,-5.3231,-5.2929,-5.2302,-5.2277,-5.2377,-5.2603,-5.2703,-5.2879,-5.308,-5.3432,-5.3733,0.0,0.0,0.0,0.0,0.0,0.0,0.0,0.0,0.0,0.0,0.0,-4.8109,0.0,0.0,-5.0845,-5.0845,-5.2026,-5.303,-5.3281,-5.3306,-5.3306,-5.3306,-5.3306,-5.3432,-5.3708,-5.3708,-5.3708,-5.3708,-5.3457,-5.3306,-5.3306,-5.308,-5.2929,-5.2929,-5.2929,-5.2929,-5.2929,-5.3181,-5.3306,-5.3306,-5.3607,-5.3758,-5.3758,-5.3758,-5.3758,-5.3758,-5.4009,-5.4135,-5.416,-5.4436,-5.4561,-5.4511,-5.3959,-5.3758,-5.3758,-5.3758,-5.3758,-5.3708,-5.3406,-5.3306,-5.3281,-5.3005,-5.2929,-5.2929,-5.2929,-5.2929,-5.2929,-5.2929,-5.2929,-5.298,-5.3256,-5.3306,-5.3381,-5.3683,-5.3758,-5.3758,-5.3758,-5.3758,-5.3758,-5.3758,-5.3758,-5.3833,-5.4084,-5.3909,-5.3758,-5.3758,-5.3758,-5.3833,-5.411,-5.4135,-5.4034,-5.3783,-5.4235,-5.4336,-5.3783,-5.4235,-5.4561,-5.4561,-5.4561,-5.4436,-5.4135,-5.4135,-5.4009,-5.3758,-5.3758,-5.3607,-5.3306,-5.3306,-5.3181,-5.2929,-5.3482,-5.3758,0.0,0.0,0.0,0.0,0.0,0.0,0.0,0.0,-4.8636,-4.9414,-4.949,-4.959,-5.0142,-5.1071,-5.1749,-5.1749,-5.2503,-5.3231,-5.3632,-5.3607,-5.3557,-5.3557,-5.3632,-5.3858,-5.421,-5.3833,-5.3557,-5.3557,-5.3155,-5.2929,-5.2929,-5.2929,-5.298,-5.308,-5.308,-5.313,-5.3256,-5.3658,-5.3858,-5.3884,-5.4336,-5.4561,-5.4561,-5.4561,-5.4561,-5.4587,-5.4687,-5.4787,-5.4888,-5.4888,-5.4888,-5.4888,-5.4888,-5.4888,-5.4863,-5.4637,-5.4561,-5.4486,-5.4034,-5.3858,-5.3808,-5.3381,-5.3256,-5.3256,-5.3256,-5.3256,-5.3256,-5.3256,-5.3256,-5.3331,-5.3758,-5.3858,-5.3984,-5.4461,-5.4561,-5.4561,-5.4561,-5.4561,-5.4561,-5.4561,-5.4561,-5.4587,-5.4712,-5.4737,-5.4687,-5.4587,-5.4561,-5.4612,-5.4712,-5.4737,-5.4762,-5.4863,-5.4888,-5.4888,-5.4888,-5.4888,-5.4888,-5.4888,-5.4888,-5.4838,-5.4737,-5.4737,-5.4687,-5.4561,-5.4561,-5.4336,-5.3858,-5.3858,-5.3658,-5.3256,-5.3256,-5.313,-4.6301,-4.6225,-4.6326,-4.6376,-4.7405,-4.8711,0.0,0.0,-5.0569,-5.2151,-5.2076,-5.19,-5.2452,-5.303,-5.3432,-5.3432,-5.3532,-5.3632,-5.3683,-5.3306,-5.3005,-5.3005,-5.3406,-5.3557,-5.3155,-5.3055,-5.3005,-5.3005,-5.2955,-5.2929,-5.2929,-5.2929,-5.313,-5.3607,-5.3607,-5.3858,-5.4386,-5.4436,-5.4461,-5.4461,-5.4536,-5.4561,-5.4561,-5.4561,-5.4561,-5.4587,-5.5089,-5.5566,-5.6018,-5.6018,-5.6018,-5.6018,-5.6018,-5.6018,-5.5917,-5.4938,-5.4561,-5.4561,-5.4486,-5.4461,-5.4461,-5.4411,-5.4386,-5.4386,-5.4386,-5.4386,-5.4386,-5.4386,-5.4386,-5.4386,-5.4461,-5.4461,-5.4486,-5.4536,-5.4561,-5.4561,-5.4561,-5.4561,-5.4561,-5.4561,-5.4561,-5.4712,-5.5214,-5.529,-5.5139,-5.4637,-5.4561,-5.4737,-5.5239,-5.529,-5.5491,-5.5968,-5.6018,-5.6018,-5.6018,-5.6018,-5.6018,-5.6018,-5.6018,-5.5817,-5.5315,-5.529,-5.5064,-5.4587,-5.4561,-5.4536,-5.4461,-5.4461,-5.4436,-5.4386,-5.4386,-5.3858,-4.8485,-4.8234,0.0,0.0,-5.0193,-5.0519,-5.1624,-5.1875,-5.2151,-5.3181,-5.3206,-5.3206,-5.3783,-5.3783,-5.3708,0.0,-5.3457,-5.3256,-5.3256,-5.3055,-5.2929,-5.2929,-5.313,-5.3181,-5.2955,-5.2929,-5.2929,-5.2929,-5.2929,-5.3055,-5.3356,-5.3381,-5.3632,-5.4185,-5.421,-5.431,-5.4561,-5.4888,-5.5214,-5.5516,-5.5842,-5.6168,-5.6495,-5.6495,-5.6495,-5.652,-5.6746,-5.6972,-5.7198,-5.7198,-5.7198,-5.7198,-5.7198,-5.7198,-5.7047,-5.5942,-5.5516,-5.5491,-5.5164,-5.5039,-5.4988,-5.4662,-5.4561,-5.4561,-5.4561,-5.4561,-5.4561,-5.4561,-5.4561,-5.4637,-5.4963,-5.5039,-5.5114,-5.544,-5.5516,-5.5516,-5.5516,-5.5516,-5.5516,-5.5516,-5.5792,-5.6068,-5.6319,-5.662,-5.6771,-5.6545,-5.5942,-5.5616,-5.5842,-5.6143,-5.657,-5.7123,-5.7198,-5.7198,-5.7198,-5.7198,-5.7198,-5.7198,-5.7198,-5.6947,-5.6369,-5.6344,-5.5629,-5.4157,-5.5057,-5.4907,-5.3667,-5.4583,-5.4888,-5.4561,-5.4561,-5.431,-4.9766,0.0,0.0,-5.19,-5.2201,-5.2151,-5.2955,-5.313,-5.3256,-5.3632,-5.3582,-5.3607,-5.4034,-5.3758,-5.3482,-5.3482,-5.3181,-5.2929,-5.2929,-5.2929,-5.2929,-5.2929,-5.2929,-5.298,-5.313,-5.3005,-5.298,-5.313,-5.313,-5.3381,-5.3909,-5.3934,-5.421,-5.4762,-5.4938,-5.5089,-5.5239,-5.5792,-5.6269,-5.6671,-5.7072,-5.7499,-5.7901,-5.7901,-5.7901,-5.7901,-5.7901,-5.7901,-5.7901,-5.7901,-5.7901,-5.7901,-5.7901,-5.7901,-5.7801,-5.6972,-5.6671,-5.662,-5.6219,-5.6093,-5.6018,-5.5616,-5.5491,-5.5491,-5.5491,-5.5491,-5.5491,-5.5491,-5.5491,-5.5421,-5.5359,-5.5776,-5.6022,-5.5955,-5.6375,-5.6523,-5.6054,-5.5906,-5.5906,-5.5906,-5.6228,-5.6651,-5.7124,-5.7625,-5.7901,-5.7901,-5.7198,-5.6671,-5.6671,-5.7022,-5.7424,-5.7851,-5.7901,-5.7901,-5.7901,-5.7901,-5.7901,-5.7901,-5.7901,-5.77,-5.7298,-5.7273,-5.6452,-5.4961,-5.5583,-5.5386,-5.4227,-5.4992,-5.5405,-5.5491,-5.5491,-5.5491,-4.9314,0.0,-4.9866,-5.1046,-5.2503,-5.3632,-5.3658,-5.3683,-5.3683,-5.3708,-5.3306,-5.2955,-5.298,-5.2955,-5.2955,-5.2955,-5.2929,-5.2929,-5.2929,-5.2929,-5.2929,-5.2929,-5.2929,-5.313,0.0,-5.3231,-5.313,-5.3632,-5.3683,-5.3934,-5.4511,-5.4536,-5.4787,-5.534,-5.5892,-5.642,-5.6947,-5.7524,-5.7826,-5.7851,-5.7851,-5.7876,-5.7901,-5.7901,-5.7901,-5.7901,-5.7901,-5.7901,-5.7901,-5.7901,-5.7901,-5.7901,-5.7901,-5.7901,-5.7901,-5.7851,-5.7851,-5.7851,-5.7826,-5.7826,-5.7826,-5.7801,-5.7801,-5.7801,-5.7801,-5.7801,-5.7801,-5.7801,-5.7801,-5.7474,-5.5751,-5.654,-5.7348,-5.5775,-5.659,-5.7373,-5.5622,-5.5313,-5.5313,-5.5313,-5.5313,-5.5978,-5.7549,-5.7901,-5.7901,-5.7901,-5.7876,-5.7851,-5.7851,-5.7851,-5.7876,-5.7901,-5.7901,-5.7901,-5.7901,-5.7901,-5.7901,-5.7901,-5.7901,-5.7901,-5.7876,-5.7876,-5.7876,-5.7851,-5.6107,-5.6107,-5.7675,-5.6082,-5.6235,-5.7801,-5.7801,-5.7801,-5.0845,0.0,-5.1523,-5.2603,-5.3306,-5.3303,-5.1926,-5.2436,-5.2878,-5.1852,-5.1743,-5.1825,-5.1825,-5.1222,-5.0971,-5.1724,-5.1825,-5.2101,-5.2829,-5.2929,-5.3055,-5.3406,-5.3432,0.0,0.0,0.0,0.0,-5.4235,-5.4285,-5.4511,-5.5089,-5.5465,-5.5917,-5.647,-5.7047,-5.7424,-5.76,-5.7801,-5.8077,-5.8453,-5.8805,-5.8956,-5.8956,-5.8956,-5.8956,-5.8956,-5.8956,-5.8956,-5.8956,-5.8956,-5.8956,-5.8956,-5.8956,-5.8956,-5.8956,-5.8956,-5.8956,-5.8855,-5.8152,-5.7901,-5.7901,-5.7901,-5.7095,-5.6461,-5.7574,-5.7095,-5.6155,-5.6155,-5.6943,-5.7247,-5.4226,-5.567,-5.7423,-5.567,-5.6639,-5.775,-5.7095,-5.7095,-5.7095,-5.7095,-5.724,-5.7309,-5.6798,-5.6936,-5.7179,-5.7179,-5.7566,-5.8027,-5.8403,-5.8453,-5.8579,-5.893,-5.8956,-5.8956,-5.8956,-5.8956,-5.847,-5.7335,-5.7179,-5.6541,-5.5059,-5.5059,-5.4264,-5.2832,-5.3283,-5.3283,-5.2809,-5.4405,-5.567,-5.6155,-5.7423,-5.7901,-5.1164,-5.1369,-5.1346,-5.3017,-5.3432,-5.2889,-5.1071,-5.1303,-5.1485,-4.965,-4.9907,-5.032,-5.0057,-4.9806,-5.0042,-5.1348,-5.1574,-5.2026,-5.3331,-5.3507,-5.3632,-5.3959,-5.4009,-5.4235,0.0,0.0,0.0,-5.4838,-5.4863,-5.5189,-5.5942,-5.6319,-5.6771,-5.7323,-5.7901,-5.8202,-5.8202,-5.8378,-5.8654,-5.9006,-5.9332,-5.9608,-5.9784,-5.9784,-5.991,-6.0085,-6.0085,-6.0085,-6.0085,-6.0085,-6.0085,-6.0085,-6.0085,-6.0085,-6.0085,-5.9433,-5.9094,-5.9103,-5.8677,-5.8478,-5.8478,-5.8478,-5.7665,-5.7025,-5.8149,-5.7665,-5.6871,-5.6871,-5.7665,-5.7818,-5.4926,-5.6226,-5.7818,-5.5578,-5.6226,-5.718,-5.5914,-5.5734,-5.5734,-5.5734,-5.6022,-5.608,-5.5581,-5.5682,-5.5966,-5.6155,-5.6612,-5.7369,-5.8827,-5.8519,-5.8464,-5.9458,-5.9483,-5.9483,-5.9483,-5.9483,-5.9018,-5.7873,-5.7218,-5.6232,-5.4784,-5.4761,-5.3819,-5.1745,-5.2694,-5.3016,-5.2533,-5.4134,-5.5578,-5.6871,-5.7996,-5.8478,-5.0215,-5.0087,-4.9463,-5.2079,-5.2629,-5.2189,-5.0717,-5.0386,-4.9769,-4.7212,-4.7792,-4.8555,0.0,0.0,-5.0067,-5.1774,-5.194,-5.2541,-5.4336,-5.4561,-5.4561,0.0,0.0,0.0,0.0,0.0,0.0,-5.5321,0.0,-5.5942,-5.7022,-5.7097,-5.7374,-5.7926,-5.8478,-5.8755,-5.8755,-5.9282,-5.9558,-5.9583,-5.9583,-5.9859,-6.0362,-6.0205,-6.0505,-6.1006,-6.1006,-6.0846,-6.0846,-6.0846,-6.0846,-6.0846,-6.0846,-6.0846,-6.0687,-5.8976,-5.83,-5.8343,-5.9127,-5.9248,-5.9198,-5.9173,-5.9173,-5.9173,-5.9173,-5.9173,-5.9173,-5.9173,-5.9173,-5.8837,-5.7035,-5.7873,-5.8344,-5.4928,-5.5436,-5.5942,-5.2536,-5.1892,-5.1914,-5.1914,-5.1747,-5.2248,-5.3879,-5.4184,-5.4367,-5.4848,-5.4916,-5.5906,-5.8986,-5.7789,-5.7449,-5.9092,-5.9248,-5.9248,-5.9248,-5.9248,-5.9248,-5.9248,-5.7631,-5.663,-5.663,-5.663,-5.5829,-5.4184,-5.4043,-5.4835,-5.663,-5.5021,-5.599,-5.9248,-5.9248,-5.9248,-4.8545,-4.8754,-4.8658,-4.9368,-4.9438,-4.8984,-4.7535,-4.7522,-4.7328,-4.552,-4.5963,-4.668,0.0,0.0,0.0,-5.1147,-5.0826,0.0,-5.4169,-5.3513,0.0,-5.497,0.0,-5.539,-5.5942,-5.5139,0.0,0.0,-5.5831,-5.6922,-5.765,-5.8077,-5.8353,-5.8504,-5.9031,-5.9307,-5.9307,-5.9834,-6.0337,-6.0763,-6.0763,-6.0839,-6.0964,-5.9452,-5.9017,-5.8976,-5.7644,-5.7149,-5.7149,-5.7149,-5.7149,-5.7149,-5.7149,-5.7149,-5.6983,-5.6651,-5.6318,-5.6438,-5.6678,-5.6491,-5.6091,-5.5715,-5.4766,-5.3952,-5.5251,-5.4766,-5.3624,-5.3624,-5.4604,-5.4928,-5.1849,-5.3318,-5.509,-5.2823,-5.3919,-5.5181,-5.4357,-5.4486,-5.4758,-5.4758,-5.358,-5.273,-5.3241,-5.341,-5.3454,-5.3565,-5.3417,-5.4221,-5.6443,-5.6255,-5.6255,-5.6585,-5.6749,-5.6749,-5.6749,-5.6749,-5.609,-5.4736,-5.4232,-5.341,-5.2067,-5.2067,-5.1917,-5.14,-5.14,-5.1573,-5.2067,-5.29,-5.3727,-5.4736,-5.6067,-5.6749,-4.7843,-4.7827,-4.7389,-4.8118,-4.8263,-4.7713,-4.583,-4.5589,-4.5229,-4.2861,-4.3894,-4.5337,-4.5775,-4.6819,0.0,0.0,0.0,0.0,-5.2791,-5.3008,-5.2956,0.0,-5.4206,0.0,-5.4364,-5.3742,-5.3791,0.0,-5.5814,-5.6545,-5.7087,-5.8071,-5.883,-5.9056,-5.9583,-5.9985,-6.0236,-6.0537,-6.0864,-6.119,-6.0342,-6.0119,-6.0179,-5.833,-5.7762,-5.7831,0.0,-5.6482,-5.6482,-5.6482,-5.6482,-5.6482,-5.6482,-5.6482,-5.6313,-5.546,-5.5289,-5.5095,-5.4012,-5.3426,-5.3461,-5.463,-5.4305,-5.3638,-5.4614,-5.4282,-5.3471,-5.3471,-5.4138,-5.4448,-5.2484,-5.3471,-5.4448,-5.2631,-5.3167,-5.3873,-5.3218,-5.3268,-5.3295,-5.3295,-5.2607,-5.1936,-5.1936,-5.1936,-5.2,-5.2213,-5.2256,-5.2669,-5.3908,-5.4223,-5.4806,-5.5649,-5.5649,-5.5649,-5.5649,-5.5649,-5.5313,-5.4297,-5.3444,-5.2607,-5.1588,-5.1588,-5.126,-5.0425,-5.1085,-5.1588,-5.1588,-5.2607,-5.3444,-5.4297,-5.5313,-5.5649,-4.7018,-4.6655,-4.5937,-4.7389,-4.7681,-4.7118,-4.4858,-4.4264,-4.3271,-4.0229,-4.1961,-4.4115,-4.4524,-4.5809,-4.775,-5.058,0.0,-4.9101,-5.1087,-5.2365,-5.267,-5.1447,-5.2565,-5.3105,-5.2184,-5.1875,-5.276,-5.5225,-5.4964,-5.5278,-5.6179,-5.7369,-5.8415,-5.9248,-5.9797,-6.0397,-6.1046,-6.0725,-6.075,-6.0825,-5.9128,-5.8497,-5.8855,-5.7006,-5.6553,-5.6987,-5.6618,-5.6618,-5.6618,-5.6618,-5.6618,-5.6618,-5.6618,-5.6618,-5.6468,-5.4741,-5.4233,-5.3991,-5.1851,-5.1212,-5.1621,-5.4135,-5.4975,-5.4975,-5.4975,-5.4975,-5.4975,-5.4975,-5.4975,-5.4975,-5.4975,-5.4975,-5.4637,-5.3101,-5.265,-5.2368,-5.0839,-5.0549,-5.0611,-5.0611,-5.0611,-5.0611,-5.0611,-5.0611,-5.0736,-5.115,-5.1212,-5.1357,-5.175,-5.2464,-5.347,-5.4986,-5.5179,-5.5179,-5.5179,-5.5179,-5.5179,-5.5179,-5.3642,-5.278,-5.278,-5.278,-5.2106,-5.0611,-5.2128,-5.278,-5.278,-5.278,-5.3642,-5.5179,-5.5179,-5.5179,-4.4289,-4.418,-4.405,-4.4331,-4.4482,-4.41,-4.2878,-4.2084,0.0,0.0,-4.0886,-4.2059,-4.3647,-4.4776,-4.6473,-4.9453,0.0,0.0,0.0,0.0,-5.0053,0.0,0.0,0.0,0.0,0.0,0.0,0.0,0.0,-5.3583,-5.6574,-5.5617,-5.6013,-5.8006,-5.8564,-5.9152,-6.012,-5.8611,-5.8143,-5.8562,-5.8195,-5.786,-5.7537,-5.5834,-5.5005,-5.4917,-5.3344,0.0,-5.2671,-5.2671,-5.2671,-5.2671,-5.2671,-5.2671,-5.2671,-5.2312,-5.2333,-5.2312,-5.1889,-5.1688,-5.1723,-5.1379,-5.126,-5.126,-5.126,-5.126,-5.126,-5.126,-5.126,-5.126,-5.126,-5.126,-5.126,-5.0931,-5.1224,-5.1339,-5.0984,-5.1294,-5.1564,-5.1564,-5.1564,-5.1564,-5.1564,-5.1564,-5.1584,-5.1667,-5.1688,-5.1708,-5.1791,-5.2006,-5.2082,-5.2418,-5.2418,-5.2418,-5.2418,-5.2418,-5.2418,-5.2418,-5.2261,-5.2082,-5.2082,-5.2082,-5.1902,-5.1564,-5.1902,-5.2082,-5.2082,-5.2082,-5.2261,-5.2418,-5.2418,-5.2418,-4.3035,-4.3242,-4.3615,-4.3615,-4.3615,-4.3242,-4.1855,0.0,0.0,-3.9744,-4.0593,-4.2114,-4.3653,-4.4339,0.0,-4.7499,0.0,0.0,0.0,0.0,0.0,0.0,0.0,0.0,0.0,0.0,0.0,0.0,0.0,-5.1906,-5.4362,-5.4921,-5.5759,-5.7382,-5.7382,-5.7874,-5.8905,-5.7791,-5.7447,-5.7676,-5.6655,-5.617,-5.5772,-5.4056,-5.3187,-5.3008,-5.2152,0.0,-5.1791,-5.1791,-5.1791,-5.1791,-5.1791,-5.1791,-5.1791,-5.1791,-5.1791,-5.1791,-5.1791,-5.1791,-5.1729,-5.1274,-5.1129,-5.1129,-5.1129,-5.1129,-5.1129,-5.1129,-5.1129,-5.1129,-5.1129,-5.1129,-5.1129,-5.1129,-5.1315,-5.146,-5.146,-5.1646,-5.1791,-5.1791,-5.1791,-5.1791,-5.1791,-5.1791,-5.1791,-5.1791,-5.1791,-5.1791,-5.1791,-5.1791,-5.1791,-5.1791,-5.1791,-5.1791,-5.1791,-5.1791,-5.1791,-5.1791,-5.1791,-5.1791,-5.1791,-5.1791,-5.1791,-5.1791,-5.1791,-5.1791,-5.1791,-5.1791,-5.1791,-5.1791,-5.1791,-5.1791,-4.2683,-4.3077,-4.3615,-4.3615,-4.3615,-4.3159,-4.1421,-4.1296,0.0,-3.9475,-4.0647,-4.2289,-4.3447,0.0,-4.4149,0.0,-4.4947,-4.4546,0.0,0.0,0.0,0.0,0.0,0.0,0.0,0.0,0.0,0.0,0.0,0.0,-5.2046,-5.4194,-5.5824,-5.6618,-5.6346,-5.6573,-5.7367,-5.6632,-5.6277,-5.6277,-5.4895,-5.4164,-5.3878,-5.2492,-5.1791,-5.1791,-5.1791,0.0,0.0,-5.1791,-5.1791,-5.1791,-5.1791,-5.1791,-5.1791,-5.1791,-5.1791,-5.1791,-5.1791,-5.1791,-5.1791,-5.1791,-5.1791,-5.1791,-5.1791,-5.1791,-5.1791,-5.1791,-5.1791,-5.1791,-5.1791,-5.1791,-5.1791,-5.1791,-5.1791,-5.1791,-5.1791,-5.1791,-5.1791,-5.1791,-5.1791,-5.1791,-5.1791,-5.1791,-5.1791,-5.1791,-5.1791,-5.1791,-5.1791,-5.1791,-5.1791,-5.1791,-5.1791,-5.1791,-5.1791,-5.1791,-5.1791,-5.1791,-5.1791,-5.1791,-5.1791,-5.1791,-5.1791,-5.1791,-5.1791,-5.1791,-5.1791,-5.1791,-5.1791,-5.1791,-5.1791,-5.1791,-4.3284,-4.3553,-4.3615,-4.3615,-4.3615,-4.3242,-4.1835,0.0,-4.1276,-4.0261,-4.0277,-4.0755,-4.223,-4.1814,-4.1855,0.0,0.0,-4.3097,0.0,0.0,0.0,0.0,0.0,0.0,0.0,0.0,0.0,0.0,0.0,0.0,-5.1162,-5.349,-5.4654,-5.4917,-5.5114,-5.5355,-5.5442,-5.3847,-5.296,-5.296,-5.2778,-5.2569,-5.1972,-5.1791,-5.1791,-5.1791,-5.1791,-5.1791,0.0,-5.1791,-5.1791,-5.1791,-5.1791,-5.1791,-5.1791,-5.1791,-5.1791,-5.1791,-5.1791,-5.1791,-5.1791,-5.1791,-5.1791,-5.1791,-5.1791,-5.1791,-5.1791,-5.1791,-5.1791,-5.1791,-5.1791,-5.1791,-5.1791,-5.1791,-5.1791,-5.1791,-5.1791,-5.1791,-5.1791,-5.1791,-5.1791,-5.1791,-5.1791,-5.1791,-5.1791,-5.1791,-5.1791,-5.1791,-5.1791,-5.1791,-5.1791,-5.1791,-5.1791,-5.1791,-5.1791,-5.1791,-5.1791,-5.1791,-5.1791,-5.1791,-5.1791,-5.1791,-5.1791,-5.1791,-5.1791,-5.1791,-5.1791,-5.1791,-5.1791,-5.1791,-5.1791,-5.1791,-4.2021,-4.2766,-4.3615,-4.3615,-4.3615,-4.3242,-4.1876,0.0,-4.1648,-4.0448,-4.0427,-4.0779,-4.1317,-4.1131,-4.111,-4.1855,-4.2352,-4.3097,-4.4401,0.0,0.0,0.0,0.0,0.0,0.0,0.0,0.0,0.0,0.0,0.0,-5.2329,-5.2974,-5.3273,-5.3273,-5.3168,-5.3252,-5.3527,-5.2569,-5.2081,-5.2081,-5.2081,-5.1978,-5.1791,-5.1791,-5.1791,-5.1791,-5.1791,-5.1791,0.0,-5.1791,-5.1791,-5.1791,-5.1791,-5.1791,-5.1791,-5.1791,-5.1791,-5.1791,-5.1791,-5.1791,-5.1791,-5.1791,-5.1791,-5.1791,-5.1791,-5.1791,-5.1791,-5.1791,-5.1791,-5.1791,-5.1791,-5.1791,-5.1791,-5.1791,-5.1791,-5.1791,-5.1791,-5.1791,-5.1791,-5.1791,-5.1791,-5.1791,-5.1791,-5.1791,-5.1791,-5.1791,-5.1791,-5.1791,-5.1791,-5.1791,-5.1791,-5.1791,-5.1791,-5.1791,-5.1791,-5.1791,-5.1791,-5.1791,-5.1791,-5.1791,-5.1791,-5.1791,-5.1791,-5.1791,-5.1791,-5.1791,-5.1791,-5.1791,-5.1791,-5.1791,-5.1791,-5.1791,-4.1317,-4.2228,-4.3284,-4.3553,-4.3408,-4.2952,-4.2,0.0,-4.1565,-4.0613,-4.0655,-4.0882,-4.0882,-4.0882,-4.0882,-4.0882,-4.1793,-4.2849,-4.376,-4.5188,0.0,0.0,0.0,0.0,0.0,0.0,0.0,0.0,0.0,0.0,-5.295,-5.2661,-5.2495,-5.2495,-5.2185,-5.2102,-5.2288,-5.1957,-5.1791,-5.1791,-5.1791,-5.1791,-5.1791,-5.1791,-5.1791,-5.1791,-5.1791,-5.1791,0.0,-5.1791,-5.1791,-5.1791,-5.1791,-5.1791,-5.1791,-5.1791,-5.1791,-5.1791,-5.1791,-5.1791,-5.1791,-5.1791,-5.1791,-5.1791,-5.1791,-5.1791,-5.1791,-5.1791,-5.1791,-5.1791,-5.1791,-5.1791,-5.1791,-5.1791,-5.1791,-5.1791,-5.1791,-5.1791,-5.1791,-5.1791,-5.1791,-5.1791,-5.1791,-5.1791,-5.1791,-5.1791,-5.1791,-5.1791,-5.1791,-5.1791,-5.1791,-5.1791,-5.1791,-5.1791,-5.1791,-5.1791,-5.1791,-5.1791,-5.1791,-5.1791,-5.1791,-5.1791,-5.1791,-5.1791,-5.1791,-5.1791,-5.1791,-5.1791,-5.1791,-5.1791,-5.1791,-5.1791,-4.1752,-4.2249,-4.2476,-4.3387,-4.2932,-4.2269,0.0,0.0,-4.0882,-4.0862,-4.0882,-4.0882,-4.0882,-4.0882,-4.0882,-4.0882,-4.1276,-4.1897,-4.2807,-4.4526,0.0,0.0,0.0,0.0,0.0,0.0,0.0,0.0,0.0,0.0,-5.2495,-5.2495,-5.2495,-5.2495,-5.2495,-5.2267,-5.1812,-5.1791,-5.1791,-5.1791,-5.1791,-5.1791,-5.1791,-5.1791,-5.1791,-5.1791,-5.1791,-5.1791,0.0,-5.1791,-5.1791,-5.1791,-5.1791,-5.1791,-5.1791,-5.1791,-5.1791,-5.1791,-5.1791,-5.1791,-5.1791,-5.1791,-5.1791,-5.1791,-5.1791,-5.1791,-5.1791,-5.1791,-5.1791,-5.1791,-5.1791,-5.1791,-5.1791,-5.1791,-5.1791,-5.1791,-5.1791,-5.1791,-5.1791,-5.1791,-5.1791,-5.1791,-5.1791,-5.1791,-5.1791,-5.1791,-5.1791,-5.1791,-5.1791,-5.1791,-5.1791,-5.1791,-5.1791,-5.1791,-5.1791,-5.1791,-5.1791,-5.1791,-5.1791,-5.1791,-5.1791,-5.1791,-5.1791,-5.1791,-5.1791,-5.1791,-5.1791,-5.1791,-5.1791,-5.1791,-5.1791,-5.1791,-4.0241,-4.0841,-4.1379,-4.1669,-4.1772,-4.171,-4.1379,0.0,-4.1255,-4.0944,-4.0882,-4.0882,-4.0882,-4.0882,-4.0882,-4.0882,-4.1524,-4.2352,-4.3263,0.0,0.0,0.0,0.0,0.0,0.0,0.0,0.0,0.0,0.0,0.0,-5.2516,-5.2185,-5.2019,-5.2019,-5.2019,-5.1957,-5.1791,-5.1791,-5.1791,-5.1791,-5.1791,-5.1791,-5.1791,-5.1791,-5.1791,-5.1791,-5.1791,-5.1978,-5.2267,-5.2267,-5.2454,-5.2743,-5.2743,-5.2743,-5.2743,-5.2743,-5.2743,-5.2743,-5.2743,-5.2536,-5.2267,-5.2267,-5.206,-5.1791,-5.1791,-5.1791,-5.1791,-5.1791,-5.1791,-5.1791,-5.1791,-5.1791,-5.1791,-5.1791,-5.1791,-5.1791,-5.1791,-5.1791,-5.1791,-5.1791,-5.1791,-5.1791,-5.1791,-5.1791,-5.1791,-5.1791,-5.1791,-5.1791,-5.1791,-5.1791,-5.1791,-5.1791,-5.1791,-5.1791,-5.1791,-5.1791,-5.1791,-5.1791,-5.1791,-5.1791,-5.1791,-5.1791,-5.1791,-5.1791,-5.1791,-5.1791,-5.1791,-5.1791,-5.1791,-5.1791,-5.1791,-5.1791,-3.9454,-3.9951,-4.0448,-4.08,-4.0965,0.0,0.0,0.0,0.0,-4.0903,-4.0882,-4.0882,-4.0882,-4.0882,-4.0882,-4.0882,-4.1648,-4.2456,-4.3014,0.0,0.0,0.0,0.0,0.0,0.0,0.0,0.0,0.0,0.0,0.0,-5.2247,-5.1957,-5.1791,-5.1791,-5.1791,-5.1791,-5.1791,-5.1791,-5.1791,-5.1791,-5.1791,-5.1895,-5.206,-5.206,-5.2164,-5.2329,-5.2329,-5.2495,0.0,-5.2743,-5.293,-5.3178,-5.3178,-5.3178,-5.3178,-5.3178,-5.3178,-5.3178,-5.3178,-5.2992,-5.2743,-5.2743,-5.2557,-5.2329,-5.2329,-5.2081,-5.1791,-5.1791,-5.1791,-5.1791,-5.1791,-5.1791,-5.1791,-5.1791,-5.1791,-5.1791,-5.1791,-5.1791,-5.1853,-5.2019,-5.206,-5.2122,-5.2288,-5.2329,-5.2329,-5.2329,-5.2329,-5.2267,-5.2081,-5.206,-5.1998,-5.1812,-5.1791,-5.1791,-5.1791,-5.1791,-5.1791,-5.1791,-5.1791,-5.1791,-5.1791,-5.1791,-5.1791,-5.1791,-5.1791,-5.1791,-5.1791,-5.1791,-5.1791,-5.1791,-5.1791,-5.1791,0.0,-3.9433,-3.964,-4.051,-4.0448,-4.0303,-4.0737,0.0,0.0,0.0,-4.0882,-4.0882,-4.0882,-4.0882,-4.0882,-4.0924,-4.1669,-4.2269,-4.229,0.0,0.0,0.0,0.0,0.0,0.0,0.0,0.0,0.0,0.0,0.0,-5.1833,-5.1791,-5.1791,-5.1791,-5.1833,-5.1833,-5.1791,-5.1833,-5.1853,-5.1853,-5.1874,-5.2122,-5.2536,-5.2536,-5.2785,0.0,-5.3178,0.0,0.0,-5.324,-5.324,-5.3282,-5.3282,-5.3282,-5.3282,-5.3282,-5.3282,-5.3282,-5.3282,-5.3261,-5.322,-5.3199,-5.3178,-5.3178,-5.3178,-5.2578,-5.1895,-5.1895,-5.1895,-5.1895,-5.1895,-5.1895,-5.1895,-5.1895,-5.1895,-5.1895,-5.1895,-5.1895,-5.2019,-5.2454,-5.2536,-5.2681,-5.3116,-5.3178,-5.3178,-5.3178,-5.3178,-5.3033,-5.2599,-5.2536,-5.2371,-5.1957,-5.1895,-5.1895,-5.1853,-5.1812,-5.1791,-5.1791,-5.1791,-5.1791,-5.1791,-5.1791,-5.1791,-5.1791,-5.1791,-5.1791,-5.1791,-5.1791,-5.1791,-5.1791,-5.1791,-5.1791,-3.844,0.0,-3.8626,-3.9185,-3.9516,-3.9827,0.0,0.0,0.0,0.0,0.0,-4.0882,-4.0882,-4.0882,-4.0986,-4.1338,-4.1876,-4.2373,-4.2725,0.0,0.0,0.0,0.0,0.0,0.0,0.0,0.0,0.0,0.0,-5.2288,-5.1833,-5.1791,-5.1791,-5.1791,-5.2143,-5.2164,-5.1812,-5.2164,-5.2329,-5.2329,-5.2681,-5.2909,-5.3013,-5.3013,-5.3075,0.0,0.0,0.0,-5.3696,-5.3696,-5.3903,-5.4213,-5.4213,-5.4213,-5.4213,-5.4213,-5.4213,-5.4213,-5.4213,-5.3985,-5.3633,-5.3282,-5.3178,-5.3178,-5.3178,-5.3033,-5.2847,-5.2847,-5.2847,-5.2847,-5.2847,-5.2847,-5.2847,-5.2847,-5.2847,-5.2847,-5.2847,-5.2847,-5.2888,-5.2992,-5.3013,-5.3054,-5.3157,-5.3178,-5.3178,-5.3178,-5.3178,-5.3137,-5.3033,-5.3013,-5.2971,-5.2868,-5.2847,-5.2723,-5.2371,-5.1998,-5.1791,-5.1791,-5.1791,-5.1791,-5.1791,-5.1791,-5.1791,-5.1791,-5.1791,-5.1791,-5.1791,-5.1791,-5.1791,-5.1791,-5.1791,-5.1791,-3.8191,-3.8336,-3.8543,-3.8792,-3.9351,-3.993,-4.0179,0.0,0.0,0.0,0.0,0.0,-4.0882,0.0,0.0,-4.1483,-4.2311,-4.3263,0.0,0.0,0.0,0.0,0.0,0.0,0.0,0.0,0.0,0.0,0.0,-5.206,-5.1812,-5.1998,-5.2122,-5.2122,-5.2578,-5.2578,-5.2122,-5.2578,-5.2806,-5.2806,-5.3054,-5.3282,-5.3489,-5.3489,-5.3613,0.0,0.0,0.0,-5.4151,-5.4151,-5.4317,-5.4544,-5.4544,-5.4544,-5.4544,-5.4544,-5.4544,-5.4544,-5.4544,-5.4379,-5.413,-5.3882,-5.3799,-5.3799,-5.3799,-5.3799,-5.3716,-5.3302,-5.3178,-5.3178,-5.3178,-5.3178,-5.3178,-5.3178,-5.3178,-5.3178,-5.3178,-5.3178,-5.324,-5.3447,-5.3489,-5.3551,-5.3758,-5.3799,-5.3799,-5.3799,-5.3799,-5.3737,-5.3509,-5.3489,-5.3406,-5.3199,-5.3178,-5.3075,-5.2826,-5.2578,-5.2247,-5.1833,-5.1791,-5.1791,-5.1791,-5.1791,-5.1791,-5.1791,-5.1791,-5.1791,-5.1791,-5.1791,-5.1791,-5.1791,-5.1791,-5.1791,-3.8191,-3.8564,-3.8957,-3.8957,-3.9599,-4.0241,-4.0323,0.0,0.0,0.0,0.0,0.0,0.0,0.0,0.0,0.0,0.0,0.0,0.0,0.0,0.0,0.0,0.0,0.0,0.0,0.0,0.0,0.0,0.0,-5.1791,-5.1791,-5.2247,-5.2495,-5.2495,-5.3013,-5.3095,-5.2702,-5.3095,-5.3282,-5.3282,-5.3344,-5.3592,-5.3944,-5.3944,-5.4172,-5.4544,0.0,0.0,-5.4544,-5.4544,-5.4544,-5.4544,-5.4544,-5.4544,-5.4544,-5.4544,-5.4544,-5.4544,-5.4544,-5.4544,-5.4544,-5.4544,-5.4544,-5.4544,-5.4544,-5.4544,-5.4379,-5.3613,-5.3385,-5.3385,-5.3385,-5.3385,-5.3385,-5.3385,-5.3385,-5.3385,-5.3385,-5.3385,-5.3509,-5.3882,-5.3944,-5.4068,-5.4461,-5.4544,-5.4544,-5.4544,-5.4544,-5.4399,-5.4006,-5.3944,-5.3799,-5.3427,-5.3385,-5.3364,-5.3282,-5.3282,-5.293,-5.206,-5.1957,-5.1874,-5.1791,-5.1791,-5.1791,-5.1791,-5.1791,-5.1791,-5.1791,-5.1791,-5.1791,-5.1791,-5.1791,-5.1791,-3.8191,-3.8792,-3.9433,-3.9433,-3.9827,-4.0323,-4.0696,0.0,0.0,0.0,0.0,0.0,0.0,0.0,0.0,0.0,0.0,0.0,0.0,0.0,0.0,0.0,0.0,0.0,0.0,0.0,0.0,0.0,0.0,-5.1791,-5.1791,-5.2247,-5.2495,-5.2495,-5.3302,-5.3716,-5.3633,-5.3696,-5.3737,-5.3758,-5.413,-5.4358,-5.442,-5.442,-5.4461,-5.4544,0.0,-5.4544,-5.4544,-5.4544,-5.4544,-5.4544,-5.4544,-5.4544,-5.4544,-5.4544,-5.4544,-5.4544,-5.4544,-5.4544,-5.4544,-5.4544,-5.4544,-5.4544,-5.4544,-5.4544,-5.4503,-5.4379,-5.4337,-5.4337,-5.4337,-5.4337,-5.4337,-5.4337,-5.4337,-5.4337,-5.4337,-5.4337,-5.4358,-5.442,-5.442,-5.4461,-5.4524,-5.4544,-5.4544,-5.4544,-5.4544,-5.4503,-5.4441,-5.442,-5.4399,-5.4337,-5.4337,-5.4172,-5.3778,-5.3737,-5.353,-5.3013,-5.2599,-5.2205,-5.1812,-5.1791,-5.1791,-5.1791,-5.1791,-5.1791,-5.1791,-5.1791,-5.1791,-5.1791,-5.1791,-5.1791,-3.8481,-3.904,-3.9723,-4.0448,-4.0613,-4.0634,-4.082,0.0,0.0,0.0,0.0,0.0,0.0,0.0,0.0,0.0,0.0,0.0,0.0,0.0,0.0,0.0,0.0,0.0,0.0,0.0,0.0,0.0,0.0,0.0,-5.2164,-5.2619,-5.2971,-5.322,-5.3861,-5.4213,-5.4213,-5.4213,-5.4213,-5.4213,-5.4441,-5.4544,-5.4544,-5.4544,-5.4544,-5.4544,0.0,-5.4544,-5.4544,-5.4544,-5.4544,-5.4544,-5.4544,-5.4544,-5.4544,-5.4544,-5.4544,-5.4544,-5.4544,-5.4544,-5.4544,-5.4544,-5.4544,-5.4544,-5.4544,-5.4544,-5.4544,-5.4544,-5.4544,-5.4544,-5.4544,-5.4544,-5.4544,-5.4544,-5.4544,-5.4544,-5.4544,-5.4544,-5.4544,-5.4544,-5.4544,-5.4544,-5.4544,-5.4544,-5.4544,-5.4544,-5.4544,-5.4544,-5.4544,-5.4544,-5.4544,-5.4544,-5.4544,-5.4441,-5.4234,-5.4213,-5.382,-5.2868,-5.2619,-5.2288,-5.1812,-5.1791,-5.1791,-5.1791,-5.1791,-5.1791,-5.1791,-5.1791,-5.1791,-5.1791,-5.1791,-5.1791,-3.873,-3.9185,-3.9827,-4.0965,0.0,-4.1255,0.0,0.0,0.0,0.0,0.0,0.0,0.0,0.0,0.0,0.0,0.0,0.0,0.0,0.0,0.0,0.0,0.0,0.0,0.0,0.0,0.0,0.0,0.0,0.0,-5.2474,-5.293,-5.3385,-5.384,-5.4296,-5.4544,-5.4544,-5.4544,-5.4544,-5.4544,-5.4544,-5.4544,-5.4544,-5.4544,-5.4544,-5.4544,-5.4544,-5.4544,-5.4544,-5.4544,-5.4544,-5.4544,-5.4544,-5.4544,-5.4544,-5.4544,-5.4544,-5.4544,-5.4544,-5.4544,-5.4544,-5.4544,-5.4544,-5.4544,-5.4544,-5.4544,-5.4544,-5.4544,-5.4544,-5.4544,-5.4544,-5.4544,-5.4544,-5.4544,-5.4544,-5.4544,-5.4544,-5.4544,-5.4544,-5.4544,-5.4544,-5.4544,-5.4544,-5.4544,-5.4544,-5.4544,-5.4544,-5.4544,-5.4544,-5.4544,-5.4544,-5.4544,-5.4544,-5.4544,-5.4544,-5.4544,-5.4048,-5.2888,-5.2599,-5.2329,-5.1978,-5.1853,-5.1791,-5.1791,-5.1791,-5.1791,-5.1791,-5.1791,-5.1791,-5.1791,-5.1791,-5.1853,-3.873,-3.9185,-3.9661,-4.0199,0.0,0.0,-4.3221,0.0,0.0,0.0,0.0,0.0,0.0,0.0,0.0,0.0,0.0,0.0,0.0,0.0,0.0,0.0,0.0,0.0,0.0,0.0,0.0,0.0,0.0,0.0,-5.2474,-5.293,-5.3385,-5.384,-5.4296,-5.4544,-5.4544,-5.4544,-5.4544,-5.4544,-5.4544,-5.4544,-5.4544,-5.4544,-5.4544,-5.4544,-5.4544,-5.4544,-5.4544,-5.4544,-5.4544,-5.4544,-5.4544,-5.4544,-5.4544,-5.4544,-5.4544,-5.4544,-5.4544,-5.4544,-5.4544,-5.4544,-5.4544,-5.4544,-5.4544,-5.4544,-5.4544,-5.4544,-5.4544,-5.4544,-5.4544,-5.4544,-5.4544,-5.4544,-5.4544,-5.4544,-5.4544,-5.4544,-5.4544,-5.4544,-5.4544,-5.4544,-5.4544,-5.4544,-5.4544,-5.4544,-5.4544,-5.4544,-5.4544,-5.4544,-5.4544,-5.4544,-5.4544,-5.4544,-5.4544,-5.4544,-5.4317,-5.3778,-5.295,-5.2474,-5.2433,-5.2019,-5.1791,-5.1791,-5.1791,-5.1791,-5.1791,-5.1791,-5.1791,-5.1791,-5.1791,-5.204,-3.9144,-4.0013,-4.1048,-4.2083,0.0,0.0,0.0,0.0,0.0,0.0,0.0,0.0,0.0,0.0,0.0,0.0,0.0,0.0,0.0,0.0,0.0,0.0,0.0,0.0,0.0,0.0,0.0,0.0,0.0,0.0,-5.2888,-5.3095,-5.353,-5.4255,-5.4441,-5.4544,-5.4544,-5.4544,-5.4544,-5.4544,-5.4544,-5.4544,-5.4544,-5.4544,-5.4544,-5.4544,-5.4544,-5.4544,-5.4544,-5.4544,-5.4544,-5.4544,-5.4544,-5.4544,-5.4544,-5.4544,-5.4544,-5.4544,-5.4544,-5.4544,-5.4544,-5.4544,-5.4544,-5.4544,-5.4544,-5.4544,-5.4544,-5.4544,-5.4544,-5.4544,-5.4544,-5.4544,-5.4544,-5.4544,-5.4544,-5.4544,-5.4544,-5.4544,-5.4544,-5.4544,-5.4544,-5.4544,-5.4544,-5.4544,-5.4544,-5.4544,-5.4544,-5.4544,-5.4544,-5.4544,-5.4544,-5.4544,-5.4544,-5.4544,-5.4544,-5.4544,-5.4461,-5.4296,-5.3675,-5.3075,-5.2516,-5.2329,-5.2102,-5.1812,-5.2081,-5.2226,-5.2226,-5.2516,-5.2661,-5.2661,-5.2661,-5.2764,-3.9413,-4.053,-4.1835,0.0,0.0,0.0,0.0,0.0,0.0,0.0,0.0,0.0,0.0,0.0,0.0,0.0,0.0,0.0,0.0,0.0,0.0,0.0,0.0,0.0,0.0,0.0,0.0,0.0,0.0,0.0,0.0,-5.3178,-5.3592,-5.4503,-5.4544,-5.4544,-5.4544,-5.4544,-5.4544,-5.4544,-5.4544,-5.4544,-5.4544,-5.4544,-5.4544,-5.4544,-5.4544,-5.4544,-5.4544,-5.4544,-5.4544,-5.4544,-5.4544,-5.4544,-5.4544,-5.4544,-5.4544,-5.4544,-5.4544,-5.4544,-5.4544,-5.4544,-5.4544,-5.4544,-5.4544,-5.4544,-5.4544,-5.4544,-5.4544,-5.4544,-5.4544,-5.4544,-5.4544,-5.4544,-5.4544,-5.4544,-5.4544,-5.4544,-5.4544,-5.4544,-5.4544,-5.4544,-5.4544,-5.4544,-5.4544,-5.4544,-5.4544,-5.4544,-5.4544,-5.4544,-5.4544,-5.4544,-5.4544,-5.4544,-5.4544,-5.4544,-5.4544,-5.4544,-5.4234,-5.3716,-5.295,-5.2785,-5.2557,-5.2247,-5.2557,-5.2702,-5.2702,-5.3033,-5.3178,-5.3178,-5.3178,-5.3261,-3.9433,-4.0551,0.0,0.0,0.0,0.0,0.0,0.0,0.0,0.0,0.0,0.0,0.0,0.0,0.0,0.0,0.0,0.0,0.0,0.0,0.0,0.0,0.0,0.0,0.0,0.0,0.0,0.0,0.0,0.0,0.0,-5.3178,-5.3592,-5.4503,-5.4544,-5.4544,-5.4544,-5.4544,-5.4544,-5.4544,-5.4544,-5.4544,-5.4544,-5.4544,-5.4544,-5.4544,-5.4544,-5.4544,-5.4544,-5.4544,-5.4544,-5.4544,-5.4544,-5.4544,-5.4544,-5.4544,-5.4544,-5.4544,-5.4544,-5.4544,-5.4544,-5.4544,-5.4544,-5.4544,-5.4544,-5.4544,-5.4544,-5.4544,-5.4544,-5.4544,-5.4544,-5.4544,-5.4544,-5.4544,-5.4544,-5.4544,-5.4544,-5.4544,-5.4544,-5.4544,-5.4544,-5.4544,-5.4544,-5.4544,-5.4544,-5.4544,-5.4544,-5.4544,-5.4544,-5.4544,-5.4544,-5.4544,-5.4544,-5.4544,-5.4544,-5.4544,-5.4544,-5.4544,-5.4544,-5.4337,-5.3861,-5.3427,-5.3178,-5.3178,-5.3178,-5.3199,-5.3199,-5.3199,-5.3199,-5.3199,-5.3199,-5.3427,-4.0841,0.0,0.0,0.0,0.0,0.0,0.0,0.0,0.0,0.0,0.0,0.0,0.0,0.0,0.0,0.0,0.0,0.0,0.0,0.0,0.0,0.0,0.0,0.0,0.0,0.0,0.0,0.0,0.0,0.0,0.0,-5.3178,-5.3592,-5.4503,-5.4544,-5.4544,-5.4544,-5.4544,-5.4544,-5.4544,-5.4544,-5.4544,-5.4544,-5.4544,-5.4544,-5.4544,-5.4544,-5.4544,-5.4544,-5.4544,-5.4544,-5.4544,-5.4544,-5.4544,-5.4544,-5.4544,-5.4544,-5.4544,-5.4544,-5.4544,-5.4544,-5.4544,-5.4544,-5.4544,-5.4544,-5.4544,-5.4544,-5.4544,-5.4544,-5.4544,-5.4544,-5.4544,-5.4544,-5.4544,-5.4544,-5.4544,-5.4544,-5.4544,-5.4544,-5.4544,-5.4544,-5.4544,-5.4544,-5.4544,-5.4544,-5.4544,-5.4544,-5.4544,-5.4544,-5.4544,-5.4544,-5.4544,-5.4544,-5.4544,-5.4544,-5.4544,-5.4544,-5.4544,-5.4544,-5.4337,-5.3861,-5.3716,-5.3509,-5.3199,-5.3489,-5.3654,-5.3654,-5.3965,-5.413,-5.413,-5.413,-5.4213,-4.1483,0.0,0.0,0.0,0.0,0.0,0.0,0.0,0.0,0.0,0.0,0.0,0.0,0.0,0.0,0.0,0.0,0.0,0.0,0.0,0.0,0.0,0.0,0.0,0.0,0.0,0.0,0.0,0.0,0.0,0.0,-5.3178,-5.3592,-5.4503,-5.4544,-5.4544,-5.4544,-5.4544,-5.4544,-5.4544,-5.4544,-5.4544,-5.4544,-5.4544,-5.4544,-5.4544,-5.4544,-5.4544,-5.4544,-5.4544,-5.4544,-5.4544,-5.4544,-5.4544,-5.4544,-5.4544,-5.4544,-5.4544,-5.4544,-5.4544,-5.4544,-5.4544,-5.4544,-5.4544,-5.4544,-5.4544,-5.4544,-5.4544,-5.4544,-5.4544,-5.4544,-5.4544,-5.4544,-5.4544,-5.4544,-5.4544,-5.4544,-5.4544,-5.4544,-5.4544,-5.4544,-5.4544,-5.4544,-5.4544,-5.4544,-5.4544,-5.4544,-5.4544,-5.4544,-5.4544,-5.4544,-5.4544,-5.4544,-5.4544,-5.4544,-5.4544,-5.4544,-5.4544,-5.4544,-5.442,-5.413,-5.413,-5.3985,-5.3716,-5.3985,-5.413,-5.413,-5.4399,-5.4544,-5.4544,-5.4544,-5.4544,0.0,0.0,0.0,0.0,0.0,0.0,0.0,0.0,0.0,0.0,0.0,0.0,0.0,0.0,0.0,0.0,0.0,0.0,0.0,0.0,0.0,0.0,0.0,0.0,0.0,0.0,0.0,0.0,0.0,0.0,0.0,-5.3157,-5.3571,-5.4441,-5.4503,-5.4544,-5.4544,-5.4544,-5.4544,-5.4544,-5.4544,-5.4544,-5.4544,-5.4544,-5.4544,-5.4544,-5.4544,-5.4544,-5.4544,-5.4544,-5.4544,-5.4544,-5.4544,-5.4544,-5.4544,-5.4544,-5.4544,-5.4544,-5.4544,-5.4544,-5.4544,-5.4544,-5.4544,-5.4544,-5.4544,-5.4544,-5.4544,-5.4544,-5.4544,-5.4544,-5.4544,-5.4544,-5.4544,-5.4544,-5.4544,-5.4544,-5.4544,-5.4544,-5.4544,-5.4544,-5.4544,-5.4544,-5.4544,-5.4544,-5.4544,-5.4544,-5.4544,-5.4544,-5.4544,-5.4544,-5.4544,-5.4544,-5.4544,-5.4544,-5.4544,-5.4544,-5.4544,-5.4544,-5.4544,-5.4544,-5.4544,-5.4544,-5.4544,-5.4544,-5.4544,-5.4544,-5.4544,-5.4544,-5.4544,-5.4544,-5.4544,-5.4544,0.0,0.0,0.0,0.0,0.0,0.0,0.0,0.0,0.0,0.0,0.0,0.0,0.0,0.0,0.0,0.0,0.0,0.0,0.0,0.0,0.0,0.0,0.0,0.0,0.0,0.0,0.0,0.0,0.0,0.0,-5.2619,-5.2992,-5.3427,-5.3985,-5.4358,-5.4544,-5.4544,-5.4544,-5.4544,0.0,-5.4544,-5.4544,-5.4544,-5.4544,-5.4544,-5.4544,-5.4544,-5.4544,-5.4544,-5.4544,-5.4544,-5.4544,-5.4544,-5.4544,-5.4544,-5.4544,-5.4544,-5.4544,-5.4544,-5.4544,-5.4544,-5.4544,-5.4544,-5.4544,-5.4544,-5.4544,-5.4544,-5.4544,-5.4544,-5.4544,-5.4544,-5.4544,-5.4544,-5.4544,-5.4544,-5.4544,-5.4544,-5.4544,-5.4544,-5.4544,-5.4544,-5.4544,-5.4544,-5.4544,-5.4544,-5.4544,-5.4544,-5.4544,-5.4544,-5.4544,-5.4544,-5.4544,-5.4544,-5.4544,-5.4544,-5.4544,-5.4544,-5.4544,-5.4544,-5.4544,-5.4544,-5.4544,-5.4544,-5.4544,-5.4544,-5.4544,-5.4544,-5.4544,-5.4544,-5.4544,-5.4544,-5.4544,0.0,0.0,0.0,0.0,0.0,0.0,0.0,0.0,0.0,0.0,0.0,0.0,0.0,0.0,0.0,0.0,0.0,0.0,0.0,0.0,0.0,0.0,0.0,0.0,0.0,0.0,0.0,0.0,0.0,-5.1998,-5.2474,-5.293,-5.3385,-5.384,-5.4296,-5.4544,-5.4544,-5.4544,-5.4544,-5.4544,-5.4544,-5.4544,-5.4544,-5.4544,-5.4544,-5.4544,-5.4544,-5.4544,-5.4544,-5.4544,-5.4544,-5.4544,-5.4544,-5.4544,-5.4544,-5.4544,-5.4544,-5.4544,-5.4544,-5.4544,-5.4544,-5.4544,-5.4544,-5.4544,-5.4544,-5.4544,-5.4544,-5.4544,-5.4544,-5.4544,-5.4544,-5.4544,-5.4544,-5.4544,-5.4544,-5.4544,-5.4544,-5.4544,-5.4544,-5.4544,-5.4544,-5.4544,-5.4544,-5.4544,-5.4544,-5.4544,-5.4544,-5.4544,-5.4544,-5.4544,-5.4544,-5.4544,-5.4544,-5.4544,-5.4544,-5.4544,-5.4544,-5.4544,-5.4544,-5.4544,-5.4544,-5.4544,-5.4544,-5.4544,-5.4544,-5.4544,-5.4544,-5.4544,-5.4544,-5.4544,-5.4544,-5.4544,0.0,0.0,0.0,0.0,0.0,0.0,0.0,0.0,0.0,0.0,0.0,0.0,0.0,0.0,0.0,0.0,0.0,0.0,0.0,0.0,0.0,0.0,0.0,0.0,0.0,0.0,0.0,0.0,0.0,-5.1978,-5.235,-5.2888,-5.3344,-5.3716,-5.4255,-5.4544,-5.4544,-5.4544,-5.4544,-5.4544,-5.4544,-5.4544,-5.4544,-5.4544,-5.4544,-5.4544,-5.4544,-5.4544,-5.4544,-5.4544,-5.4544,-5.4544,-5.4544,-5.4544,-5.4544,-5.4544,-5.4544,-5.4544,-5.4544,-5.4544,-5.4544,-5.4544,-5.4544,-5.4544,-5.4544,-5.4544,-5.4544,-5.4544,-5.4544,-5.4544,-5.4544,-5.4544,-5.4544,-5.4544,-5.4544,-5.4544,-5.4544,-5.4544,-5.4544,-5.4544,-5.4544,-5.4544,-5.4544,-5.4544,-5.4544,-5.4544,-5.4544,-5.4544,-5.4544,-5.4544,-5.4544,-5.4544,-5.4544,-5.4544,-5.4544,-5.4544,-5.4544,-5.4544,-5.4544,-5.4544,-5.4544,-5.4544,-5.4544,-5.4544,-5.4544,-5.4544,-5.4544,-5.4544,-5.4544,-5.4544,-5.4544,-5.4544,0.0,0.0,0.0,0.0,0.0,0.0,0.0,0.0,0.0,0.0,0.0,0.0,0.0,0.0,0.0,0.0,0.0,0.0,0.0,0.0,0.0,0.0,0.0,0.0,0.0,0.0,0.0,0.0,-5.1791,-5.1833,-5.1895,-5.2702,-5.322,-5.3261,-5.4089,-5.4544,-5.4544,-5.4544,-5.4544,-5.4544,-5.4544,-5.4544,-5.4544,-5.4544,-5.4544,-5.4544,-5.4544,-5.4544,-5.4544,-5.4544,-5.4544,-5.4544,-5.4544,-5.4544,-5.4544,-5.4544,-5.4544,-5.4544,-5.4544,-5.4544,-5.4544,-5.4544,-5.4544,-5.4544,-5.4544,-5.4544,-5.4544,-5.4544,-5.4544,-5.4544,-5.4544,-5.4544,-5.4544,-5.4544,-5.4544,-5.4544,-5.4544,-5.4544,-5.4544,-5.4544,-5.4544,-5.4544,-5.4544,-5.4544,-5.4544,-5.4544,-5.4544,-5.4544,-5.4544,-5.4544,-5.4544,-5.4544,-5.4544,-5.4544,-5.4544,-5.4544,-5.4544,-5.4544,-5.4544,-5.4544,-5.4544,-5.4544,-5.4544,-5.4544,-5.4544,-5.4544,-5.4544,-5.4544,-5.4544,-5.4544,-5.4544,-5.4544,0.0,0.0,0.0,0.0,0.0,0.0,0.0,0.0,0.0,0.0,0.0,0.0,0.0,0.0,0.0,0.0,0.0,0.0,0.0,0.0,0.0,0.0,0.0,0.0,0.0,0.0,0.0,0.0,-5.1791,-5.1791,-5.1791,-5.2433,-5.2909,-5.3178,-5.382,-5.4275,-5.4544,-5.4544,-5.4544,-5.4544,-5.4544,-5.4544,-5.4544,-5.4544,-5.4544,-5.4544,-5.4544,-5.4544,-5.4544,-5.4544,-5.4544,-5.4544,-5.4544,-5.4544,-5.4544,-5.4544,-5.4544,-5.4544,-5.4544,-5.4544,-5.4544,-5.4544,-5.4544,-5.4544,-5.4544,-5.4544,-5.4544,-5.4544,-5.4544,-5.4544,-5.4544,-5.4544,-5.4544,-5.4544,-5.4544,-5.4544,-5.4544,-5.4544,-5.4544,-5.4544,-5.4544,-5.4544,-5.4544,-5.4544,-5.4544,-5.4544,-5.4544,-5.4544,-5.4544,-5.4544,-5.4544,-5.4544,-5.4544,-5.4544,-5.4544,-5.4544,-5.4544,-5.4544,-5.4544,-5.4544,-5.4544,-5.4544,-5.4544,-5.4544,-5.4544,-5.4544,-5.4544,-5.4544,-5.4544,-5.4544,-5.4544,-5.4544,0.0,0.0,0.0,0.0,0.0,0.0,0.0,0.0,0.0,0.0,0.0,0.0,0.0,0.0,0.0,0.0,0.0,0.0,0.0,0.0,0.0,0.0,0.0,0.0,0.0,0.0,0.0,0.0,-5.1791,-5.1791,-5.1791,-5.2247,-5.264,-5.2992,-5.3551,-5.4006,-5.4358,-5.4482,-5.4544,-5.4544,-5.4544,-5.4544,-5.4544,-5.4544,-5.4544,-5.4544,-5.4544,-5.4544,-5.4544,-5.4544,-5.4544,-5.4544,-5.4544,-5.4544,-5.4544,-5.4544,-5.4544,-5.4544,-5.4544,-5.4544,-5.4544,-5.4544,-5.4544,-5.4544,-5.4544,-5.4544,-5.4544,-5.4544,-5.4544,-5.4544,-5.4544,-5.4544,-5.4544,-5.4544,-5.4544,-5.4544,-5.4544,-5.4544,-5.4544,-5.4544,-5.4544,-5.4544,-5.4544,-5.4544,-5.4544,-5.4544,-5.4544,-5.4544,-5.4544,-5.4544,-5.4544,-5.4544,-5.4544,-5.4544,-5.4544,-5.4544,-5.4544,-5.4544,-5.4544,-5.4544,-5.4544,-5.4544,-5.4544,-5.4544,-5.4544,-5.4544,-5.4544,-5.4544,-5.4544,-5.4544,-5.4544,-5.4714,0.0,0.0,0.0,0.0,0.0,0.0,0.0,0.0,0.0,0.0,0.0,0.0,0.0,0.0,0.0,0.0,0.0,0.0,0.0,0.0,0.0,0.0,0.0,0.0,0.0,0.0,0.0,0.0,-5.1791,-5.1791,-5.1791,-5.2247,-5.2495,-5.2536,-5.3385,-5.3861,-5.3882,-5.4317,-5.4544,-5.4544,-5.4544,-5.4544,-5.4544,-5.4544,-5.4544,-5.4544,-5.4544,-5.4544,-5.4544,-5.4544,-5.4544,-5.4544,-5.4544,-5.4544,-5.4544,-5.4544,-5.4544,-5.4544,-5.4544,-5.4544,-5.4544,-5.4544,-5.4544,-5.4544,-5.4544,-5.4544,-5.4544,-5.4544,-5.4544,-5.4544,-5.4544,-5.4544,-5.4544,-5.4544,-5.4544,-5.4544,-5.4544,-5.4544,-5.4544,-5.4544,-5.4544,-5.4544,-5.4544,-5.4544,-5.4544,-5.4544,-5.4544,-5.4544,-5.4544,-5.4544,-5.4544,-5.4544,-5.4544,-5.4544,-5.4544,-5.4544,-5.4544,-5.4544,-5.4544,-5.4544,-5.4544,-5.4544,-5.4544,-5.4544,-5.4544,-5.4544,-5.4544,-5.4544,-5.4544,-5.4544,-5.4544,-5.543,-4.1276,0.0,0.0,0.0,0.0,0.0,0.0,0.0,0.0,0.0,0.0,0.0,0.0,0.0,0.0,0.0,0.0,0.0,0.0,0.0,0.0,0.0,0.0,0.0,0.0,0.0,0.0,0.0,0.0,-5.1791,-5.1791,-5.1957,-5.2185,-5.2495,-5.2806,-5.3261,-5.384,-5.4296,-5.4544,-5.4544,-5.4544,-5.4544,-5.4544,-5.4544,-5.4544,-5.4544,-5.4544,-5.4544,-5.4544,-5.4544,-5.4544,-5.4544,-5.4544,-5.4544,-5.4544,-5.4544,-5.4544,-5.4544,-5.4544,-5.4544,-5.4544,-5.4544,-5.4544,-5.4544,-5.4544,-5.4544,-5.4544,-5.4544,-5.4544,-5.4544,-5.4544,-5.4544,-5.4544,-5.4544,-5.4544,-5.4544,-5.4544,-5.4544,-5.4544,-5.4544,-5.4544,-5.4544,-5.4544,-5.4544,-5.4544,-5.4544,-5.4544,-5.4544,-5.4544,-5.4544,-5.4544,-5.4544,-5.4544,-5.4544,-5.4544,-5.4544,-5.4544,-5.4544,-5.4544,-5.4544,-5.4544,-5.4544,-5.4544,-5.4544,-5.4544,-5.4544,-5.4544,-5.4544,-5.4544,-5.4544,-5.5786,-5.6681,-4.0882,0.0,0.0,0.0,0.0,0.0,0.0,0.0,0.0,0.0,0.0,0.0,0.0,0.0,0.0,0.0,0.0,0.0,0.0,0.0,0.0,0.0,0.0,0.0,0.0,0.0,0.0,0.0,0.0,0.0,-5.1791,-5.1791,-5.2019,-5.2474,-5.264,-5.3095,-5.384,-5.4296,-5.4544,-5.4544,-5.4544,-5.4544,-5.4544,-5.4544,-5.4544,-5.4544,-5.4544,-5.4544,-5.4544,-5.4544,-5.4544,-5.4544,-5.4544,-5.4544,-5.4544,-5.4544,-5.4544,-5.4544,-5.4544,-5.4544,-5.4544,-5.4544,-5.4544,-5.4544,-5.4544,-5.4544,-5.4544,-5.4544,-5.4544,-5.4544,-5.4544,-5.4544,-5.4544,-5.4544,-5.4544,-5.4544,-5.4544,-5.4544,-5.4544,-5.4544,-5.4544,-5.4544,-5.4544,-5.4544,-5.4544,-5.4544,-5.4544,-5.4544,-5.4544,-5.4544,-5.4544,-5.4544,-5.4544,-5.4544,-5.4544,-5.4544,-5.4544,-5.4544,-5.4544,-5.4544,-5.4544,-5.4544,-5.4544,-5.4544,-5.4544,-5.4544,-5.4544,-5.4544,-5.4544,-5.4524,-5.6516,-5.8123,0.0,0.0,0.0,0.0,0.0,0.0,0.0,0.0,0.0,0.0,0.0,0.0,0.0,0.0,0.0,0.0,0.0,0.0,0.0,0.0,0.0,0.0,0.0,0.0,0.0,0.0,0.0,0.0,-5.1791,-5.1791,-5.1791,-5.1791,-5.1998,-5.2454,-5.2909,-5.3364,-5.382,-5.4296,-5.4524,-5.4544,-5.4544,-5.4544,-5.4544,-5.4544,-5.4544,-5.4544,-5.4544,-5.4544,-5.4544,-5.4544,-5.4544,-5.4544,-5.4544,-5.4544,-5.4544,-5.4544,-5.4544,-5.4544,-5.4544,-5.4544,-5.4544,-5.4544,-5.4544,-5.4544,-5.4544,-5.4544,-5.4544,-5.4544,-5.4544,-5.4544,-5.4544,-5.4544,-5.4544,-5.4544,-5.4544,-5.4544,-5.4544,-5.4544,-5.4544,-5.4544,-5.4544,-5.4544,-5.4544,-5.4544,-5.4544,-5.4544,-5.4544,-5.4544,-5.4544,-5.4544,-5.4544,-5.4544,-5.4544,-5.4544,-5.4544,-5.4544,-5.4544,-5.4544,-5.4544,-5.4544,-5.4544,-5.4544,-5.4544,-5.4544,-5.4544,-5.4544,-5.4544,-5.4544,-5.4544,-5.4524,-5.6494,-5.9567,-4.0882,0.0,0.0,0.0,0.0,0.0,-4.5043,-4.5561,0.0,0.0,0.0,0.0,0.0,0.0,0.0,0.0,0.0,0.0,0.0,0.0,0.0,0.0,0.0,0.0,0.0,0.0,0.0,0.0,-5.1791,-5.1791,-5.1791,-5.1791,-5.1853,-5.1998,-5.2433,-5.2909,-5.3364,-5.382,-5.4213,-5.4544,-5.4544,-5.4544,-5.4544,-5.4544,-5.4544,-5.4544,-5.4544,-5.4544,-5.4544,-5.4544,-5.4544,-5.4544,-5.4544,-5.4544,-5.4544,-5.4544,-5.4544,-5.4544,-5.4544,-5.4544,-5.4544,-5.4544,-5.4544,-5.4544,-5.4544,-5.4544,-5.4544,-5.4544,-5.4544,-5.4544,-5.4544,-5.4544,-5.4544,-5.4544,-5.4544,-5.4544,-5.4544,-5.4544,-5.4544,-5.4544,-5.4544,-5.4544,-5.4544,-5.4544,-5.4544,-5.4544,-5.4544,-5.4544,-5.4544,-5.4544,-5.4544,-5.4544,-5.4544,-5.4544,-5.4544,-5.4544,-5.4544,-5.4544,-5.4544,-5.4544,-5.4544,-5.4544,-5.4544,-5.4544,-5.4544,-5.4544,-5.4544,-5.4544,-5.4544,-5.4524,-5.796,-6.1577,-4.1462,-4.1793,-4.2186,-4.2456,0.0,0.0,-4.4236,-4.4712,-4.5395,0.0,0.0,0.0,0.0,0.0,0.0,0.0,0.0,0.0,0.0,0.0,0.0,0.0,0.0,0.0,0.0,-5.1791,-5.1791,-5.1791,-5.1791,-5.1791,-5.1791,-5.1791,-5.1791,-5.1791,-5.2247,-5.2619,-5.2888,-5.353,-5.3985,-5.4255,-5.4441,-5.4544,-5.4544,-5.4544,-5.4544,-5.4544,-5.4544,-5.4544,-5.4544,-5.4544,-5.4544,-5.4544,-5.4544,-5.4544,-5.4544,-5.4544,-5.4544,-5.4544,-5.4544,-5.4544,-5.4544,-5.4544,-5.4544,-5.4544,-5.4544,-5.4544,-5.4544,-5.4544,-5.4544,-5.4544,-5.4544,-5.4544,-5.4544,-5.4544,-5.4544,-5.4544,-5.4544,-5.4544,-5.4544,-5.4544,-5.4544,-5.4544,-5.4544,-5.4544,-5.4544,-5.4544,-5.4544,-5.4544,-5.4544,-5.4544,-5.4544,-5.4544,-5.4544,-5.4544,-5.4544,-5.4544,-5.4544,-5.4544,-5.4544,-5.4544,-5.4544,-5.4544,-5.4544,-5.4544,-5.4544,-5.4544,-5.4544,-5.4544,-5.5262,-5.689,-5.9225,-6.2291,-4.2249,-4.258,-4.2911,-4.2911,-4.3263,0.0,-4.3739,-4.4319,-4.5126,-4.614,0.0,0.0,0.0,0.0,0.0,0.0,0.0,0.0,0.0,0.0,0.0,0.0,0.0,0.0,-5.1791,-5.1791,-5.1791,-5.1791,-5.1791,-5.1791,-5.1791,-5.1791,-5.1791,-5.1791,-5.2205,-5.2433,-5.2495,-5.3302,-5.3737,-5.3861,-5.4255,-5.4482,-5.4544,-5.4544,-5.4544,-5.4544,-5.4544,-5.4544,-5.4544,-5.4544,-5.4544,-5.4544,-5.4544,-5.4544,-5.4544,-5.4544,-5.4544,-5.4544,-5.4544,-5.4544,-5.4544,-5.4544,-5.4544,-5.4544,-5.4544,-5.4544,-5.4544,-5.4544,-5.4544,-5.4544,-5.4544,-5.4544,-5.4544,-5.4544,-5.4544,-5.4544,-5.4544,-5.4544,-5.4544,-5.4544,-5.4544,-5.4544,-5.4544,-5.4544,-5.4544,-5.4544,-5.4544,-5.4544,-5.4544,-5.4544,-5.4544,-5.4544,-5.4544,-5.4544,-5.4544,-5.4544,-5.4544,-5.4544,-5.4544,-5.4544,-5.4544,-5.4544,-5.4544,-5.4544,-5.4544,-5.4544,-5.4544,-5.4544,-5.6516,-6.0294,-6.0294,-6.2291,0.0,0.0,0.0,0.0,0.0,0.0,-4.4546,-4.4277,-4.4339,0.0,0.0,0.0,0.0,0.0,0.0,0.0,0.0,0.0,0.0,0.0,0.0,0.0,0.0,0.0,-5.1791,-5.1791,-5.1791,-5.1791,-5.1791,-5.1791,-5.1791,-5.1791,-5.1791,-5.1791,-5.1895,-5.2122,-5.2495,-5.2661,-5.3116,-5.384,-5.3944,-5.4172,-5.4544,-5.4544,-5.4544,-5.4544,-5.4544,-5.4544,-5.4544,-5.4544,-5.4544,-5.4544,-5.4544,-5.4544,-5.4544,-5.4544,-5.4544,-5.4544,-5.4544,-5.4544,-5.4544,-5.4544,-5.4544,-5.4544,-5.4544,-5.4544,-5.4544,-5.4544,-5.4544,-5.4544,-5.4544,-5.4544,-5.4544,-5.4544,-5.4544,-5.4544,-5.4544,-5.4544,-5.4544,-5.4544,-5.4544,-5.4544,-5.4544,-5.4544,-5.4544,-5.4544,-5.4544,-5.4544,-5.4544,-5.4544,-5.4544,-5.4544,-5.4544,-5.4544,-5.4544,-5.4544,-5.4544,-5.4544,-5.4544,-5.4544,-5.4544,-5.4544,-5.4544,-5.4544,-5.4544,-5.4544,-5.4544,-5.4544,-5.6516,-6.0294,-6.0294,-6.2291,0.0,0.0,0.0,-4.3263,0.0,0.0,0.0,-4.3946,-4.4008,-4.5395,0.0,0.0,-4.5498,0.0,0.0,0.0,0.0,-4.674,-4.79,-4.9224,-5.0259,-5.0715,-5.117,-5.1543,-5.1771,-5.1791,-5.1791,-5.1791,-5.1791,-5.1791,-5.1791,-5.1791,-5.1791,-5.1791,-5.1791,-5.1915,-5.2143,-5.2371,-5.2723,-5.3178,-5.3633,-5.3965,-5.4192,-5.442,-5.4544,-5.4544,-5.4544,-5.4544,-5.4544,-5.4544,-5.4544,-5.4544,-5.4544,-5.4544,-5.4544,-5.4544,-5.4544,-5.4544,-5.4544,-5.4544,-5.4544,-5.4544,-5.4544,-5.4544,-5.4544,-5.4544,-5.4544,-5.4544,-5.4544,-5.4544,-5.4544,-5.4544,-5.4544,-5.4544,-5.4544,-5.4544,-5.4544,-5.4544,-5.4544,-5.4544,-5.4544,-5.4544,-5.4544,-5.4544,-5.4544,-5.4544,-5.4544,-5.4544,-5.4544,-5.4544,-5.4544,-5.4544,-5.4544,-5.4544,-5.4544,-5.4544,-5.4544,-5.4544,-5.4544,-5.4544,-5.4544,-5.4544,-5.4544,-5.4544,-5.4544,-5.4544,-5.4544,-5.543,-5.7426,-6.0294,-6.1219,-6.3378,0.0,0.0,0.0,0.0,0.0,-4.3615,0.0,0.0,0.0,0.0,0.0,0.0,0.0,0.0,0.0,0.0,0.0,0.0,0.0,-4.7775,0.0,-4.9721,-5.0259,-5.0798,-5.1357,-5.1646,-5.1791,-5.1791,-5.1791,-5.1791,-5.1791,-5.1791,-5.1791,-5.1791,-5.1791,-5.1791,-5.1791,-5.2164,-5.2412,-5.2495,-5.324,-5.3675,-5.3861,-5.4234,-5.4461,-5.4544,-5.4544,-5.4544,-5.4544,-5.4544,-5.4544,-5.4544,-5.4544,-5.4544,-5.4544,-5.4544,-5.4544,-5.4544,-5.4544,-5.4544,-5.4544,-5.4544,-5.4544,-5.4544,-5.4544,-5.4544,-5.4544,-5.4544,-5.4544,-5.4544,-5.4544,-5.4544,-5.4544,-5.4544,-5.4544,-5.4544,-5.4544,-5.4544,-5.4544,-5.4544,-5.4544,-5.4544,-5.4544,-5.4544,-5.4544,-5.4544,-5.4544,-5.4544,-5.4544,-5.4544,-5.4544,-5.4544,-5.4544,-5.4544,-5.4544,-5.4544,-5.4544,-5.4544,-5.4544,-5.4544,-5.4544,-5.4544,-5.4544,-5.4544,-5.4544,-5.4544,-5.4544,-5.6868,-5.8859,-6.0294,-6.2291,-6.4304,0.0,0.0,0.0,0.0,-4.3615,0.0,0.0,0.0,0.0,-4.376,0.0,0.0,0.0,0.0,0.0,0.0,0.0,0.0,-4.4567,-4.5809,-4.6906,-4.7361,-4.8169,-4.9038,-4.9908,-5.1087,-5.1791,-5.1791,-5.1791,-5.1791,-5.1791,-5.1791,-5.1791,-5.1791,-5.1791,-5.1791,-5.1791,-5.1853,-5.2081,-5.2495,-5.2599,-5.3075,-5.384,-5.3903,-5.4151,-5.4544,-5.4544,-5.4544,-5.4544,-5.4544,-5.4544,-5.4544,-5.4544,-5.4544,-5.4544,-5.4544,-5.4544,-5.4544,-5.4544,-5.4544,-5.4544,-5.4544,-5.4544,-5.4544,-5.4544,-5.4544,-5.4544,-5.4544,-5.4544,-5.4544,-5.4544,-5.4544,-5.4544,-5.4544,-5.4544,-5.4544,-5.4544,-5.4544,-5.4544,-5.4544,-5.4544,-5.4544,-5.4544,-5.4544,-5.4544,-5.4544,-5.4544,-5.4544,-5.4544,-5.4544,-5.4544,-5.4544,-5.4544,-5.4544,-5.4544,-5.4544,-5.4544,-5.4544,-5.4544,-5.4544,-5.4544,-5.4544,-5.4544,-5.4544,-5.4544,-5.4544,-5.4544,-5.8145,-6.0113,-6.0294,-6.2291,-6.4304,0.0,0.0,0.0,0.0,0.0,0.0,-4.3739,0.0,-4.3615,0.0,0.0,0.0,0.0,0.0,0.0,0.0,-4.3801,-4.4132,0.0,0.0,-4.5333,0.0,0.0,0.0,-4.9618,-5.0032,-5.0425,-5.0963,-5.1005,-5.1005,-5.1005,-5.1501,-5.1791,-5.1791,-5.1791,-5.1791,-5.1791,-5.1791,-5.1895,-5.2102,-5.2371,-5.2681,-5.3075,-5.3613,-5.3944,-5.4151,-5.442,-5.4544,-5.4544,-5.4544,-5.4544,-5.4544,-5.4544,-5.4544,-5.4544,-5.4544,-5.4544,-5.4544,-5.4544,-5.4544,-5.4544,-5.4544,-5.4544,-5.4544,-5.4544,-5.4544,-5.4544,-5.4544,-5.4544,-5.4544,-5.4544,-5.4544,-5.4544,-5.4544,-5.4544,-5.4544,-5.4544,-5.4544,-5.4544,-5.4544,-5.4544,-5.4544,-5.4544,-5.4544,-5.4544,-5.4544,-5.4544,-5.4544,-5.4544,-5.4544,-5.4544,-5.4544,-5.4544,-5.4544,-5.4544,-5.4544,-5.4544,-5.4544,-5.4544,-5.4544,-5.4544,-5.4544,-5.4544,-5.4544,-5.4544,-5.5073,-5.6141,-5.9042,-6.0836,-6.2113,-6.3929,-6.5372,-4.5188,0.0,0.0,0.0,0.0,0.0,0.0,0.0,0.0,0.0,0.0,0.0,0.0,0.0,-4.3573,-4.3449,0.0,-4.3573,0.0,-4.3532,0.0,0.0,0.0,0.0,0.0,-4.8935,-4.9204,-4.999,-5.0052,-5.0156,-5.0404,-5.1067,-5.1543,-5.1791,-5.1791,-5.1791,-5.1791,-5.1791,-5.1791,-5.1812,-5.2143,-5.2371,-5.2516,-5.3178,-5.3613,-5.3861,-5.4213,-5.442,-5.4544,-5.4544,-5.4544,-5.4544,-5.4544,-5.4544,-5.4544,-5.4544,-5.4544,-5.4544,-5.4544,-5.4544,-5.4544,-5.4544,-5.4544,-5.4544,-5.4544,-5.4544,-5.4544,-5.4544,-5.4544,-5.4544,-5.4544,-5.4544,-5.4544,-5.4544,-5.4544,-5.4544,-5.4544,-5.4544,-5.4544,-5.4544,-5.4544,-5.4544,-5.4544,-5.4544,-5.4544,-5.4544,-5.4544,-5.4544,-5.4544,-5.4544,-5.4544,-5.4544,-5.4544,-5.4544,-5.4544,-5.4544,-5.4544,-5.4544,-5.4544,-5.4544,-5.4544,-5.4544,-5.4544,-5.4544,-5.4544,-5.543,-5.7405,-5.9408,-6.1219,-6.3201,-6.5199,-6.6112,0.0,0.0,0.0,-4.6078,0.0,0.0,0.0,0.0,-4.3615,0.0,0.0,0.0,0.0,-4.3615,-4.347,-4.3014,-4.3325,0.0,0.0,-4.3325,-4.3635,-4.3718,0.0,0.0,0.0,-4.79,-4.8603,-4.908,-4.91,-4.9494,-5.0363,-5.0446,-5.088,-5.1771,-5.1791,-5.1791,-5.1791,-5.1791,-5.1791,-5.1791,-5.1812,-5.206,-5.2495,-5.2516,-5.3013,-5.384,-5.3861,-5.413,-5.4544,-5.4544,-5.4544,-5.4544,-5.4544,-5.4544,-5.4544,-5.4544,-5.4544,-5.4544,-5.4544,-5.4544,-5.4544,-5.4544,-5.4544,-5.4544,-5.4544,-5.4544,-5.4544,-5.4544,-5.4544,-5.4544,-5.4544,-5.4544,-5.4544,-5.4544,-5.4544,-5.4544,-5.4544,-5.4544,-5.4544,-5.4544,-5.4544,-5.4544,-5.4544,-5.4544,-5.4544,-5.4544,-5.4544,-5.4544,-5.4544,-5.4544,-5.4544,-5.4544,-5.4544,-5.4544,-5.4544,-5.4544,-5.4544,-5.4544,-5.4544,-5.4544,-5.4544,-5.4544,-5.4544,-5.4544,-5.4544,-5.543,-5.7405,-5.9408,-6.1219,-6.3201,-6.5199,-6.6112,0.0,0.0,-4.6844,-4.7154,0.0,0.0,0.0,0.0,0.0,0.0,0.0,0.0,0.0,-4.3615,-4.3553,-4.3408,-4.3511,-4.3553,0.0,-4.3511,-4.3615,-4.3615,-4.4298,0.0,0.0,0.0,-4.6906,-4.7672,-4.7982,-4.8562,-4.9473,-5.0094,-5.0839,-5.1771,-5.1791,-5.1791,-5.1791,-5.1791,-5.1791,-5.1791,-5.1791,-5.1874,-5.204,-5.235,-5.2661,-5.2992,-5.3592,-5.3944,-5.411,-5.442,-5.4544,-5.4544,-5.4544,-5.4544,-5.4544,-5.4544,-5.4544,-5.4544,-5.4544,-5.4544,-5.4544,-5.4544,-5.4544,-5.4544,-5.4544,-5.4544,-5.4544,-5.4544,-5.4544,-5.4544,-5.4544,-5.4544,-5.4544,-5.4544,-5.4544,-5.4544,-5.4544,-5.4544,-5.4544,-5.4544,-5.4544,-5.4544,-5.4544,-5.4544,-5.4544,-5.4544,-5.4544,-5.4544,-5.4544,-5.4544,-5.4544,-5.4544,-5.4544,-5.4544,-5.4544,-5.4544,-5.4544,-5.4544,-5.4544,-5.4544,-5.4544,-5.4544,-5.4544,-5.4544,-5.4544,-5.6162,-5.9385,-5.9931,-6.1935,-6.5199,-6.5742,-6.6112,-4.8024,-4.7941,0.0,-4.8086,-4.7072,0.0,-4.5372,0.0,0.0,0.0,0.0,0.0,0.0,0.0,-4.3615,-4.3615,-4.3615,-4.3615,0.0,-4.3615,-4.3615,-4.3615,-4.3884,-4.436,0.0,-4.5188,-4.5581,-4.6492,-4.6823,-4.7589,-4.8997,-4.9618,-5.0508,-5.1771,-5.1791,-5.1791,-5.1791,-5.1791,-5.1791,-5.1791,-5.1791,-5.1791,-5.1812,-5.2102,-5.2329,-5.2536,-5.3282,-5.3696,-5.3882,-5.4358,-5.4544,-5.4544,-5.4544,-5.4544,-5.4544,-5.4544,-5.4544,-5.4544,-5.4544,-5.4544,-5.4544,-5.4544,-5.4544,-5.4544,-5.4544,-5.4544,-5.4627,-5.5124,-5.4917,-5.4648,-5.5124,-5.4896,-5.4544,-5.4544,-5.4544,-5.4544,-5.4544,-5.4544,-5.4544,-5.4544,-5.4544,-5.4544,-5.4544,-5.4544,-5.4544,-5.4544,-5.4544,-5.4544,-5.4544,-5.4544,-5.4544,-5.4544,-5.4544,-5.4544,-5.4544,-5.4544,-5.4544,-5.4544,-5.4544,-5.4544,-5.4544,-5.4544,-5.4689,-5.5,-5.471,-5.65,-6.0845,-6.0477,-6.2291,-6.6112,-6.6112,-6.6112]}]]